ftp/pub/palmer/observations_modified/2019/March/original_files/AR190316_BASE.txt

Download

Sample DateTime	Unit Id	WS Avg 2min	WD Avg 2min	WGS 10min	WGD 10min	Air Temp	Rel Humidity	Dew Point	Pyranometer	Quantum	Air Pressure	Snow Level	Rainfall	PW Current	Visibility	CBase 1	CBase 2	CBase 3	Vert Vis
2019/03/16 00:00:00	BASE	7.71	251	11.99	242	1.0	100	1.0	0	0	981.7	NA	0.0000		9999	360	0	0	0
2019/03/16 00:01:00	BASE	7.49	249	11.99	242	1.0	100	1.0	0	0	981.7	NA	0.0000		9999	360	0	0	0
2019/03/16 00:02:00	BASE	7.00	247	11.11	238	1.0	100	1.0	0	0	981.7	NA	0.0000		9999	360	0	0	0
2019/03/16 00:03:00	BASE	7.03	246	11.11	238	1.0	100	1.0	0	0	981.7	NA	0.0000		9999	360	0	0	0
2019/03/16 00:04:00	BASE	6.62	247	9.98	247	1.0	100	1.0	0	0	981.8	NA	0.0000		9999	360	0	0	0
2019/03/16 00:05:00	BASE	7.64	246	11.88	237	1.0	100	1.0	0	0	981.8	NA	0.0000		9999	360	0	0	0
2019/03/16 00:06:00	BASE	8.53	246	11.88	237	0.9	100	0.9	0	0	981.8	NA	0.0000		9999	360	0	0	0
2019/03/16 00:07:00	BASE	8.44	249	11.88	237	0.9	100	0.9	0	0	981.8	NA	0.0000		9999	360	0	0	0
2019/03/16 00:08:00	BASE	9.59	250	11.94	257	0.9	100	0.9	0	0	981.8	NA	0.0000		9999	360	0	0	0
2019/03/16 00:09:00	BASE	9.52	249	11.94	257	0.9	100	0.9	0	0	981.9	NA	0.0000		9999	360	0	0	0
2019/03/16 00:10:00	BASE	8.55	247	11.94	257	0.9	100	0.9	0	0	981.9	NA	0.0000		9999	360	0	0	0
2019/03/16 00:11:00	BASE	7.99	246	11.94	257	0.9	100	0.9	0	0	982.0	NA	0.0000		9999	360	0	0	0
2019/03/16 00:12:00	BASE	7.92	245	11.94	257	0.9	100	0.9	0	0	982.0	NA	0.0000		9999	360	0	0	0
2019/03/16 00:13:00	BASE	9.27	240	12.04	242	0.9	100	0.9	0	0	982.0	NA	0.0000		9999	360	0	0	0
2019/03/16 00:14:00	BASE	9.68	239	12.04	242	0.9	100	0.9	0	0	982.0	NA	0.0000		9999	330	0	0	0
2019/03/16 00:15:00	BASE	8.68	244	12.04	242	0.9	100	0.9	0	0	982.0	NA	0.0000		9999	330	0	0	0
2019/03/16 00:16:00	BASE	8.99	250	12.04	242	0.9	100	0.9	0	0	982.0	NA	0.0000		9999	300	0	0	0
2019/03/16 00:17:00	BASE	9.66	253	12.04	242	0.9	100	0.9	0	0	982.0	NA	0.0000		9999	330	0	0	0
2019/03/16 00:18:00	BASE	9.04	254	12.04	242	0.9	100	0.9	0	0	982.0	NA	0.0000		9999	360	0	0	0
2019/03/16 00:19:00	BASE	8.18	252	12.04	242	0.9	100	0.9	0	0	982.0	NA	0.0000		9999	360	0	0	0
2019/03/16 00:20:00	BASE	7.45	251	12.04	242	0.9	100	0.9	0	0	982.1	NA	0.0000		9999	330	0	0	0
2019/03/16 00:21:00	BASE	7.13	254	12.04	242	0.9	100	0.9	0	0	982.1	NA	0.0000		9999	300	0	0	0
2019/03/16 00:22:00	BASE	7.23	257	12.04	242	0.9	100	0.9	0	0	982.2	NA	0.0000		9999	230	0	0	0
2019/03/16 00:23:00	BASE	6.82	261	11.57	250	0.9	100	0.9	0	0	982.2	NA	0.0000		9999	200	0	0	0
2019/03/16 00:24:00	BASE	6.81	259	11.57	250	0.9	100	0.9	0	0	982.2	NA	0.0000		9999	0	0	0	590
2019/03/16 00:25:00	BASE	7.01	253	11.57	250	0.8	100	0.8	0	0	982.2	NA	0.0000		9999	200	0	0	0
2019/03/16 00:26:00	BASE	7.22	252	11.11	250	0.8	100	0.8	0	0	982.2	NA	0.0000		9999	0	0	0	590
2019/03/16 00:27:00	BASE	7.92	250	9.72	246	0.8	100	0.8	0	0	982.2	NA	0.0000		9999	0	0	0	520
2019/03/16 00:28:00	BASE	7.50	248	9.11	252	0.8	100	0.8	0	0	982.3	NA	0.0000		9999	0	0	0	490
2019/03/16 00:29:00	BASE	6.63	251	9.11	252	0.8	100	0.8	0	0	982.3	NA	0.0000		9999	0	0	0	460
2019/03/16 00:30:00	BASE	6.26	255	9.11	252	0.8	100	0.8	0	0	982.3	NA	0.0000		9999	0	0	0	460
2019/03/16 00:31:00	BASE	5.93	257	9.11	252	0.8	100	0.8	0	0	982.3	NA	0.0000		9999	0	0	0	460
2019/03/16 00:32:00	BASE	4.78	259	9.11	252	0.8	100	0.8	0	0	982.4	NA	0.0000		9999	0	0	0	460
2019/03/16 00:33:00	BASE	3.85	262	9.11	252	0.8	100	0.8	0	0	982.4	NA	0.0000		9999	0	0	0	490
2019/03/16 00:34:00	BASE	3.78	265	8.85	248	0.8	100	0.8	0	0	982.4	NA	0.0000		9999	0	0	0	460
2019/03/16 00:35:00	BASE	4.03	266	8.85	248	0.8	100	0.8	0	0	982.4	NA	0.0000		9999	0	0	0	460
2019/03/16 00:36:00	BASE	5.17	269	8.85	248	0.8	100	0.8	0	0	982.4	NA	0.0000		9999	0	0	0	490
2019/03/16 00:37:00	BASE	6.32	260	8.69	224	0.8	100	0.8	0	0	982.4	NA	0.0000		9999	0	0	0	490
2019/03/16 00:38:00	BASE	7.34	248	9.05	244	0.9	100	0.9	0	0	982.4	NA	0.0000		9999	0	0	0	560
2019/03/16 00:39:00	BASE	7.00	245	9.05	244	0.9	100	0.9	0	0	982.4	NA	0.0000		9999	160	0	0	0
2019/03/16 00:40:00	BASE	5.63	248	9.05	244	0.9	100	0.9	0	0	982.5	NA	0.0000		9999	160	0	0	0
2019/03/16 00:41:00	BASE	6.09	250	9.05	244	0.9	100	0.9	0	0	982.5	NA	0.0000		9999	230	0	0	0
2019/03/16 00:42:00	BASE	7.63	249	9.67	253	0.9	100	0.9	0	0	982.6	NA	0.0000		9999	260	0	0	0
2019/03/16 00:43:00	BASE	8.06	250	9.67	253	0.9	100	0.9	0	0	982.6	NA	0.0000		9999	230	0	0	0
2019/03/16 00:44:00	BASE	8.03	252	9.67	253	0.9	100	0.9	0	0	982.6	NA	0.0000		9999	230	0	0	0
2019/03/16 00:45:00	BASE	7.82	254	9.67	253	0.9	100	0.9	0	0	982.6	NA	0.0000		9999	230	0	0	0
2019/03/16 00:46:00	BASE	6.89	260	9.67	253	0.9	100	0.9	0	0	982.7	NA	0.0000		9999	200	0	0	0
2019/03/16 00:47:01	BASE	7.37	261	10.08	260	0.9	100	0.9	0	0	982.7	NA	0.0000		9999	230	0	0	0
2019/03/16 00:48:00	BASE	8.76	252	10.80	242	0.9	100	0.9	0	0	982.7	NA	0.0000		9999	230	0	0	0
2019/03/16 00:49:00	BASE	8.08	249	10.80	242	0.9	100	0.9	0	0	982.7	NA	0.0000		9999	230	0	0	0
2019/03/16 00:50:00	BASE	7.14	251	10.80	242	0.9	100	0.9	0	0	982.8	NA	0.0000		9999	230	0	0	0
2019/03/16 00:51:00	BASE	7.22	248	10.80	242	0.9	100	0.9	0	0	982.8	NA	0.0000		9999	300	0	0	0
2019/03/16 00:52:00	BASE	7.91	247	10.80	242	0.9	100	0.9	0	0	982.8	NA	0.0000		9999	330	0	0	0
2019/03/16 00:53:00	BASE	8.31	250	10.80	242	0.9	100	0.9	0	0	982.8	NA	0.0000		9999	260	0	0	0
2019/03/16 00:54:00	BASE	8.04	250	10.80	242	0.9	100	0.9	0	0	982.8	NA	0.0000		9999	330	0	0	0
2019/03/16 00:55:00	BASE	8.15	250	10.80	242	0.9	100	0.9	0	0	982.8	NA	0.0000		9999	330	0	0	0
2019/03/16 00:56:00	BASE	7.01	256	10.80	242	0.9	100	0.9	0	0	982.8	NA	0.0000		9999	300	0	0	0
2019/03/16 00:57:00	BASE	5.47	257	10.80	242	0.9	100	0.9	0	0	982.9	NA	0.0000		9999	300	0	0	0
2019/03/16 00:58:00	BASE	5.35	254	9.88	250	0.9	100	0.9	0	0	982.9	NA	0.0000		9999	300	0	0	0
2019/03/16 00:59:00	BASE	6.08	256	9.88	250	0.9	100	0.9	0	0	982.9	NA	0.0000		9999	300	0	0	0
2019/03/16 01:00:00	BASE	7.57	260	9.88	250	0.9	100	0.9	0	0	982.9	NA	0.0000		9999	330	0	0	0
2019/03/16 01:01:00	BASE	7.79	260	9.88	250	0.9	100	0.9	0	0	982.9	NA	0.0000		9999	300	0	0	0
2019/03/16 01:02:00	BASE	5.96	260	9.77	235	0.9	100	0.9	0	0	982.9	NA	0.0000		9999	260	0	0	0
2019/03/16 01:03:00	BASE	5.56	259	9.77	235	0.9	100	0.9	0	0	982.9	NA	0.0000		9999	330	0	0	0
2019/03/16 01:04:00	BASE	5.46	257	9.77	235	0.9	100	0.9	0	0	982.9	NA	0.0000		9999	330	0	0	0
2019/03/16 01:05:00	BASE	4.06	265	9.47	264	0.9	100	0.9	0	0	982.9	NA	0.0000		9999	260	0	0	0
2019/03/16 01:06:00	BASE	4.00	267	9.47	264	0.9	100	0.9	0	0	982.9	NA	0.0000		9999	300	0	0	0
2019/03/16 01:07:00	BASE	4.64	268	9.47	264	0.9	100	0.9	0	0	983.0	NA	0.0000		9999	260	0	0	0
2019/03/16 01:08:00	BASE	5.69	269	9.47	264	0.9	100	0.9	0	0	983.1	NA	0.0000		9999	300	0	0	0
2019/03/16 01:09:00	BASE	7.05	263	9.47	264	0.9	100	0.9	0	0	983.1	NA	0.0000		9999	360	0	0	0
2019/03/16 01:10:00	BASE	6.39	266	8.59	256	0.9	100	0.9	0	0	983.1	NA	0.0000		9999	360	0	0	0
2019/03/16 01:11:00	BASE	5.75	274	8.23	266	0.9	100	0.9	0	0	983.1	NA	0.0000		9999	300	0	0	0
2019/03/16 01:12:00	BASE	6.55	275	8.23	266	0.9	100	0.9	0	0	983.1	NA	0.0000		9999	330	0	0	0
2019/03/16 01:13:00	BASE	6.93	273	8.28	264	0.9	100	0.9	0	0	983.2	NA	0.0000		9999	360	0	0	0
2019/03/16 01:14:00	BASE	6.90	272	8.49	271	0.9	100	0.9	0	0	983.2	NA	0.0000		9999	390	0	0	0
2019/03/16 01:15:00	BASE	6.32	271	8.49	271	0.9	100	0.9	0	0	983.2	NA	0.0000		9999	390	0	0	0
2019/03/16 01:16:00	BASE	5.95	273	8.49	271	0.9	100	0.9	0	0	983.3	NA	0.0000		9999	390	0	0	0
2019/03/16 01:17:00	BASE	6.49	275	8.49	271	0.9	100	0.9	0	0	983.3	NA	0.0000		9999	330	0	0	0
2019/03/16 01:18:00	BASE	6.68	278	8.49	271	0.9	100	0.9	0	0	983.3	NA	0.0000		9999	360	0	0	0
2019/03/16 01:19:00	BASE	6.93	279	10.44	272	0.9	100	0.9	0	0	983.3	NA	0.0000		9999	330	0	0	0
2019/03/16 01:20:00	BASE	7.36	278	10.44	272	0.9	100	0.9	0	0	983.3	NA	0.0000		9999	360	0	0	0
2019/03/16 01:21:00	BASE	7.21	278	10.44	272	0.9	100	0.9	0	0	983.3	NA	0.0000		9999	360	0	0	0
2019/03/16 01:22:00	BASE	6.49	276	10.44	272	0.9	100	0.9	0	0	983.4	NA	0.0000		9999	330	0	0	0
2019/03/16 01:23:00	BASE	5.56	277	10.44	272	0.9	100	0.9	0	0	983.4	NA	0.0000		9999	330	0	0	0
2019/03/16 01:24:00	BASE	5.23	278	10.44	272	1.0	100	1.0	0	0	983.5	NA	0.0000		9999	330	0	0	0
2019/03/16 01:25:00	BASE	6.74	271	10.55	270	1.0	100	1.0	0	0	983.5	NA	0.0000		9999	330	0	0	0
2019/03/16 01:26:00	BASE	7.86	266	10.55	270	0.9	100	0.9	0	0	983.5	NA	0.0000		9999	300	0	0	0
2019/03/16 01:27:00	BASE	7.50	262	10.55	270	0.9	100	0.9	0	0	983.5	NA	0.0000		9999	330	0	0	0
2019/03/16 01:28:00	BASE	7.27	259	10.55	270	0.9	100	0.9	0	0	983.5	NA	0.0000		9999	360	0	0	0
2019/03/16 01:29:00	BASE	6.06	267	10.55	270	0.9	100	0.9	0	0	983.5	NA	0.0000		9999	390	0	0	0
2019/03/16 01:30:00	BASE	6.16	274	10.55	270	0.9	100	0.9	0	0	983.5	NA	0.0000		9999	390	0	0	0
2019/03/16 01:31:00	BASE	6.81	268	10.55	270	0.9	100	0.9	0	0	983.5	NA	0.0000		9999	390	0	0	0
2019/03/16 01:32:00	BASE	6.47	265	10.55	270	0.9	100	0.9	0	0	983.5	NA	0.0000		9999	430	0	0	0
2019/03/16 01:33:00	BASE	6.53	266	10.55	270	0.9	100	0.9	0	0	983.5	NA	0.0000		9999	360	0	0	0
2019/03/16 01:34:00	BASE	6.47	268	10.55	270	0.9	100	0.9	0	0	983.5	NA	0.0000		9999	390	0	0	0
2019/03/16 01:35:00	BASE	6.30	266	10.19	261	0.9	100	0.9	0	0	983.6	NA	0.0000		9999	430	0	0	0
2019/03/16 01:36:00	BASE	6.38	262	9.11	276	0.9	100	0.9	0	0	983.6	NA	0.0000		9999	330	0	0	0
2019/03/16 01:37:00	BASE	6.52	263	9.11	276	0.9	100	0.9	0	0	983.6	NA	0.0000		9999	360	0	0	0
2019/03/16 01:38:00	BASE	6.61	260	9.11	276	0.9	100	0.9	0	0	983.6	NA	0.0000		9999	390	0	0	0
2019/03/16 01:39:00	BASE	6.74	259	9.11	276	0.9	100	0.9	0	0	983.7	NA	0.0000		9999	460	0	0	0
2019/03/16 01:40:00	BASE	6.29	267	9.11	276	0.9	100	0.9	0	0	983.6	NA	0.0000		9999	430	0	0	0
2019/03/16 01:41:00	BASE	5.84	273	9.11	276	0.9	100	0.9	0	0	983.6	NA	0.0000		9999	490	0	0	0
2019/03/16 01:42:00	BASE	5.94	275	9.11	276	0.9	100	0.9	0	0	983.6	NA	0.0000		9999	390	0	0	0
2019/03/16 01:43:00	BASE	6.43	273	9.11	276	0.9	100	0.9	0	0	983.6	NA	0.0000		9999	460	0	0	0
2019/03/16 01:44:00	BASE	6.13	273	8.28	257	0.9	100	0.9	0	0	983.7	NA	0.0000		9999	430	0	0	0
2019/03/16 01:45:00	BASE	5.23	278	8.28	257	0.9	100	0.9	0	0	983.7	NA	0.0000		9999	390	0	0	0
2019/03/16 01:46:00	BASE	4.96	278	8.18	277	0.9	100	0.9	0	0	983.7	NA	0.0000		9999	390	0	0	0
2019/03/16 01:47:00	BASE	4.91	284	8.18	277	0.9	100	0.9	0	0	983.7	NA	0.0000		9999	390	0	0	0
2019/03/16 01:48:00	BASE	4.58	291	8.18	277	0.9	100	0.9	0	0	983.7	NA	0.0000		9999	360	2920	0	0
2019/03/16 01:49:00	BASE	3.98	288	8.18	277	0.9	100	0.9	0	0	983.7	NA	0.0000		9999	360	0	0	0
2019/03/16 01:50:00	BASE	3.43	282	8.18	277	0.9	100	0.9	0	0	983.7	NA	0.0000		9999	330	0	0	0
2019/03/16 01:51:00	BASE	3.09	277	8.18	277	0.9	100	0.9	0	0	983.7	NA	0.0000		9999	330	0	0	0
2019/03/16 01:52:00	BASE	2.62	268	8.18	277	0.9	100	0.9	0	0	983.7	NA	0.0000		9999	300	0	0	0
2019/03/16 01:53:00	BASE	2.62	257	7.05	268	0.9	100	0.9	0	0	983.7	NA	0.0000		9999	300	0	0	0
2019/03/16 01:54:00	BASE	3.10	255	6.74	271	0.9	100	0.9	0	0	983.8	NA	0.0000		9999	260	0	0	0
2019/03/16 01:55:00	BASE	3.30	261	6.74	271	0.9	100	0.9	0	0	983.9	NA	0.0000		9999	300	0	0	0
2019/03/16 01:56:00	BASE	2.87	267	5.86	292	0.9	100	0.9	0	0	983.9	NA	0.0000		9999	230	0	0	0
2019/03/16 01:57:00	BASE	2.54	272	4.78	290	0.8	100	0.8	0	0	983.9	NA	0.0000		9999	260	0	0	0
2019/03/16 01:58:00	BASE	2.66	274	4.42	276	0.8	100	0.8	0	0	983.9	NA	0.0000		9999	260	0	0	0
2019/03/16 01:59:00	BASE	3.48	274	5.66	278	0.8	100	0.8	0	0	983.9	NA	0.0000		9999	230	0	0	0
2019/03/16 02:00:00	BASE	4.19	269	5.66	278	0.9	100	0.9	0	0	984.0	NA	0.0000		9999	260	0	0	0
2019/03/16 02:01:00	BASE	4.70	265	7.97	264	0.9	100	0.9	0	0	984.0	NA	0.0000		9999	300	0	0	0
2019/03/16 02:02:00	BASE	5.71	264	7.97	264	0.9	100	0.9	0	0	984.1	NA	0.0000		9999	300	0	0	0
2019/03/16 02:03:00	BASE	6.52	269	8.75	278	0.9	100	0.9	0	0	984.1	NA	0.0000		9999	260	0	0	0
2019/03/16 02:04:00	BASE	6.61	271	8.75	278	0.9	100	0.9	0	0	984.1	NA	0.0000		9999	260	0	0	0
2019/03/16 02:05:00	BASE	6.60	265	8.75	278	0.8	100	0.8	0	0	984.1	NA	0.0000		9999	260	0	0	0
2019/03/16 02:06:00	BASE	5.75	265	8.75	278	0.8	100	0.8	0	0	984.1	NA	0.0000		9999	230	0	0	0
2019/03/16 02:07:00	BASE	4.36	260	8.75	278	0.8	100	0.8	0	0	984.1	NA	0.0000		9999	230	0	0	0
2019/03/16 02:08:00	BASE	4.05	256	8.75	278	0.8	100	0.8	0	0	984.1	NA	0.0000		9999	230	0	0	0
2019/03/16 02:09:00	BASE	4.03	265	8.75	278	0.8	100	0.8	0	0	984.1	NA	0.0000		9999	260	0	0	0
2019/03/16 02:10:00	BASE	4.82	271	8.75	278	0.8	100	0.8	0	0	984.1	NA	0.0000		9999	230	0	0	0
2019/03/16 02:11:00	BASE	5.80	274	8.75	278	0.8	100	0.8	0	0	984.1	NA	0.0000		9999	260	0	0	0
2019/03/16 02:12:00	BASE	6.47	275	8.75	278	0.8	100	0.8	0	0	984.1	NA	0.0000		9999	230	0	0	0
2019/03/16 02:13:00	BASE	7.05	275	8.64	270	0.9	100	0.9	0	0	984.1	NA	0.0000		9999	230	0	0	0
2019/03/16 02:14:00	BASE	7.35	276	9.57	286	0.9	100	0.9	0	0	984.1	NA	0.0000		9999	230	0	0	0
2019/03/16 02:15:00	BASE	7.55	276	9.57	286	0.9	100	0.9	0	0	984.1	NA	0.0000		9999	230	0	0	0
2019/03/16 02:16:00	BASE	7.58	277	9.57	286	0.9	100	0.9	0	0	984.2	NA	0.0000		9999	230	0	0	0
2019/03/16 02:17:00	BASE	7.15	279	9.57	286	0.9	100	0.9	0	0	984.2	NA	0.0000		9999	230	0	0	0
2019/03/16 02:18:00	BASE	6.94	278	9.57	286	0.9	100	0.9	0	0	984.2	NA	0.0000		9999	200	0	0	0
2019/03/16 02:19:00	BASE	8.07	276	10.24	275	0.9	100	0.9	0	0	984.2	NA	0.0000		9999	0	0	0	520
2019/03/16 02:20:00	BASE	8.86	276	10.24	275	0.9	100	0.9	0	0	984.2	NA	0.0000		9999	0	0	0	520
2019/03/16 02:21:00	BASE	8.06	277	10.24	275	0.9	100	0.9	0	0	984.2	NA	0.0000		9999	0	0	0	520
2019/03/16 02:22:00	BASE	7.82	280	10.24	275	0.9	100	0.9	0	0	984.3	NA	0.0000		9999	0	0	0	520
2019/03/16 02:23:00	BASE	8.19	282	10.24	275	1.0	100	1.0	0	0	984.3	NA	0.0000		9999	0	0	0	520
2019/03/16 02:24:00	BASE	8.21	280	10.24	275	1.0	100	1.0	0	0	984.3	NA	0.0000		9999	200	0	0	0
2019/03/16 02:25:00	BASE	8.24	282	10.75	278	1.0	100	1.0	0	0	984.3	NA	0.0000		9999	200	0	0	0
2019/03/16 02:26:00	BASE	8.08	284	10.75	278	1.0	100	1.0	0	0	984.3	NA	0.0000		9999	230	0	0	0
2019/03/16 02:27:00	BASE	8.11	284	10.75	278	1.0	100	1.0	0	0	984.3	NA	0.0000		9999	230	0	0	0
2019/03/16 02:28:00	BASE	8.66	284	10.75	278	1.0	100	1.0	0	0	984.3	NA	0.0000		9999	260	0	0	0
2019/03/16 02:29:00	BASE	9.06	284	10.75	278	1.0	100	1.0	0	0	984.3	NA	0.0000		9999	260	0	0	0
2019/03/16 02:30:00	BASE	9.18	286	10.75	278	1.0	100	1.0	0	0	984.3	NA	0.0000		9999	230	0	0	0
2019/03/16 02:31:00	BASE	8.89	285	10.75	278	1.0	100	1.0	0	0	984.3	NA	0.0000		9999	200	0	0	0
2019/03/16 02:32:00	BASE	8.97	284	11.42	286	1.0	100	1.0	0	0	984.4	NA	0.0000		9999	230	0	0	0
2019/03/16 02:33:00	BASE	9.66	285	11.68	279	1.0	100	1.0	0	0	984.4	NA	0.0000		9999	200	0	0	0
2019/03/16 02:34:00	BASE	10.00	286	11.99	282	1.0	100	1.0	0	0	984.4	NA	0.0000		9999	0	0	0	520
2019/03/16 02:35:00	BASE	9.29	288	11.99	282	1.0	100	1.0	0	0	984.5	NA	0.0000		9999	0	0	0	560
2019/03/16 02:36:00	BASE	8.89	288	11.99	282	1.0	100	1.0	0	0	984.5	NA	0.0000		9999	0	0	0	520
2019/03/16 02:37:00	BASE	8.91	288	11.99	282	1.0	100	1.0	0	0	984.5	NA	0.0000		9999	0	0	0	520
2019/03/16 02:38:00	BASE	8.27	285	11.99	282	1.0	100	1.0	0	0	984.5	NA	0.0000		9999	0	0	0	490
2019/03/16 02:39:00	BASE	7.94	286	11.99	282	1.0	100	1.0	0	0	984.6	NA	0.0000		9999	0	0	0	490
2019/03/16 02:40:00	BASE	7.90	288	11.99	282	1.0	100	1.0	0	0	984.6	NA	0.0000		9999	0	0	0	490
2019/03/16 02:41:00	BASE	7.83	287	11.99	282	1.0	100	1.0	0	0	984.6	NA	0.0000		9999	0	0	0	490
2019/03/16 02:42:00	BASE	7.66	287	11.99	282	1.0	100	1.0	0	0	984.6	NA	0.0000		9999	0	0	0	490
2019/03/16 02:43:00	BASE	7.92	290	11.99	282	1.0	100	1.0	0	0	984.6	NA	0.0000		9999	0	0	0	490
2019/03/16 02:44:00	BASE	8.20	292	10.44	289	1.0	100	1.0	0	0	984.6	NA	0.0000		9999	0	0	0	490
2019/03/16 02:45:00	BASE	8.41	290	10.44	289	1.0	100	1.0	0	0	984.6	NA	0.0000		9999	0	0	0	520
2019/03/16 02:46:00	BASE	9.05	288	10.85	279	1.0	100	1.0	0	0	984.6	NA	0.0000		9999	0	0	0	520
2019/03/16 02:47:00	BASE	9.04	288	10.85	279	1.0	100	1.0	0	0	984.7	NA	0.0000		9999	0	0	0	520
2019/03/16 02:48:00	BASE	8.61	286	10.85	279	1.0	100	1.0	0	0	984.7	NA	0.0000		9999	0	0	0	520
2019/03/16 02:49:00	BASE	8.39	283	10.85	279	1.0	100	1.0	0	0	984.7	NA	0.0000		9999	0	0	0	490
2019/03/16 02:50:00	BASE	8.34	286	10.85	279	1.0	100	1.0	0	0	984.7	NA	0.0000		9999	0	0	0	490
2019/03/16 02:51:00	BASE	8.27	289	10.85	279	1.0	100	1.0	0	0	984.7	NA	0.0000		9000	0	0	0	460
2019/03/16 02:52:00	BASE	7.91	292	10.85	279	1.0	100	1.0	0	0	984.7	NA	0.0000		9000	0	0	0	430
2019/03/16 02:53:00	BASE	8.15	292	10.85	279	1.0	100	1.0	0	0	984.7	NA	0.0000		8000	0	0	0	430
2019/03/16 02:54:00	BASE	8.46	292	10.85	279	1.0	100	1.0	0	0	984.7	NA	0.0000	BR	8000	0	0	0	460
2019/03/16 02:55:00	BASE	8.28	294	10.85	279	1.0	100	1.0	0	0	984.7	NA	0.0000	BR	7000	0	0	0	460
2019/03/16 02:56:00	BASE	8.14	295	10.08	289	1.0	100	1.0	0	0	984.7	NA	0.0000	BR	8000	0	0	0	430
2019/03/16 02:57:00	BASE	7.95	296	10.08	289	1.0	100	1.0	0	0	984.7	NA	0.0000	BR	8000	0	0	0	430
2019/03/16 02:58:00	BASE	7.72	293	10.08	289	1.0	100	1.0	0	0	984.7	NA	0.0000	BR	8000	0	0	0	430
2019/03/16 02:59:00	BASE	7.14	293	10.08	289	1.0	100	1.0	0	0	984.7	NA	0.0000	BR	7000	0	0	0	430
2019/03/16 03:00:00	BASE	6.81	297	10.08	289	1.0	100	1.0	0	0	984.7	NA	0.0000	BR	7000	0	0	0	430
2019/03/16 03:01:00	BASE	6.28	299	10.08	289	1.0	100	1.0	0	0	984.7	NA	0.0000	BR	7000	0	0	0	390
2019/03/16 03:02:00	BASE	5.63	300	10.08	289	1.0	100	1.0	0	0	984.7	NA	0.0000	BR	7000	0	0	0	430
2019/03/16 03:03:00	BASE	6.71	299	9.41	297	1.0	100	1.0	0	0	984.7	NA	0.0000	BR	8000	0	0	0	430
2019/03/16 03:04:00	BASE	7.73	297	9.52	284	1.0	100	1.0	0	0	984.7	NA	0.0000	BR	8000	0	0	0	430
2019/03/16 03:05:00	BASE	7.78	298	9.52	284	1.0	100	1.0	0	0	984.7	NA	0.0000	BR	9000	0	0	0	430
2019/03/16 03:06:00	BASE	7.98	301	9.52	284	1.1	100	1.1	0	0	984.8	NA	0.0000	BR	9000	0	0	0	490
2019/03/16 03:07:00	BASE	8.07	302	9.52	284	1.1	100	1.1	0	0	984.8	NA	0.0000	BR	9000	0	0	0	490
2019/03/16 03:08:00	BASE	8.32	298	9.52	284	1.1	100	1.1	0	0	984.8	NA	0.0000	BR	9000	0	0	0	460
2019/03/16 03:09:00	BASE	8.53	299	9.52	284	1.1	100	1.1	0	0	984.8	NA	0.0000	BR	9000	0	0	0	460
2019/03/16 03:10:00	BASE	8.45	303	9.52	284	1.1	100	1.1	0	0	984.8	NA	0.0000	BR	9000	0	0	0	460
2019/03/16 03:11:00	BASE	7.82	305	9.52	284	1.1	100	1.1	0	0	984.8	NA	0.0000	BR	9999	0	0	0	460
2019/03/16 03:12:00	BASE	7.42	304	9.52	284	1.1	100	1.1	0	0	984.8	NA	0.0000	BR	9999	0	0	0	460
2019/03/16 03:13:00	BASE	7.38	304	9.52	284	1.1	100	1.1	0	0	984.9	NA	0.0000	BR	9999	0	0	0	460
2019/03/16 03:14:00	BASE	6.90	308	9.31	298	1.1	100	1.1	0	0	984.9	NA	0.0000	BR	9999	0	0	0	460
2019/03/16 03:15:00	BASE	6.24	306	9.31	298	1.1	100	1.1	0	0	984.9	NA	0.0000	BR	9999	0	0	0	460
2019/03/16 03:16:00	BASE	5.83	305	9.31	298	1.1	100	1.1	0	0	984.9	NA	0.0000	BR	9999	0	0	0	460
2019/03/16 03:17:00	BASE	5.36	306	9.31	298	1.1	100	1.1	0	0	984.9	NA	0.0000	BR	9999	0	0	0	460
2019/03/16 03:18:00	BASE	5.18	309	9.31	298	1.1	100	1.1	0	0	984.9	NA	0.0000	BR	9999	3280	0	0	0
2019/03/16 03:19:00	BASE	5.73	311	8.95	304	1.1	100	1.1	0	0	984.9	NA	0.0000	BR	9999	0	0	0	460
2019/03/16 03:20:00	BASE	5.81	313	8.33	299	1.1	100	1.1	0	0	984.9	NA	0.0000		9999	0	0	0	520
2019/03/16 03:21:00	BASE	5.84	315	8.33	299	1.1	100	1.1	0	0	984.9	NA	0.0000		9999	230	0	0	0
2019/03/16 03:22:00	BASE	6.24	316	8.28	306	1.1	100	1.1	0	0	985.0	NA	0.0000		9999	200	0	0	0
2019/03/16 03:23:00	BASE	6.71	312	8.85	301	1.1	100	1.1	0	0	985.1	NA	0.0000		9999	0	0	0	490
2019/03/16 03:24:00	BASE	6.86	313	8.85	301	1.1	100	1.1	0	0	985.1	NA	0.0000		9999	200	0	0	0
2019/03/16 03:25:00	BASE	6.81	319	8.85	301	1.1	100	1.1	0	0	985.1	NA	0.0000		9999	0	0	0	520
2019/03/16 03:26:00	BASE	6.51	324	8.85	301	1.1	100	1.1	0	0	985.1	NA	0.0000		9999	0	0	0	520
2019/03/16 03:27:00	BASE	6.37	330	8.85	301	1.1	100	1.1	0	0	985.1	NA	0.0000		9999	0	0	0	560
2019/03/16 03:28:00	BASE	6.62	334	8.85	301	1.1	100	1.1	0	0	985.1	NA	0.0000		9999	0	0	0	560
2019/03/16 03:29:00	BASE	6.81	336	8.85	301	1.1	100	1.1	0	0	985.2	NA	0.0000		9999	0	0	0	520
2019/03/16 03:30:00	BASE	6.73	338	8.85	301	1.1	100	1.1	0	0	985.2	NA	0.0000		9999	0	0	0	520
2019/03/16 03:31:00	BASE	6.69	338	8.85	301	1.1	100	1.1	0	0	985.2	NA	0.0000		9999	0	0	0	520
2019/03/16 03:32:00	BASE	6.84	338	8.85	301	1.0	100	1.0	0	0	985.2	NA	0.0000		9999	0	0	0	490
2019/03/16 03:33:00	BASE	7.05	340	7.56	341	1.0	100	1.0	0	0	985.2	NA	0.0000		9999	0	0	0	520
2019/03/16 03:34:00	BASE	7.16	342	7.67	339	1.0	100	1.0	0	0	985.2	NA	0.0000		9999	0	0	0	490
2019/03/16 03:35:00	BASE	6.89	342	7.67	339	1.0	100	1.0	0	0	985.2	NA	0.0000		9999	0	0	0	490
2019/03/16 03:36:00	BASE	6.85	340	7.67	339	1.0	100	1.0	0	0	985.2	NA	0.0000		9999	0	0	0	490
2019/03/16 03:37:00	BASE	6.97	340	7.97	339	1.0	100	1.0	0	0	985.2	NA	0.0000		9999	0	0	0	520
2019/03/16 03:38:00	BASE	7.01	342	7.97	339	1.0	100	1.0	0	0	985.2	NA	0.0000		9000	0	0	0	560
2019/03/16 03:39:00	BASE	6.89	346	7.97	339	1.0	100	1.0	0	0	985.2	NA	0.0000		9999	0	0	0	590
2019/03/16 03:40:00	BASE	6.78	347	7.97	339	1.0	100	1.0	0	0	985.3	NA	0.0000		9999	0	0	0	620
2019/03/16 03:41:00	BASE	7.10	347	8.85	349	1.0	100	1.0	0	0	985.2	NA	0.0000		9999	0	0	0	620
2019/03/16 03:42:00	BASE	6.92	349	8.85	349	1.0	100	1.0	0	0	985.3	NA	0.0000		9999	0	0	0	620
2019/03/16 03:43:00	BASE	6.43	351	8.85	349	1.0	100	1.0	0	0	985.3	NA	0.0000		9999	0	0	0	590
2019/03/16 03:44:00	BASE	6.53	351	8.85	349	1.1	100	1.1	0	0	985.3	NA	0.0000		9999	0	0	0	590
2019/03/16 03:45:00	BASE	6.31	347	8.85	349	1.1	100	1.1	0	0	985.3	NA	0.0000		9999	0	0	0	660
2019/03/16 03:46:00	BASE	6.15	349	8.85	349	1.1	100	1.1	0	0	985.3	NA	0.0000		9999	0	0	0	690
2019/03/16 03:47:00	BASE	6.63	354	8.85	349	1.1	100	1.1	0	0	985.3	NA	0.0000		9999	230	0	0	0
2019/03/16 03:48:00	BASE	6.95	350	8.85	349	1.1	100	1.1	0	0	985.3	NA	0.0000		9999	260	0	0	0
2019/03/16 03:49:00	BASE	7.16	346	8.85	349	1.2	100	1.2	0	0	985.3	NA	0.0000		9999	330	0	0	0
2019/03/16 03:50:00	BASE	7.48	350	8.85	349	1.2	100	1.2	0	0	985.3	NA	0.0000		9999	300	0	0	0
2019/03/16 03:51:00	BASE	7.72	352	9.05	343	1.2	100	1.2	0	0	985.3	NA	0.0000		9999	330	0	0	0
2019/03/16 03:52:00	BASE	7.69	350	9.05	343	1.3	100	1.3	0	0	985.3	NA	0.0000		9999	360	0	0	0
2019/03/16 03:53:00	BASE	7.39	350	9.05	343	1.3	100	1.3	0	0	985.3	NA	0.0000		9999	360	0	0	0
2019/03/16 03:54:00	BASE	7.47	349	9.05	343	1.3	100	1.3	0	0	985.3	NA	0.0000		9999	390	0	0	0
2019/03/16 03:55:00	BASE	7.69	346	9.05	343	1.3	100	1.3	0	0	985.4	NA	0.0000		9999	360	0	0	0
2019/03/16 03:56:00	BASE	7.50	346	9.05	343	1.3	100	1.3	0	0	985.4	NA	0.0000		9999	360	0	0	0
2019/03/16 03:57:00	BASE	7.36	344	9.05	343	1.3	100	1.3	0	0	985.3	NA	0.0000		9999	360	0	0	0
2019/03/16 03:58:00	BASE	7.26	345	9.05	343	1.2	100	1.2	0	0	985.3	NA	0.0000		9999	390	0	0	0
2019/03/16 03:59:00	BASE	7.13	347	9.05	343	1.2	100	1.2	0	0	985.3	NA	0.0000		9999	360	0	0	0
2019/03/16 04:00:00	BASE	7.13	345	9.05	343	1.2	100	1.2	0	0	985.3	NA	0.0000		9999	390	0	0	0
2019/03/16 04:01:00	BASE	7.77	345	9.52	343	1.2	100	1.2	0	0	985.3	NA	0.0000		9999	430	0	0	0
2019/03/16 04:02:00	BASE	8.63	344	9.52	343	1.2	100	1.2	0	0	985.3	NA	0.0000		9999	430	0	0	0
2019/03/16 04:03:00	BASE	8.75	342	9.52	343	1.2	100	1.2	0	0	985.4	NA	0.0000		9999	430	0	0	0
2019/03/16 04:04:00	BASE	8.88	340	9.88	348	1.2	100	1.2	0	0	985.4	NA	0.0000		9999	430	0	0	0
2019/03/16 04:05:00	BASE	8.78	339	9.88	348	1.3	100	1.3	0	0	985.4	NA	0.0000		9999	460	0	0	0
2019/03/16 04:06:00	BASE	8.31	341	9.88	348	1.3	100	1.3	0	0	985.4	NA	0.0000		9999	460	0	0	0
2019/03/16 04:08:00	BASE	8.09	342	9.88	348	1.3	100	1.3	0	0	985.4	NA	0.0000		9999	430	0	0	0
2019/03/16 04:09:00	BASE	7.77	341	9.88	348	1.3	100	1.3	0	0	985.4	NA	0.0000		9999	460	0	0	0
2019/03/16 04:10:00	BASE	7.92	341	9.88	348	1.3	100	1.3	0	0	985.4	NA	0.0000		9999	460	0	0	0
2019/03/16 04:11:00	BASE	8.34	342	9.88	348	1.3	100	1.3	0	0	985.4	NA	0.0000		9999	430	0	0	0
2019/03/16 04:12:00	BASE	8.31	344	9.88	348	1.3	100	1.3	0	0	985.4	NA	0.0000		9999	460	0	0	0
2019/03/16 04:13:00	BASE	7.40	347	9.88	348	1.3	100	1.3	0	0	985.4	NA	0.0000		9999	460	0	0	0
2019/03/16 04:14:00	BASE	7.34	349	9.88	347	1.3	100	1.3	0	0	985.4	NA	0.0000		9999	460	0	0	0
2019/03/16 04:15:00	BASE	8.56	349	9.88	347	1.4	100	1.4	0	0	985.4	NA	0.0000		9999	460	0	0	0
2019/03/16 04:16:00	BASE	8.93	350	10.34	340	1.4	100	1.4	0	0	985.4	NA	0.0000		9999	460	0	0	0
2019/03/16 04:17:00	BASE	8.86	349	10.34	340	1.4	100	1.4	0	0	985.6	NA	0.0000		9999	460	0	0	0
2019/03/16 04:18:00	BASE	8.93	348	10.55	346	1.4	100	1.4	0	0	985.6	NA	0.0000		9999	430	0	0	0
2019/03/16 04:19:00	BASE	8.93	349	10.55	346	1.4	100	1.4	0	0	985.6	NA	0.0000		9999	460	0	0	0
2019/03/16 04:20:00	BASE	8.75	348	10.55	346	1.4	100	1.4	0	0	985.6	NA	0.0000		9999	460	0	0	0
2019/03/16 04:21:00	BASE	8.60	346	10.55	346	1.4	100	1.4	0	0	985.6	NA	0.0000		9999	460	0	0	0
2019/03/16 04:22:00	BASE	8.61	347	10.55	346	1.4	100	1.4	0	0	985.6	NA	0.0000		9999	460	0	0	0
2019/03/16 04:23:00	BASE	8.28	348	10.55	346	1.4	100	1.4	0	0	985.6	NA	0.0000		9999	460	0	0	0
2019/03/16 04:24:00	BASE	8.03	349	10.55	346	1.4	100	1.4	0	0	985.6	NA	0.0000		9999	460	0	0	0
2019/03/16 04:25:00	BASE	8.58	348	10.55	346	1.4	100	1.4	0	0	985.6	NA	0.0000		9999	490	0	0	0
2019/03/16 04:26:00	BASE	8.79	349	10.55	346	1.4	100	1.4	0	0	985.6	NA	0.0000		9999	490	0	0	0
2019/03/16 04:27:00	BASE	8.42	349	10.55	346	1.4	100	1.4	0	0	985.7	NA	0.0000		9999	460	0	0	0
2019/03/16 04:28:00	BASE	8.59	349	9.93	345	1.3	100	1.3	0	0	985.6	NA	0.0000		9999	460	0	0	0
2019/03/16 04:29:00	BASE	8.92	350	9.72	349	1.3	100	1.3	0	0	985.7	NA	0.0000		9999	460	0	0	0
2019/03/16 04:30:01	BASE	8.90	351	9.72	349	1.3	100	1.3	0	0	985.7	NA	0.0000		9999	490	0	0	0
2019/03/16 04:31:01	BASE	8.83	351	9.72	349	1.3	100	1.3	0	0	985.7	NA	0.0000		9999	490	0	0	0
2019/03/16 04:32:01	BASE	8.77	351	9.72	349	1.4	100	1.4	0	0	985.7	NA	0.0000		9999	490	0	0	0
2019/03/16 04:33:00	BASE	9.18	350	10.19	350	1.4	100	1.4	0	0	985.7	NA	0.0000		9999	490	0	0	0
2019/03/16 04:34:00	BASE	10.28	346	12.55	337	1.4	100	1.4	0	0	985.7	NA	0.0000		9999	460	0	0	0
2019/03/16 04:35:00	BASE	10.94	346	12.55	337	1.4	100	1.4	0	0	985.7	NA	0.0000		9999	490	0	0	0
2019/03/16 04:36:00	BASE	10.93	344	12.55	337	1.4	100	1.4	0	0	985.7	NA	0.0000		9999	460	0	0	0
2019/03/16 04:37:00	BASE	10.34	340	12.55	337	1.4	100	1.4	0	0	985.8	NA	0.0000		9999	460	0	0	0
2019/03/16 04:38:00	BASE	9.09	337	12.55	337	1.4	100	1.4	0	0	985.8	NA	0.0000		9999	430	0	0	0
2019/03/16 04:39:00	BASE	8.78	337	12.55	337	1.4	100	1.4	0	0	985.8	NA	0.0000		9999	460	0	0	0
2019/03/16 04:40:00	BASE	9.53	339	12.55	337	1.4	100	1.4	0	0	985.8	NA	0.0000		9999	460	0	0	0
2019/03/16 04:41:00	BASE	9.14	340	12.55	337	1.4	100	1.4	0	0	985.8	NA	0.0000		9999	430	0	0	0
2019/03/16 04:42:00	BASE	8.61	343	12.55	337	1.3	100	1.3	0	0	985.8	NA	0.0000		9999	1050	0	0	0
2019/03/16 04:43:00	BASE	9.63	344	12.55	337	1.3	100	1.3	0	0	985.8	NA	0.0000		9999	520	0	0	0
2019/03/16 04:44:00	BASE	10.30	343	11.78	343	1.3	100	1.3	0	0	985.8	NA	0.0000		9999	490	0	0	0
2019/03/16 04:45:00	BASE	10.01	340	11.68	352	1.3	100	1.3	0	0	985.8	NA	0.0000		9999	520	0	0	0
2019/03/16 04:46:00	BASE	9.99	341	11.42	343	1.3	100	1.3	0	0	985.8	NA	0.0000		9999	560	0	0	0
2019/03/16 04:47:00	BASE	9.84	342	11.42	343	1.4	100	1.4	0	0	985.9	NA	0.0000		9999	590	0	0	0
2019/03/16 04:48:00	BASE	9.57	341	11.42	343	1.4	100	1.4	0	0	985.9	NA	0.0000		9999	560	0	0	0
2019/03/16 04:49:00	BASE	9.45	342	11.42	343	1.4	100	1.4	0	0	985.9	NA	0.0000		9999	620	0	0	0
2019/03/16 04:50:00	BASE	9.48	344	11.42	343	1.4	100	1.4	0	0	985.9	NA	0.0000		9999	690	0	0	0
2019/03/16 04:51:00	BASE	9.54	344	11.42	343	1.4	100	1.4	0	0	985.9	NA	0.0000		9999	620	0	0	0
2019/03/16 04:52:00	BASE	9.08	343	11.42	343	1.4	100	1.4	0	0	985.9	NA	0.0000		9999	590	0	0	0
2019/03/16 04:53:00	BASE	8.75	342	11.42	343	1.4	100	1.4	0	0	985.9	NA	0.0000		9999	620	0	0	0
2019/03/16 04:54:00	BASE	9.06	342	11.42	343	1.4	100	1.4	0	0	985.9	NA	0.0000		9999	620	0	0	0
2019/03/16 04:55:00	BASE	8.86	341	11.42	343	1.4	100	1.4	0	0	985.9	NA	0.0000		9999	620	0	0	0
2019/03/16 04:56:00	BASE	8.41	343	10.49	337	1.4	100	1.4	0	0	985.9	NA	0.0000		9999	620	0	0	0
2019/03/16 04:57:00	BASE	8.46	344	10.49	337	1.4	100	1.4	0	0	985.9	NA	0.0000		9999	620	0	0	0
2019/03/16 04:58:00	BASE	8.15	343	10.49	337	1.4	100	1.4	0	0	986.0	NA	0.0000		9999	620	0	0	0
2019/03/16 04:59:00	BASE	8.28	343	10.49	337	1.4	100	1.4	0	0	986.0	NA	0.0000		9999	620	0	0	0
2019/03/16 05:00:00	BASE	8.93	343	10.49	337	1.4	100	1.4	0	0	986.0	NA	0.0000		9999	620	0	0	0
2019/03/16 05:01:00	BASE	9.30	343	10.49	345	1.4	100	1.4	0	0	986.0	NA	0.0000	UP	9999	620	0	0	0
2019/03/16 05:02:00	BASE	9.21	341	10.49	345	1.4	100	1.4	0	0	986.0	NA	0.0000	UP	9999	620	0	0	0
2019/03/16 05:03:00	BASE	9.24	340	10.49	345	1.4	100	1.4	0	0	986.0	NA	0.0000	UP	9999	620	0	0	0
2019/03/16 05:04:00	BASE	9.13	341	10.49	345	1.4	100	1.4	0	0	986.0	NA	0.0000	UP	9999	620	0	0	0
2019/03/16 05:05:00	BASE	8.96	341	10.49	345	1.3	100	1.3	0	0	986.0	NA	0.0000	UP	9999	690	0	0	0
2019/03/16 05:06:00	BASE	9.13	344	10.49	345	1.3	100	1.3	0	0	986.0	NA	0.0000	UP	9999	690	0	0	0
2019/03/16 05:07:00	BASE	8.69	345	10.49	345	1.3	100	1.3	0	0	986.0	NA	0.0000	UP	9999	0	0	0	5540
2019/03/16 05:08:00	BASE	8.40	345	10.49	345	1.4	100	1.4	0	0	986.0	NA	0.0000	UP	9999	0	0	0	5410
2019/03/16 05:09:00	BASE	8.52	344	10.49	345	1.4	100	1.4	0	0	986.0	NA	0.0000	UP	9999	0	0	0	4950
2019/03/16 05:10:00	BASE	8.68	344	10.49	345	1.4	100	1.4	0	0	986.0	NA	0.0000	UP	9999	0	0	0	5450
2019/03/16 05:11:00	BASE	9.08	342	10.34	338	1.4	100	1.4	0	0	986.1	NA	0.0000		9999	0	0	0	5150
2019/03/16 05:12:00	BASE	9.42	341	10.34	338	1.4	100	1.4	0	0	986.1	NA	0.0000		9999	720	0	0	0
2019/03/16 05:13:00	BASE	9.54	342	10.08	338	1.4	100	1.4	0	0	986.2	NA	0.0000		9999	0	0	0	4990
2019/03/16 05:14:00	BASE	9.67	341	10.70	336	1.4	100	1.4	0	0	986.2	NA	0.0000		9999	0	0	0	4490
2019/03/16 05:15:00	BASE	9.73	339	10.70	336	1.4	100	1.4	0	0	986.2	NA	0.0000		9999	0	0	0	4130
2019/03/16 05:16:00	BASE	9.85	338	10.85	338	1.4	100	1.4	0	0	986.2	NA	0.0000		9999	0	0	0	4000
2019/03/16 05:17:00	BASE	9.87	338	10.85	338	1.4	100	1.4	0	0	986.2	NA	0.0000		9999	660	0	0	0
2019/03/16 05:18:00	BASE	9.77	336	10.85	338	1.3	100	1.3	0	0	986.2	NA	0.0000	UP	9999	0	0	0	3120
2019/03/16 05:19:00	BASE	9.59	336	10.85	338	1.3	100	1.3	0	0	986.3	NA	0.0000	UP	9999	590	0	0	0
2019/03/16 05:20:00	BASE	9.23	335	10.85	338	1.3	100	1.3	0	0	986.3	NA	0.0000	UP	9999	590	0	0	0
2019/03/16 05:21:00	BASE	9.37	334	10.85	330	1.3	100	1.3	0	0	986.3	NA	0.0000	UP	9999	0	0	0	3250
2019/03/16 05:22:00	BASE	9.74	334	10.85	330	1.4	100	1.4	0	0	986.3	NA	0.0000	UP	9999	690	0	0	0
2019/03/16 05:23:00	BASE	9.76	332	10.85	330	1.4	100	1.4	0	0	986.4	NA	0.0000	UP	9999	720	0	0	0
2019/03/16 05:24:00	BASE	9.58	331	10.85	330	1.4	100	1.4	0	0	986.4	NA	0.0000	UP	9999	660	0	0	0
2019/03/16 05:25:00	BASE	9.55	331	10.85	330	1.4	100	1.4	0	0	986.4	NA	0.0000	UP	9999	660	0	0	0
2019/03/16 05:26:00	BASE	9.52	330	10.85	330	1.4	100	1.4	0	0	986.4	NA	0.0000	UP	9999	560	0	0	0
2019/03/16 05:27:00	BASE	9.28	331	10.85	330	1.5	100	1.5	0	0	986.4	NA	0.0000	UP	9999	490	0	0	0
2019/03/16 05:28:00	BASE	9.41	332	10.85	330	1.5	100	1.5	0	0	986.5	NA	0.0000	UP	9999	520	2300	0	0
2019/03/16 05:29:00	BASE	9.84	331	10.85	330	1.5	100	1.5	0	0	986.5	NA	0.0000	UP	9999	620	0	0	0
2019/03/16 05:30:00	BASE	9.81	334	10.85	330	1.5	100	1.5	0	0	986.5	NA	0.0000	UP	9999	560	2430	0	0
2019/03/16 05:31:00	BASE	9.63	336	10.65	334	1.5	100	1.5	0	0	986.5	NA	0.0000	UP	9999	590	0	0	0
2019/03/16 05:32:00	BASE	9.17	335	10.85	336	1.5	100	1.5	0	0	986.5	NA	0.0000	UP	9999	620	2360	0	0
2019/03/16 05:33:00	BASE	8.84	336	10.85	336	1.5	100	1.5	0	0	986.5	NA	0.0000	UP	9999	590	0	0	0
2019/03/16 05:34:00	BASE	9.38	334	11.06	327	1.4	100	1.4	0	0	986.6	NA	0.0000	UP	9999	620	0	0	0
2019/03/16 05:35:00	BASE	10.01	330	11.68	328	1.4	100	1.4	0	0	986.6	NA	0.0000	UP	9999	520	0	0	0
2019/03/16 05:36:00	BASE	10.37	329	12.04	323	1.4	100	1.4	0	0	986.6	NA	0.0000	UP	9999	430	0	0	0
2019/03/16 05:37:00	BASE	10.24	326	12.04	323	1.4	100	1.4	0	0	986.6	NA	0.0000	UP	9999	390	0	0	0
2019/03/16 05:38:00	BASE	10.20	325	12.04	323	1.4	100	1.4	0	0	986.6	NA	0.0000	UP	9999	390	0	0	0
2019/03/16 05:39:00	BASE	9.92	322	12.04	323	1.4	100	1.4	0	0	986.6	NA	0.0000	UP	9999	460	0	0	0
2019/03/16 05:40:00	BASE	9.34	320	12.04	323	1.4	100	1.4	0	0	986.6	NA	0.0000	UP	9999	460	0	0	0
2019/03/16 05:41:00	BASE	9.24	320	12.04	323	1.5	100	1.5	0	0	986.6	NA	0.0000	UP	9999	490	0	0	0
2019/03/16 05:42:00	BASE	9.33	322	12.04	323	1.4	100	1.4	0	0	986.6	NA	0.0000	UP	9999	460	0	0	0
2019/03/16 05:43:00	BASE	9.39	325	12.04	323	1.4	100	1.4	0	0	986.6	NA	0.0000	UP	9999	490	0	0	0
2019/03/16 05:44:00	BASE	9.66	326	12.04	323	1.4	100	1.4	0	0	986.7	NA	0.0000	UP	9999	520	0	0	0
2019/03/16 05:45:00	BASE	9.92	326	12.04	323	1.4	100	1.4	0	0	986.7	NA	0.0000	UP	9999	460	0	0	0
2019/03/16 05:46:00	BASE	9.83	327	11.88	323	1.4	100	1.4	0	0	986.7	NA	0.0000	UP	9999	490	0	0	0
2019/03/16 05:47:00	BASE	10.27	326	11.88	322	1.4	100	1.4	0	0	986.7	NA	0.0000	UP	9999	520	0	0	0
2019/03/16 05:48:00	BASE	10.22	327	11.88	322	1.4	100	1.4	0	0	986.7	NA	0.0000	UP	9999	560	0	0	0
2019/03/16 05:49:00	BASE	10.05	328	11.88	322	1.4	100	1.4	0	0	986.7	NA	0.0000	UP	9999	590	0	0	0
2019/03/16 05:50:00	BASE	11.10	327	13.12	321	1.4	100	1.4	0	0	986.7	NA	0.0000	UP	9999	560	0	0	0
2019/03/16 05:51:00	BASE	11.87	327	13.17	327	1.5	100	1.5	0	0	986.7	NA	0.0000	UP	9999	490	0	0	0
2019/03/16 05:52:00	BASE	11.62	330	13.17	327	1.5	100	1.5	0	0	986.7	NA	0.0000	UP	9999	490	0	0	0
2019/03/16 05:53:00	BASE	11.61	333	13.17	327	1.5	100	1.5	0	0	986.7	NA	0.0000	UP	9999	520	0	0	0
2019/03/16 05:54:00	BASE	12.00	337	13.84	348	1.5	100	1.5	0	0	986.6	NA	0.0000	UP	9999	520	0	0	0
2019/03/16 05:55:00	BASE	12.00	338	13.84	348	1.5	100	1.5	0	0	986.7	NA	0.0000	UP	9999	560	1210	0	0
2019/03/16 05:56:00	BASE	11.99	336	13.84	348	1.5	100	1.5	0	0	986.7	NA	0.0000	UP	9999	520	1510	0	0
2019/03/16 05:57:00	BASE	11.86	334	13.84	348	1.5	100	1.5	0	0	986.7	NA	0.0000	UP	9999	490	1740	0	0
2019/03/16 05:58:00	BASE	11.60	335	13.84	348	1.5	100	1.5	0	0	986.7	NA	0.0000	UP	9999	520	0	0	0
2019/03/16 05:59:00	BASE	11.61	336	13.84	348	1.5	100	1.5	0	0	986.7	NA	0.0000	UP	9999	520	0	0	0
2019/03/16 06:00:00	BASE	12.30	333	14.15	336	1.5	100	1.5	0	0	986.7	NA	0.0000	UP	9999	520	0	0	0
2019/03/16 06:01:00	BASE	12.40	332	14.15	336	1.5	100	1.5	0	0	986.7	NA	0.0000	UP	9999	460	0	0	0
2019/03/16 06:02:00	BASE	12.01	333	14.15	336	1.5	100	1.5	0	0	986.7	NA	0.0000	UP	9999	390	0	0	0
2019/03/16 06:03:00	BASE	11.68	332	14.15	336	1.5	100	1.5	0	0	986.7	NA	0.0000	UP	9999	430	0	0	0
2019/03/16 06:04:00	BASE	11.11	331	14.15	336	1.5	100	1.5	0	0	986.7	NA	0.0000	UP	9999	430	0	0	0
2019/03/16 06:05:00	BASE	10.73	332	14.15	336	1.5	100	1.5	0	0	986.7	NA	0.0000	UP	9999	560	0	0	0
2019/03/16 06:06:00	BASE	10.95	332	14.15	336	1.4	100	1.4	0	0	986.7	NA	0.0000	UP	9999	560	0	0	0
2019/03/16 06:07:00	BASE	11.14	334	14.15	336	1.4	100	1.4	0	0	986.7	NA	0.0000	UP	9999	520	0	0	0
2019/03/16 06:08:00	BASE	10.54	335	14.15	336	1.4	100	1.4	0	0	986.7	NA	0.0000	UP	9999	520	0	0	0
2019/03/16 06:09:00	BASE	10.64	334	14.15	336	1.5	100	1.5	0	0	986.7	NA	0.0000	UP	9999	590	0	0	0
2019/03/16 06:10:00	BASE	10.50	336	13.58	332	1.5	100	1.5	0	0	986.7	NA	0.0000	UP	9999	620	0	0	0
2019/03/16 06:11:00	BASE	9.50	338	13.58	332	1.5	100	1.5	0	0	986.7	NA	0.0000	UP	9999	690	0	0	0
2019/03/16 06:12:00	BASE	9.17	340	12.30	332	1.4	100	1.4	0	0	986.8	NA	0.0000		9999	750	0	0	0
2019/03/16 06:13:00	BASE	9.88	339	12.30	332	1.4	100	1.4	0	0	986.8	NA	0.0000		9999	720	0	0	0
2019/03/16 06:14:01	BASE	10.79	338	12.30	332	1.4	100	1.4	0	0	986.8	NA	0.0000		9999	690	0	0	0
2019/03/16 06:15:01	BASE	10.42	338	12.30	332	1.4	100	1.4	0	0	986.8	NA	0.0000		9999	690	0	0	0
2019/03/16 06:16:01	BASE	10.17	337	12.04	326	1.4	100	1.4	0	0	986.8	NA	0.0000		9999	660	0	0	0
2019/03/16 06:17:00	BASE	10.64	338	12.04	326	1.4	100	1.4	0	0	986.9	NA	0.0000		9999	690	0	0	0
2019/03/16 06:18:00	BASE	10.31	340	12.04	326	1.4	100	1.4	0	0	987.0	NA	0.0000		9999	620	0	0	0
2019/03/16 06:19:00	BASE	10.16	342	11.99	331	1.4	100	1.4	0	0	987.0	NA	0.0000		9999	620	0	0	0
2019/03/16 06:20:00	BASE	10.23	340	11.99	331	1.4	100	1.4	0	0	987.0	NA	0.0000		9999	590	0	0	0
2019/03/16 06:21:00	BASE	10.01	339	11.99	331	1.3	100	1.3	0	0	987.0	NA	0.0000		9999	560	0	0	0
2019/03/16 06:22:00	BASE	9.66	341	11.99	331	1.3	100	1.3	0	0	987.0	NA	0.0000		9999	560	0	0	0
2019/03/16 06:23:00	BASE	9.53	343	11.99	331	1.3	100	1.3	0	0	987.0	NA	0.0000		9999	560	0	0	0
2019/03/16 06:24:00	BASE	9.64	343	11.99	331	1.3	100	1.3	0	0	987.0	NA	0.0000		9999	560	0	0	0
2019/03/16 06:25:00	BASE	9.65	344	11.99	331	1.3	100	1.3	0	0	987.0	NA	0.0000		9999	560	0	0	0
2019/03/16 06:26:00	BASE	9.78	343	11.47	342	1.3	100	1.3	0	0	987.0	NA	0.0000		9999	520	0	0	0
2019/03/16 06:27:01	BASE	9.62	342	10.91	346	1.3	100	1.3	0	0	987.0	NA	0.0000		9999	520	0	0	0
2019/03/16 06:28:00	BASE	9.65	342	10.91	346	1.3	100	1.3	0	0	987.0	NA	0.0000		9999	520	0	0	0
2019/03/16 06:29:00	BASE	9.58	341	10.91	346	1.3	100	1.3	0	0	987.1	NA	0.0000		9999	520	0	0	0
2019/03/16 06:30:00	BASE	9.82	339	11.01	335	1.3	100	1.3	0	0	987.1	NA	0.0000		9999	520	0	0	0
2019/03/16 06:31:00	BASE	10.12	340	11.01	335	1.3	100	1.3	0	0	987.1	NA	0.0000		9999	520	0	0	0
2019/03/16 06:32:00	BASE	9.91	340	11.01	335	1.3	100	1.3	0	0	987.1	NA	0.0000		9999	520	0	0	0
2019/03/16 06:33:00	BASE	10.12	339	11.27	338	1.3	100	1.3	0	0	987.1	NA	0.0000		9999	520	0	0	0
2019/03/16 06:34:00	BASE	9.91	340	11.27	338	1.3	100	1.3	0	0	987.1	NA	0.0000		9999	520	0	0	0
2019/03/16 06:35:00	BASE	9.65	339	11.27	338	1.3	100	1.3	0	0	987.2	NA	0.0000		9999	520	0	0	0
2019/03/16 06:36:00	BASE	10.07	338	11.37	343	1.3	100	1.3	0	0	987.2	NA	0.0000		9999	520	0	0	0
2019/03/16 06:37:00	BASE	10.32	338	11.68	330	1.3	100	1.3	0	0	987.2	NA	0.0000		9999	520	0	0	0
2019/03/16 06:38:00	BASE	10.04	340	11.68	330	1.3	100	1.3	0	0	987.2	NA	0.0000		9999	520	0	0	0
2019/03/16 06:39:00	BASE	10.37	339	12.81	335	1.3	100	1.3	0	0	987.2	NA	0.0000		9999	520	0	0	0
2019/03/16 06:40:00	BASE	11.12	336	12.81	335	1.3	100	1.3	0	0	987.2	NA	0.0000		9999	520	0	0	0
2019/03/16 06:41:00	BASE	11.15	336	12.81	335	1.3	100	1.3	0	0	987.3	NA	0.0000		9999	490	0	0	0
2019/03/16 06:42:00	BASE	11.37	336	12.81	335	1.3	100	1.3	0	0	987.3	NA	0.0000		9999	490	0	0	0
2019/03/16 06:43:00	BASE	11.85	332	12.81	335	1.3	100	1.3	0	0	987.3	NA	0.0000	UP	9999	560	0	0	0
2019/03/16 06:44:00	BASE	12.24	331	13.63	332	1.4	100	1.4	0	0	987.2	NA	0.0000	UP	9999	490	0	0	0
2019/03/16 06:45:00	BASE	12.71	331	14.15	330	1.4	100	1.4	0	0	987.2	NA	0.0000	UP	9999	430	0	0	0
2019/03/16 06:46:01	BASE	12.38	330	14.15	330	1.4	100	1.4	0	0	987.2	NA	0.0000	UP	9999	430	0	0	0
2019/03/16 06:47:01	BASE	11.91	331	14.15	330	1.4	100	1.4	0	0	987.3	NA	0.0000	UP	9999	430	0	0	0
2019/03/16 06:48:01	BASE	11.56	333	14.15	330	1.4	100	1.4	0	0	987.3	NA	0.0000	UP	9999	390	0	0	0
2019/03/16 06:49:01	BASE	11.11	334	14.15	330	1.4	100	1.4	0	0	987.3	NA	0.0000	UP	9999	390	0	0	0
2019/03/16 06:50:01	BASE	11.03	335	14.15	330	1.3	100	1.3	0	0	987.3	NA	0.0000	UP	9999	430	0	0	0
2019/03/16 06:51:01	BASE	11.14	334	14.15	330	1.3	100	1.3	0	0	987.3	NA	0.0000	UP	9999	390	0	0	0
2019/03/16 06:52:01	BASE	10.99	330	14.15	330	1.3	100	1.3	0	0	987.3	NA	0.0000	UP	9999	390	0	0	0
2019/03/16 06:53:01	BASE	10.60	329	14.15	330	1.2	100	1.2	0	0	987.3	NA	0.0000	UP	9999	390	0	0	0
2019/03/16 06:54:01	BASE	10.17	327	14.15	330	1.2	100	1.2	0	0	987.3	NA	0.0000	UP	9999	360	0	0	0
2019/03/16 06:55:01	BASE	10.27	323	12.71	323	1.2	100	1.2	0	0	987.3	NA	0.0000	UP	9999	330	0	0	0
2019/03/16 06:56:00	BASE	10.83	322	12.50	336	1.1	100	1.1	0	0	987.3	NA	0.2540	UP	9999	360	0	0	0
2019/03/16 06:57:00	BASE	10.97	322	12.45	329	1.1	100	1.1	0	0	987.3	NA	0.0000	UP	9999	330	0	0	0
2019/03/16 06:58:01	BASE	10.89	321	12.35	322	1.1	100	1.1	0	0	987.3	NA	0.0000	UP	9999	300	0	0	0
2019/03/16 06:59:00	BASE	10.95	322	12.50	326	1.0	100	1.0	0	0	987.3	NA	0.0000	UP	9999	300	0	0	0
2019/03/16 07:00:01	BASE	11.57	324	12.81	328	1.0	100	1.0	0	0	987.3	NA	0.0000	UP	9999	300	0	0	0
2019/03/16 07:01:00	BASE	11.99	327	12.81	328	0.9	100	0.9	0	0	987.3	NA	0.0000	UP	9999	330	0	0	0
2019/03/16 07:02:00	BASE	11.90	328	12.81	328	0.9	100	0.9	0	0	987.4	NA	0.0000	UP	9999	330	0	0	0
2019/03/16 07:03:00	BASE	11.52	329	12.81	328	0.9	100	0.9	0	0	987.4	NA	0.0000	UP	9999	330	0	0	0
2019/03/16 07:04:00	BASE	11.18	328	12.81	328	0.8	100	0.8	0	0	987.4	NA	0.0000	UP	9999	330	0	0	0
2019/03/16 07:05:01	BASE	11.24	325	12.81	328	0.8	100	0.8	0	0	987.4	NA	0.0000	UP	9999	300	0	0	0
2019/03/16 07:06:01	BASE	11.54	324	12.81	328	0.8	100	0.8	0	0	987.4	NA	0.0000	UP	9999	260	0	0	0
2019/03/16 07:07:01	BASE	11.63	326	12.81	328	0.8	100	0.8	0	0	987.4	NA	0.0000	UP	9999	330	0	0	0
2019/03/16 07:08:00	BASE	11.25	326	12.81	328	0.8	100	0.8	0	0	987.5	NA	0.0000	UP	9999	260	0	0	0
2019/03/16 07:09:01	BASE	11.10	324	12.81	328	0.8	100	0.8	0	0	987.6	NA	0.0000	UP	9999	260	0	0	0
2019/03/16 07:10:01	BASE	11.16	323	12.81	328	0.8	100	0.8	0	0	987.6	NA	0.0000	UP	9999	200	0	0	0
2019/03/16 07:11:01	BASE	10.84	324	12.55	318	0.8	100	0.8	0	0	987.6	NA	0.0000	UP	9999	260	0	0	0
2019/03/16 07:12:01	BASE	10.38	326	12.55	318	0.8	100	0.8	0	0	987.6	NA	0.0000	UP	9999	200	0	0	0
2019/03/16 07:13:00	BASE	10.00	327	12.55	318	0.8	100	0.8	0	0	987.6	NA	0.0000	UP	9999	230	0	0	0
2019/03/16 07:14:00	BASE	9.73	324	12.55	318	0.9	100	0.9	0	0	987.7	NA	0.0000	UP	9999	230	0	0	0
2019/03/16 07:15:01	BASE	9.30	323	12.55	318	0.9	100	0.9	0	0	987.7	NA	0.0000	UP	9999	230	0	0	0
2019/03/16 07:16:00	BASE	8.58	326	12.45	323	0.9	100	0.9	0	0	987.7	NA	0.0000	UP	9999	200	0	0	0
2019/03/16 07:17:00	BASE	8.22	328	11.63	325	0.9	100	0.9	0	0	987.7	NA	0.0000	UP	9999	260	0	0	0
2019/03/16 07:18:01	BASE	9.12	325	11.63	325	1.0	100	1.0	0	0	987.7	NA	0.0000	UP	9999	330	0	0	0
2019/03/16 07:19:00	BASE	10.09	324	11.99	326	1.0	100	1.0	0	0	987.8	NA	0.0000	UP	9999	390	0	0	0
2019/03/16 07:20:01	BASE	10.80	326	12.14	326	1.1	100	1.1	0	0	987.8	NA	0.0000	UP	9999	430	0	0	0
2019/03/16 07:21:00	BASE	11.32	325	12.35	319	1.1	100	1.1	0	0	987.8	NA	0.0000	UP	9999	460	0	0	0
2019/03/16 07:22:00	BASE	12.20	322	15.74	322	1.2	100	1.2	0	0	987.7	NA	0.0000		9999	460	0	0	0
2019/03/16 07:23:00	BASE	13.41	323	15.74	322	1.3	100	1.3	0	0	987.8	NA	0.0000		9999	490	0	0	0
2019/03/16 07:24:00	BASE	13.45	324	15.74	322	1.4	100	1.4	0	0	987.8	NA	0.0000		9999	520	0	0	0
2019/03/16 07:25:00	BASE	13.53	325	15.74	322	1.4	100	1.4	0	0	987.8	NA	0.0000		9999	520	0	0	0
2019/03/16 07:26:01	BASE	13.47	326	15.74	322	1.5	100	1.5	0	0	987.8	NA	0.0000		9999	660	0	0	0
2019/03/16 07:27:00	BASE	13.76	325	15.74	322	1.5	100	1.5	0	0	987.8	NA	0.0000		9999	560	0	0	0
2019/03/16 07:28:00	BASE	13.68	325	15.74	322	1.5	100	1.5	0	0	987.8	NA	0.0000		9999	620	0	0	0
2019/03/16 07:29:00	BASE	12.88	325	15.74	322	1.5	100	1.5	0	0	987.9	NA	0.0000		9999	590	0	0	0
2019/03/16 07:30:00	BASE	12.63	325	15.74	322	1.5	100	1.5	0	0	987.9	NA	0.0000		9999	620	0	0	0
2019/03/16 07:31:00	BASE	12.63	325	15.74	322	1.5	100	1.5	0	0	987.9	NA	0.0000		9999	620	0	0	0
2019/03/16 07:32:00	BASE	12.96	324	15.28	326	1.5	100	1.5	0	0	987.8	NA	0.0000		9999	620	0	0	0
2019/03/16 07:33:01	BASE	12.87	324	15.28	326	1.5	100	1.5	0	0	987.9	NA	0.0000		9999	660	0	0	0
2019/03/16 07:34:01	BASE	12.49	323	15.28	326	1.5	100	1.5	0	0	987.9	NA	0.0000		9999	690	0	0	0
2019/03/16 07:35:00	BASE	12.49	324	15.28	326	1.5	100	1.5	0	0	987.9	NA	0.0000		9999	690	0	0	0
2019/03/16 07:36:00	BASE	12.21	325	15.28	326	1.5	100	1.5	0	0	987.9	NA	0.0000		9999	660	2400	0	0
2019/03/16 07:37:00	BASE	11.90	325	14.51	326	1.5	100	1.5	0	0	987.9	NA	0.0000		9999	690	0	0	0
2019/03/16 07:38:00	BASE	11.76	325	14.51	326	1.5	100	1.5	0	0	987.9	NA	0.0000		9999	690	2430	0	0
2019/03/16 07:39:00	BASE	11.33	326	14.51	326	1.5	100	1.5	0	0	987.9	NA	0.0000		9999	690	2400	0	0
2019/03/16 07:40:01	BASE	11.14	326	14.51	326	1.5	100	1.5	0	0	988.0	NA	0.0000		9999	660	2430	0	0
2019/03/16 07:41:00	BASE	11.22	327	14.51	326	1.5	100	1.5	0	0	988.0	NA	0.0000		9999	690	2430	0	0
2019/03/16 07:42:00	BASE	11.19	326	13.99	324	1.5	100	1.5	0	0	988.0	NA	0.0000		9999	720	2430	0	0
2019/03/16 07:43:01	BASE	11.02	328	13.53	323	1.5	100	1.5	0	0	988.0	NA	0.0000		9999	720	2460	0	0
2019/03/16 07:44:00	BASE	10.79	328	13.53	323	1.4	100	1.4	0	0	988.0	NA	0.0000		9999	690	0	0	0
2019/03/16 07:45:01	BASE	10.89	326	12.91	329	1.4	100	1.4	0	0	988.0	NA	0.0000		9999	660	0	0	0
2019/03/16 07:46:00	BASE	11.58	326	12.91	329	1.4	100	1.4	0	0	988.1	NA	0.0000		9999	660	0	0	0
2019/03/16 07:47:00	BASE	11.67	326	12.91	329	1.4	100	1.4	0	0	988.2	NA	0.0000		9999	660	0	0	0
2019/03/16 07:48:01	BASE	11.41	327	12.66	327	1.4	100	1.4	0	0	988.2	NA	0.0000		9999	620	0	0	0
2019/03/16 07:49:01	BASE	11.84	328	13.38	331	1.4	100	1.4	0	0	988.1	NA	0.0000		9999	660	2490	0	0
2019/03/16 07:50:01	BASE	12.10	329	13.38	331	1.4	100	1.4	0	0	988.1	NA	0.0000		9999	690	2460	0	0
2019/03/16 07:51:00	BASE	12.35	328	13.68	328	1.4	100	1.4	0	0	988.2	NA	0.0000		9999	920	2400	0	0
2019/03/16 07:52:00	BASE	12.59	328	13.68	328	1.4	100	1.4	0	0	988.2	NA	0.0000		9999	850	2400	0	0
2019/03/16 07:53:00	BASE	12.67	328	13.68	331	1.4	100	1.4	0	0	988.2	NA	0.0000		9999	950	2430	0	0
2019/03/16 07:54:00	BASE	12.79	328	13.84	328	1.5	100	1.5	0	0	988.2	NA	0.0000		9999	750	2430	0	0
2019/03/16 07:55:00	BASE	13.06	327	13.84	328	1.5	100	1.5	0	0	988.1	NA	0.0000		9999	850	2430	0	0
2019/03/16 07:56:00	BASE	13.36	326	14.15	321	1.5	100	1.5	0	0	988.1	NA	0.0000		9999	820	2430	0	0
2019/03/16 07:57:00	BASE	13.03	327	14.82	324	1.5	100	1.5	0	0	988.1	NA	0.0000		9999	2360	0	0	0
2019/03/16 07:58:00	BASE	12.41	327	14.82	324	1.5	100	1.5	0	0	988.1	NA	0.0000		9999	2400	0	0	0
2019/03/16 07:59:00	BASE	12.35	327	14.82	324	1.5	100	1.5	0	0	988.0	NA	0.0000		9999	2460	0	0	0
2019/03/16 08:00:01	BASE	12.62	328	14.82	324	1.5	100	1.5	0	0	988.0	NA	0.0000		9999	2130	0	0	0
2019/03/16 08:01:00	BASE	12.48	329	14.82	324	1.5	100	1.5	0	0	988.1	NA	0.0000		9999	2330	0	0	0
2019/03/16 08:02:01	BASE	12.35	329	14.82	324	1.5	100	1.5	0	0	988.1	NA	0.0000		9999	2170	0	0	0
2019/03/16 08:03:01	BASE	12.32	329	14.82	324	1.5	100	1.5	0	0	988.1	NA	0.0000		9999	2130	0	0	0
2019/03/16 08:04:00	BASE	12.08	329	14.82	324	1.5	100	1.5	0	0	988.2	NA	0.0000		9999	2170	0	0	0
2019/03/16 08:05:00	BASE	11.89	330	14.82	324	1.5	100	1.5	0	0	988.1	NA	0.0000		9999	2170	0	0	0
2019/03/16 08:06:00	BASE	12.10	330	14.82	324	1.5	100	1.5	0	0	988.1	NA	0.0000		9999	2200	0	0	0
2019/03/16 08:07:00	BASE	12.39	327	14.46	327	1.5	100	1.5	0	0	988.2	NA	0.0000		9999	2170	0	0	0
2019/03/16 08:08:00	BASE	12.43	325	14.46	327	1.5	100	1.5	0	0	988.2	NA	0.0000		9999	2130	0	0	0
2019/03/16 08:09:00	BASE	12.10	325	14.10	327	1.5	100	1.5	0	0	988.2	NA	0.0000		9999	2230	0	0	0
2019/03/16 08:10:00	BASE	11.90	327	13.99	323	1.5	100	1.5	0	0	988.2	NA	0.0000		9999	2130	0	0	0
2019/03/16 08:11:00	BASE	11.80	328	13.99	323	1.5	100	1.5	0	0	988.2	NA	0.0000		9999	2130	0	0	0
2019/03/16 08:12:00	BASE	12.00	328	13.99	323	1.5	100	1.5	0	0	988.2	NA	0.0000		9999	2070	0	0	0
2019/03/16 08:13:00	BASE	12.60	329	13.99	323	1.5	100	1.5	0	0	988.2	NA	0.0000		9999	2100	0	0	0
2019/03/16 08:14:01	BASE	12.59	330	13.99	323	1.5	100	1.5	0	0	988.2	NA	0.0000		9999	2200	0	0	0
2019/03/16 08:15:00	BASE	12.66	331	13.99	323	1.5	100	1.5	0	0	988.2	NA	0.0000		9999	2130	0	0	0
2019/03/16 08:16:00	BASE	12.93	330	14.20	327	1.5	100	1.5	0	0	988.2	NA	0.0000		9999	2130	0	0	0
2019/03/16 08:17:00	BASE	12.71	328	14.20	327	1.5	100	1.5	0	0	988.2	NA	0.0000		9999	2070	0	0	0
2019/03/16 08:18:00	BASE	12.51	326	14.20	327	1.5	100	1.5	0	0	988.2	NA	0.0000		9999	2070	0	0	0
2019/03/16 08:19:00	BASE	12.27	326	14.20	327	1.5	100	1.5	0	0	988.2	NA	0.0000		9999	2200	0	0	0
2019/03/16 08:20:00	BASE	12.17	326	14.20	327	1.5	100	1.5	0	0	988.2	NA	0.0000		9999	2130	0	0	0
2019/03/16 08:21:00	BASE	12.28	327	14.20	327	1.5	100	1.5	0	0	988.2	NA	0.0000		9999	2100	0	0	0
2019/03/16 08:22:00	BASE	12.31	328	14.20	327	1.5	100	1.5	0	0	988.2	NA	0.0000		9999	2100	0	0	0
2019/03/16 08:23:00	BASE	12.28	326	14.20	327	1.5	100	1.5	0	0	988.3	NA	0.0000		9999	2070	0	0	0
2019/03/16 08:24:00	BASE	11.98	323	14.20	327	1.5	100	1.5	0	0	988.3	NA	0.0000		9999	2100	0	0	0
2019/03/16 08:25:00	BASE	11.99	319	14.20	327	1.5	100	1.5	0	0	988.3	NA	0.0000		9999	1900	0	0	0
2019/03/16 08:26:00	BASE	12.73	319	14.82	316	1.5	100	1.5	0	0	988.3	NA	0.0000		9999	1840	0	0	0
2019/03/16 08:27:01	BASE	12.30	323	14.82	316	1.5	100	1.5	0	0	988.3	NA	0.0000		9999	1940	0	0	0
2019/03/16 08:28:01	BASE	10.73	324	14.82	316	1.5	100	1.5	0	0	988.4	NA	0.0000		9999	1800	0	0	0
2019/03/16 08:29:00	BASE	9.90	324	14.82	316	1.5	100	1.5	0	0	988.4	NA	0.0000		9999	2000	0	0	0
2019/03/16 08:30:00	BASE	9.76	327	14.82	316	1.5	100	1.5	0	0	988.4	NA	0.0000		9999	2000	0	0	0
2019/03/16 08:31:00	BASE	9.77	329	14.82	316	1.5	100	1.5	0	0	988.3	NA	0.0000		9999	1970	0	0	0
2019/03/16 08:32:00	BASE	9.41	330	14.82	316	1.5	100	1.5	0	0	988.4	NA	0.0000		9999	1940	0	0	0
2019/03/16 08:33:01	BASE	9.35	331	14.82	316	1.5	100	1.5	0	0	988.4	NA	0.0000		9999	1940	0	0	0
2019/03/16 08:34:01	BASE	9.07	336	14.82	316	1.5	100	1.5	0	0	988.4	NA	0.0000		9999	1870	0	0	0
2019/03/16 08:35:00	BASE	8.72	340	14.82	316	1.5	100	1.5	0	0	988.4	NA	0.0000		9999	1970	0	0	0
2019/03/16 08:36:00	BASE	9.39	341	12.24	320	1.5	100	1.5	0	0	988.4	NA	0.0000		9999	1900	0	0	0
2019/03/16 08:37:00	BASE	10.17	341	11.01	342	1.4	100	1.4	0	0	988.4	NA	0.0000		9999	1840	0	0	0
2019/03/16 08:38:00	BASE	10.38	340	11.16	339	1.4	100	1.4	0	0	988.4	NA	0.0000		9999	1770	0	0	0
2019/03/16 08:39:00	BASE	10.46	340	11.63	339	1.4	100	1.4	0	0	988.4	NA	0.0000		9999	1840	0	0	0
2019/03/16 08:40:00	BASE	10.61	341	11.63	339	1.4	100	1.4	0	0	988.4	NA	0.0000		9999	1870	0	0	0
2019/03/16 08:41:00	BASE	10.71	341	11.63	339	1.4	100	1.4	0	0	988.4	NA	0.0000		9999	1800	0	0	0
2019/03/16 08:42:00	BASE	10.78	341	11.63	339	1.4	100	1.4	0	0	988.4	NA	0.0000		9999	1640	0	0	0
2019/03/16 08:43:00	BASE	10.75	339	11.63	339	1.4	100	1.4	0	0	988.4	NA	0.0000		9999	1640	0	0	0
2019/03/16 08:44:00	BASE	10.32	338	11.63	339	1.4	100	1.4	0	0	988.4	NA	0.0000		9999	1670	0	0	0
2019/03/16 08:45:01	BASE	9.53	339	11.63	339	1.4	100	1.4	0	0	988.4	NA	0.0000		9999	1610	0	0	0
2019/03/16 08:46:00	BASE	9.38	341	11.63	339	1.4	100	1.4	0	0	988.4	NA	0.0000		9999	1800	0	0	0
2019/03/16 08:47:00	BASE	9.34	342	11.63	339	1.4	100	1.4	0	0	988.4	NA	0.0000		9999	1740	0	0	0
2019/03/16 08:48:00	BASE	9.56	342	11.63	339	1.4	100	1.4	0	0	988.4	NA	0.0000		9999	1770	0	0	0
2019/03/16 08:49:00	BASE	9.95	342	11.47	335	1.4	100	1.4	0	0	988.4	NA	0.0000		9999	1870	0	0	0
2019/03/16 08:50:00	BASE	9.86	341	11.47	335	1.4	100	1.4	0	0	988.4	NA	0.0000		9999	2000	0	0	0
2019/03/16 08:51:00	BASE	9.74	341	11.47	335	1.4	100	1.4	0	0	988.4	NA	0.0000		9999	1940	0	0	0
2019/03/16 08:52:00	BASE	9.68	344	11.47	335	1.4	100	1.4	0	0	988.4	NA	0.0000		9999	1840	0	0	0
2019/03/16 08:53:00	BASE	9.75	344	11.47	335	1.4	100	1.4	0	0	988.4	NA	0.0000		9999	1940	0	0	0
2019/03/16 08:54:00	BASE	9.76	345	11.47	335	1.5	100	1.5	0	0	988.4	NA	0.0000		9999	1900	0	0	0
2019/03/16 08:55:00	BASE	9.79	347	11.47	335	1.5	100	1.5	0	0	988.4	NA	0.0000		9999	1940	0	0	0
2019/03/16 08:56:00	BASE	9.46	345	11.47	335	1.5	100	1.5	0	0	988.4	NA	0.0000		9999	1940	0	0	0
2019/03/16 08:57:00	BASE	8.86	346	11.47	335	1.5	100	1.5	0	0	988.5	NA	0.0000		9999	2030	2560	0	0
2019/03/16 08:58:00	BASE	9.06	347	11.32	342	1.6	100	1.6	0	0	988.5	NA	0.0000		9999	1940	2490	0	0
2019/03/16 08:59:00	BASE	9.35	345	11.32	342	1.6	100	1.6	0	0	988.5	NA	0.0000		9999	1610	0	0	0
2019/03/16 09:00:01	BASE	8.78	345	11.32	342	1.6	100	1.6	0	0	988.5	NA	0.0000		9999	1870	2430	0	0
2019/03/16 09:01:00	BASE	8.43	346	11.32	342	1.6	100	1.6	0	0	988.5	NA	0.0000		9999	1970	2530	0	0
2019/03/16 09:02:00	BASE	8.56	346	11.32	342	1.6	100	1.6	0	0	988.5	NA	0.0000		9999	1080	2590	0	0
2019/03/16 09:03:00	BASE	8.78	351	11.32	342	1.6	100	1.6	0	0	988.5	NA	0.0000		9999	1080	2660	0	0
2019/03/16 09:04:00	BASE	8.76	354	11.32	342	1.6	100	1.6	0	0	988.5	NA	0.0000		9999	1120	2760	0	0
2019/03/16 09:05:00	BASE	8.49	350	10.70	340	1.6	100	1.6	0	0	988.5	NA	0.0000		9999	1150	2690	0	0
2019/03/16 09:06:00	BASE	8.31	345	10.70	340	1.7	100	1.7	0	0	988.5	NA	0.0000		9999	1080	0	0	0
2019/03/16 09:07:00	BASE	8.52	341	10.70	340	1.7	100	1.7	0	0	988.6	NA	0.0000		9999	1150	0	0	0
2019/03/16 09:08:00	BASE	8.83	337	10.55	345	1.7	100	1.7	0	0	988.6	NA	0.0000		9999	1080	0	0	0
2019/03/16 09:09:00	BASE	8.96	336	10.13	352	1.6	100	1.6	0	0	988.7	NA	0.0000		9999	1080	0	0	0
2019/03/16 09:10:01	BASE	8.95	336	10.13	352	1.6	100	1.6	0	0	988.7	NA	0.0000		9999	1150	0	0	0
2019/03/16 09:11:00	BASE	9.12	337	10.60	340	1.5	100	1.5	0	0	988.7	NA	0.0000		9999	1020	0	0	0
2019/03/16 09:12:00	BASE	9.71	338	11.21	343	1.5	100	1.5	0	0	988.7	NA	0.0000		9999	1020	0	0	0
2019/03/16 09:13:00	BASE	10.29	340	11.42	342	1.5	100	1.5	0	0	988.7	NA	0.0000		9999	1180	0	0	0
2019/03/16 09:14:00	BASE	10.84	342	12.09	340	1.5	100	1.5	0	0	988.7	NA	0.0000		9999	1210	0	0	0
2019/03/16 09:15:00	BASE	11.13	341	12.09	340	1.5	100	1.5	0	0	988.7	NA	0.0000		9999	1020	0	0	0
2019/03/16 09:16:00	BASE	11.07	341	12.14	339	1.5	100	1.5	0	0	988.7	NA	0.0000		9999	1280	0	0	0
2019/03/16 09:17:00	BASE	11.20	340	12.14	339	1.6	100	1.6	0	0	988.7	NA	0.0000		9999	920	1380	0	0
2019/03/16 09:18:00	BASE	11.41	342	12.50	348	1.6	100	1.6	0	0	988.7	NA	0.0000		9999	1250	1840	0	0
2019/03/16 09:19:00	BASE	11.25	344	12.50	348	1.6	100	1.6	0	0	988.7	NA	0.0000		9999	850	0	0	0
2019/03/16 09:20:00	BASE	11.31	342	12.50	348	1.6	100	1.6	0	0	988.7	NA	0.0000		9999	660	0	0	0
2019/03/16 09:21:00	BASE	11.33	342	12.50	348	1.6	100	1.6	0	0	988.7	NA	0.0000		9999	560	1480	0	0
2019/03/16 09:22:01	BASE	11.23	344	12.50	348	1.6	100	1.6	0	0	988.7	NA	0.0000		9999	460	0	0	0
2019/03/16 09:23:00	BASE	11.44	347	12.81	352	1.6	100	1.6	0	0	988.7	NA	0.0000		9999	3410	0	0	0
2019/03/16 09:24:00	BASE	11.10	349	12.81	352	1.5	100	1.5	0	0	988.7	NA	0.0000	UP	9999	3540	0	0	0
2019/03/16 09:25:00	BASE	10.66	351	12.81	352	1.5	100	1.5	0	0	988.7	NA	0.0000	UP	9999	3710	0	0	0
2019/03/16 09:26:00	BASE	11.07	352	12.81	352	1.5	100	1.5	0	0	988.7	NA	0.0000	UP	9999	3810	0	0	0
2019/03/16 09:27:00	BASE	11.76	351	12.81	355	1.5	100	1.5	0	0	988.7	NA	0.0000	UP	9999	3940	0	0	0
2019/03/16 09:28:00	BASE	11.63	348	12.81	355	1.5	100	1.5	0	0	988.7	NA	0.0000	UP	9999	3870	0	0	0
2019/03/16 09:29:00	BASE	11.44	351	12.81	355	1.6	100	1.6	0	0	988.7	NA	0.0000	UP	9999	3740	0	0	0
2019/03/16 09:30:01	BASE	12.00	352	13.17	1	1.6	100	1.6	0	0	988.7	NA	0.0000	UP	9999	0	0	0	2620
2019/03/16 09:31:00	BASE	12.04	353	13.17	1	1.6	100	1.6	0	0	988.7	NA	0.0000	UP	9999	620	3840	0	0
2019/03/16 09:32:01	BASE	11.92	356	13.17	1	1.6	100	1.6	0	0	988.7	NA	0.0000	UP	9999	3810	0	0	0
2019/03/16 09:33:00	BASE	12.56	351	14.20	351	1.6	100	1.6	0	0	988.7	NA	0.0000	UP	9999	2300	0	0	0
2019/03/16 09:34:00	BASE	12.65	353	14.20	351	1.6	100	1.6	0	0	988.7	NA	0.0000	UP	9999	1670	0	0	0
2019/03/16 09:35:00	BASE	12.12	357	14.20	351	1.6	100	1.6	0	0	988.7	NA	0.0000	UP	9999	1570	2430	0	0
2019/03/16 09:36:00	BASE	11.79	360	14.20	351	1.6	100	1.6	0	0	988.6	NA	0.0000	UP	9999	2360	3640	0	0
2019/03/16 09:37:00	BASE	11.43	2	14.20	351	1.6	100	1.6	0	0	988.5	NA	0.0000	UP	9999	3510	0	0	0
2019/03/16 09:38:01	BASE	11.48	3	14.20	351	1.6	100	1.6	0	0	988.4	NA	0.0000	UP	9999	3380	0	0	0
2019/03/16 09:39:00	BASE	11.70	4	14.20	351	1.6	100	1.6	0	0	988.4	NA	0.0000	UP	9999	3580	0	0	0
2019/03/16 09:40:00	BASE	11.98	1	14.20	351	1.6	100	1.6	0	0	988.4	NA	0.0000	UP	9999	3810	0	0	0
2019/03/16 09:41:00	BASE	11.92	358	14.20	351	1.6	100	1.6	0	0	988.4	NA	0.0000	UP	9999	3710	0	0	0
2019/03/16 09:42:00	BASE	11.62	357	14.20	351	1.6	100	1.6	0	0	988.5	NA	0.0000		9999	3580	0	0	0
2019/03/16 09:43:00	BASE	11.83	354	14.46	351	1.6	100	1.6	1	0	988.4	NA	0.0000		9999	3970	0	0	0
2019/03/16 09:44:01	BASE	10.92	352	14.46	351	1.6	100	1.6	1	0	988.5	NA	0.0000		9999	2200	0	0	0
2019/03/16 09:45:00	BASE	9.98	356	14.46	351	1.7	100	1.7	1	0	988.5	NA	0.0000		9999	2000	0	0	0
2019/03/16 09:46:00	BASE	9.96	355	14.46	351	1.7	100	1.7	1	0	988.5	NA	0.0000		9999	1900	3540	0	0
2019/03/16 09:47:00	BASE	9.84	356	14.46	351	1.7	100	1.7	1	0	988.5	NA	0.0000		9999	3580	0	0	0
2019/03/16 09:48:00	BASE	9.91	353	14.46	351	1.7	100	1.7	1	0	988.6	NA	0.0000		9999	620	3740	0	0
2019/03/16 09:49:00	BASE	9.67	348	14.46	351	1.8	100	1.8	1	0	988.5	NA	0.0000		9999	3580	0	0	0
2019/03/16 09:50:00	BASE	8.74	348	14.46	351	1.8	100	1.8	1	0	988.6	NA	0.0000		9999	3510	0	0	0
2019/03/16 09:51:00	BASE	8.41	349	14.46	351	1.8	100	1.8	1	0	988.6	NA	0.0000		9999	3710	0	0	0
2019/03/16 09:52:00	BASE	9.86	355	14.46	351	1.8	100	1.8	1	0	988.6	NA	0.0000		9999	3580	0	0	0
2019/03/16 09:53:00	BASE	11.55	1	13.22	3	1.8	100	1.8	1	0	988.6	NA	0.0000		9999	3670	0	0	0
2019/03/16 09:54:00	BASE	11.69	359	13.22	3	1.8	100	1.8	1	0	988.6	NA	0.0000		9999	3640	0	0	0
2019/03/16 09:55:00	BASE	11.02	352	13.22	3	1.8	100	1.8	1	0	988.6	NA	0.0000		9999	3810	0	0	0
2019/03/16 09:56:00	BASE	11.14	346	13.22	3	1.8	100	1.8	1	0	988.6	NA	0.0000		9999	3670	0	0	0
2019/03/16 09:57:00	BASE	11.85	347	13.53	352	1.8	100	1.8	1	0	988.7	NA	0.0000		9999	2130	3810	0	0
2019/03/16 09:58:00	BASE	12.02	354	13.89	354	1.8	100	1.8	1	0	988.7	NA	0.0000		9999	1970	3770	0	0
2019/03/16 09:59:00	BASE	11.88	356	13.89	354	1.8	100	1.8	1	0	988.7	NA	0.0000		9999	2130	3770	0	0
2019/03/16 10:00:00	BASE	11.40	358	13.89	354	1.8	100	1.8	1	0	988.7	NA	0.0000		9999	2170	3610	0	0
2019/03/16 10:01:00	BASE	11.02	358	13.89	354	1.8	100	1.8	1	0	988.7	NA	0.0000		9999	2170	3640	0	0
2019/03/16 10:02:00	BASE	11.30	358	13.89	354	1.9	100	1.9	2	0	988.6	NA	0.0000		9999	2260	3580	0	0
2019/03/16 10:03:00	BASE	11.61	359	13.89	354	1.9	100	1.9	2	0	988.6	NA	0.0000		9999	2200	3480	0	0
2019/03/16 10:04:00	BASE	11.85	356	13.89	354	1.9	100	1.9	2	0	988.5	NA	0.0000		9999	2200	3540	0	0
2019/03/16 10:05:00	BASE	12.13	358	13.89	354	1.9	100	1.9	2	0	988.6	NA	0.0000		9999	2230	3580	0	0
2019/03/16 10:06:01	BASE	12.39	2	13.89	354	1.9	100	1.9	2	0	988.5	NA	0.0000		9999	2200	0	0	0
2019/03/16 10:07:00	BASE	11.94	360	13.89	354	1.9	100	1.9	2	0	988.6	NA	0.0000		9999	2130	0	0	0
2019/03/16 10:08:00	BASE	11.20	353	13.22	360	1.9	100	1.9	3	0	988.7	NA	0.0000		9999	2230	3610	0	0
2019/03/16 10:09:00	BASE	10.85	349	13.22	360	1.9	100	1.9	3	0	988.7	NA	0.0000		9999	1310	2070	3710	0
2019/03/16 10:10:00	BASE	11.46	353	13.53	3	1.9	100	1.9	3	0	988.6	NA	0.0000		9999	1380	2070	3640	0
2019/03/16 10:11:00	BASE	11.98	357	13.53	3	1.9	100	1.9	3	0	988.6	NA	0.0000		9999	1280	2030	3640	0
2019/03/16 10:12:00	BASE	11.78	352	13.53	3	1.9	100	1.9	3	0	988.7	NA	0.0000		9999	1250	0	0	0
2019/03/16 10:13:00	BASE	11.50	348	13.53	3	2.0	100	2.0	3	0	988.7	NA	0.0000		9999	1480	3640	0	0
2019/03/16 10:14:00	BASE	11.13	345	13.53	3	2.0	100	2.0	3	0	988.7	NA	0.0000		9999	1310	3610	0	0
2019/03/16 10:15:00	BASE	10.94	348	13.53	3	2.0	100	2.0	3	0	988.7	NA	0.0000		9999	1710	2820	3510	0
2019/03/16 10:16:00	BASE	11.11	349	13.53	3	2.0	100	2.0	3	0	988.7	NA	0.0000		9999	1940	0	0	0
2019/03/16 10:17:00	BASE	11.05	349	13.53	3	2.0	100	2.0	3	0	988.7	NA	0.0000		9999	1900	0	0	0
2019/03/16 10:18:00	BASE	10.64	351	13.53	3	2.0	100	2.0	3	0	988.7	NA	0.0000		9999	1710	0	0	0
2019/03/16 10:19:00	BASE	11.23	353	13.89	349	2.0	100	2.0	3	0	988.7	NA	0.0000		9999	1770	0	0	0
2019/03/16 10:20:01	BASE	11.87	351	13.89	349	2.0	100	2.0	4	0	988.7	NA	0.0000		9999	2000	0	0	0
2019/03/16 10:21:00	BASE	11.95	350	13.89	349	2.0	100	2.0	4	0	988.7	NA	0.0000		9999	2000	2620	0	0
2019/03/16 10:22:00	BASE	12.23	354	13.89	349	2.0	100	2.0	3	0	988.7	NA	0.0000		9999	2030	0	0	0
2019/03/16 10:23:00	BASE	12.90	356	14.71	355	2.0	100	2.0	3	0	988.7	NA	0.0000		9999	1800	0	0	0
2019/03/16 10:24:00	BASE	13.37	355	15.33	354	2.0	100	2.0	3	0	988.7	NA	0.0000		9999	920	0	0	0
2019/03/16 10:25:00	BASE	12.78	351	15.33	354	2.0	100	2.0	3	0	988.7	NA	0.0000		9999	750	0	0	0
2019/03/16 10:26:00	BASE	13.15	354	15.54	4	2.0	100	2.0	3	0	988.7	NA	0.0000		9999	1740	0	0	0
2019/03/16 10:27:00	BASE	14.00	359	15.54	4	2.0	100	2.0	3	0	988.7	NA	0.0000		9999	1900	0	0	0
2019/03/16 10:28:00	BASE	14.40	1	15.90	3	2.0	100	2.0	3	0	988.7	NA	0.0000		9999	2130	0	0	0
2019/03/16 10:29:00	BASE	14.56	2	15.90	3	2.0	100	2.0	3	0	988.7	NA	0.0000		9999	1610	0	0	0
2019/03/16 10:30:00	BASE	13.96	3	15.90	3	1.9	100	1.9	3	0	988.7	NA	0.0000		9999	1570	0	0	0
2019/03/16 10:31:00	BASE	14.11	4	15.90	3	1.9	100	1.9	4	0	988.7	NA	0.0000		9999	1640	0	0	0
2019/03/16 10:32:00	BASE	14.43	3	15.90	3	1.9	100	1.9	4	0	988.7	NA	0.0000		9999	1570	0	0	0
2019/03/16 10:33:00	BASE	14.19	3	15.90	3	1.9	100	1.9	4	0	988.7	NA	0.0000		9999	1540	0	0	0
2019/03/16 10:34:00	BASE	14.16	3	15.90	3	1.9	100	1.9	4	0	988.7	NA	0.0000		9999	1570	0	0	0
2019/03/16 10:35:00	BASE	14.54	3	15.90	3	1.9	100	1.9	4	0	988.7	NA	0.0000		9999	1480	0	0	0
2019/03/16 10:36:00	BASE	14.90	2	16.82	354	1.8	100	1.8	5	0	988.7	NA	0.0000		9999	850	0	0	0
2019/03/16 10:37:00	BASE	15.21	360	17.65	2	1.8	100	1.8	5	0	988.7	NA	0.0000		9999	590	0	0	0
2019/03/16 10:38:00	BASE	15.50	2	17.65	2	1.8	100	1.8	6	0	988.7	NA	0.0000		9999	490	0	0	0
2019/03/16 10:39:00	BASE	15.66	353	17.65	2	1.9	100	1.9	5	0	988.8	NA	0.0000		9999	460	0	0	0
2019/03/16 10:40:00	BASE	15.03	348	17.65	2	1.9	100	1.9	6	0	988.8	NA	0.0000	UP	9999	390	0	0	0
2019/03/16 10:41:00	BASE	14.10	358	17.65	2	1.9	100	1.9	6	0	988.8	NA	0.0000	UP	9999	460	0	0	0
2019/03/16 10:42:00	BASE	14.29	0	17.65	2	1.9	100	1.9	6	0	988.8	NA	0.0000	UP	9999	430	0	0	0
2019/03/16 10:43:00	BASE	14.46	5	17.65	2	1.8	100	1.8	6	0	988.8	NA	0.0000	UP	9999	360	0	0	0
2019/03/16 10:44:00	BASE	14.12	3	17.65	2	1.8	100	1.8	7	0	988.7	NA	0.0000	UP	9999	390	0	0	0
2019/03/16 10:45:00	BASE	14.15	2	17.65	2	1.8	100	1.8	8	0	988.7	NA	0.0000	UP	9999	390	0	0	0
2019/03/16 10:46:00	BASE	14.64	5	17.65	2	1.7	100	1.7	10	0	988.7	NA	0.2540	UP	9999	950	0	0	0
2019/03/16 10:47:00	BASE	15.13	9	17.85	10	1.7	100	1.7	12	0	988.7	NA	0.0000	UP	9999	690	1570	0	0
2019/03/16 10:48:00	BASE	14.88	9	17.85	10	1.7	100	1.7	11	0	988.7	NA	0.0000	UP	9999	920	1710	0	0
2019/03/16 10:49:00	BASE	14.93	6	17.85	10	1.7	100	1.7	11	0	988.6	NA	0.0000	UP	9999	850	1440	0	0
2019/03/16 10:50:00	BASE	15.60	6	17.85	10	1.7	100	1.7	10	0	988.6	NA	0.0000	UP	9999	1150	0	0	0
2019/03/16 10:51:00	BASE	15.46	6	17.85	10	1.8	100	1.8	11	0	988.7	NA	0.0000	UP	9999	1020	0	0	0
2019/03/16 10:52:00	BASE	14.70	4	17.85	10	1.8	100	1.8	11	0	988.6	NA	0.0000	UP	9999	1020	0	0	0
2019/03/16 10:53:00	BASE	13.84	2	17.85	10	1.8	100	1.8	12	0	988.6	NA	0.0000	UP	9999	1050	0	0	0
2019/03/16 10:54:00	BASE	13.86	1	17.85	10	1.8	100	1.8	14	0	988.6	NA	0.0000	UP	9999	920	0	0	0
2019/03/16 10:55:00	BASE	13.79	1	17.85	10	1.8	100	1.8	18	0	988.5	NA	0.0000	UP	9999	890	0	0	0
2019/03/16 10:56:00	BASE	13.62	356	17.85	10	1.8	100	1.8	20	0	988.5	NA	0.0000	UP	9999	890	0	0	0
2019/03/16 10:57:00	BASE	13.91	357	17.34	360	1.8	100	1.8	23	0	988.5	NA	0.0000	UP	9999	850	0	0	0
2019/03/16 10:58:00	BASE	13.86	357	17.34	360	1.9	100	1.9	28	0	988.5	NA	0.0000		9999	820	0	0	0
2019/03/16 10:59:00	BASE	14.38	355	17.34	360	1.9	100	1.9	37	0	988.5	NA	0.0000		9999	1020	0	0	0
2019/03/16 11:00:00	BASE	15.06	359	16.20	2	2.0	100	2.0	48	0	988.4	NA	0.0000		9999	1080	0	0	0
2019/03/16 11:01:00	BASE	15.44	4	16.77	10	2.0	100	2.0	55	0	988.4	NA	0.0000		9999	1250	0	0	0
2019/03/16 11:02:00	BASE	15.97	9	17.75	16	2.0	100	2.0	60	0	988.4	NA	0.0000		9999	1280	0	0	0
2019/03/16 11:03:00	BASE	17.33	11	19.55	12	2.0	100	2.0	63	0	988.4	NA	0.0000		9999	1410	0	0	0
2019/03/16 11:04:00	BASE	18.45	11	20.73	9	2.0	100	2.0	68	0	988.3	NA	0.0000		9999	1180	0	0	0
2019/03/16 11:05:00	BASE	18.26	11	20.73	9	2.0	100	2.0	76	0	988.3	NA	0.0000		9999	1080	0	0	0
2019/03/16 11:06:00	BASE	18.46	12	20.94	8	2.0	100	2.0	85	0	988.4	NA	0.0000		9999	1080	0	0	0
2019/03/16 11:07:00	BASE	19.12	12	21.56	10	2.0	100	2.0	96	0	988.4	NA	0.0000		9999	1020	0	0	0
2019/03/16 11:08:00	BASE	18.61	10	21.56	10	2.0	100	2.0	105	0	988.4	NA	0.0000		9999	720	0	0	0
2019/03/16 11:09:00	BASE	17.78	11	21.56	10	2.1	100	2.1	112	0	988.5	NA	0.0000		9999	850	0	0	0
2019/03/16 11:10:00	BASE	17.94	11	21.56	10	2.1	100	2.1	119	0	988.5	NA	0.0000		9999	850	0	0	0
2019/03/16 11:11:00	BASE	18.58	10	21.56	10	2.1	100	2.1	122	0	988.5	NA	0.0000		9999	820	0	0	0
2019/03/16 11:12:00	BASE	18.65	9	21.56	10	2.2	100	2.2	120	0	988.4	NA	0.0000		9999	1020	0	0	0
2019/03/16 11:13:00	BASE	18.80	9	21.56	10	2.2	100	2.2	116	0	988.4	NA	0.0000		9999	1180	0	0	0
2019/03/16 11:14:00	BASE	19.15	9	21.56	10	2.3	100	2.3	103	0	988.4	NA	0.0000		9999	1210	0	0	0
2019/03/16 11:15:00	BASE	18.79	10	21.56	10	2.3	100	2.3	86	0	988.4	NA	0.0000		9999	980	0	0	0
2019/03/16 11:16:00	BASE	18.20	9	21.56	10	2.4	100	2.4	73	0	988.4	NA	0.0000		9999	1080	0	0	0
2019/03/16 11:17:00	BASE	18.58	9	20.94	9	2.4	100	2.4	66	0	988.3	NA	0.0000		9999	1080	0	0	0
2019/03/16 11:18:00	BASE	19.18	10	20.94	9	2.4	100	2.4	62	0	988.3	NA	0.0000		9999	1120	0	0	0
2019/03/16 11:19:00	BASE	18.54	8	20.94	9	2.4	100	2.4	59	0	988.3	NA	0.0000		9999	1050	0	0	0
2019/03/16 11:20:00	BASE	18.49	8	20.94	9	2.4	100	2.4	59	0	988.3	NA	0.0000		9999	1120	0	0	0
2019/03/16 11:21:00	BASE	19.09	9	20.94	9	2.5	100	2.5	66	0	988.3	NA	0.0000		9999	950	0	0	0
2019/03/16 11:22:00	BASE	18.89	9	20.94	9	2.5	100	2.5	70	0	988.2	NA	0.0000		9999	980	0	0	0
2019/03/16 11:23:00	BASE	18.65	10	20.94	9	2.4	100	2.4	75	0	988.2	NA	0.0000		9999	1020	0	0	0
2019/03/16 11:24:00	BASE	18.68	10	20.78	10	2.4	100	2.4	80	0	988.2	NA	0.0000		9999	950	0	0	0
2019/03/16 11:25:00	BASE	18.53	9	20.78	10	2.4	100	2.4	85	0	988.2	NA	0.0000		9999	890	0	0	0
2019/03/16 11:26:00	BASE	18.90	10	21.56	4	2.4	100	2.4	82	0	988.2	NA	0.0000		9999	950	0	0	0
2019/03/16 11:27:00	BASE	19.22	10	21.56	4	2.4	100	2.4	75	0	988.2	NA	0.0000		9999	850	0	0	0
2019/03/16 11:28:00	BASE	18.38	10	21.56	4	2.4	100	2.4	73	0	988.2	NA	0.0000		9999	790	0	0	0
2019/03/16 11:29:00	BASE	18.51	8	21.56	4	2.5	100	2.5	68	0	988.2	NA	0.0000		9999	690	0	0	0
2019/03/16 11:30:00	BASE	19.49	8	21.56	4	2.5	100	2.5	69	0	988.3	NA	0.0000		9999	490	0	0	0
2019/03/16 11:31:00	BASE	19.09	9	21.56	4	2.5	100	2.5	77	0	988.3	NA	0.0000	UP	9999	690	1570	0	0
2019/03/16 11:32:00	BASE	19.04	8	21.56	4	2.5	100	2.5	70	0	988.3	NA	0.0000	UP	9999	1570	0	0	0
2019/03/16 11:33:00	BASE	19.86	8	22.28	10	2.5	100	2.5	69	0	988.3	NA	0.0000	UP	9999	1050	0	0	0
2019/03/16 11:34:00	BASE	19.89	9	22.28	10	2.5	100	2.5	72	0	988.4	NA	0.0000	UP	9999	1210	0	0	0
2019/03/16 11:35:00	BASE	20.22	8	23.41	2	2.5	100	2.5	70	0	988.4	NA	0.0000	UP	9999	1020	1940	0	0
2019/03/16 11:36:00	BASE	20.26	7	23.41	2	2.5	100	2.5	67	0	988.4	NA	0.0000	UP	9999	1080	2070	0	0
2019/03/16 11:37:00	BASE	19.73	6	23.41	2	2.5	100	2.5	64	0	988.4	NA	0.0000	UP	9999	790	22250	0	0
2019/03/16 11:38:00	BASE	19.60	6	23.41	2	2.5	100	2.5	60	0	988.4	NA	0.0000	UP	9999	1050	0	0	0
2019/03/16 11:39:00	BASE	19.69	5	23.41	2	2.5	100	2.5	55	0	988.4	NA	0.0000	UP	9999	1020	0	0	0
2019/03/16 11:40:00	BASE	20.29	6	23.41	2	2.5	100	2.5	47	0	988.4	NA	0.0000	UP	9999	660	0	0	0
2019/03/16 11:41:00	BASE	20.94	7	23.41	2	2.5	100	2.5	42	0	988.3	NA	0.0000	UP	9999	490	1610	0	0
2019/03/16 11:42:00	BASE	20.93	6	23.41	2	2.5	100	2.5	37	0	988.4	NA	0.0000	UP	9999	560	1440	0	0
2019/03/16 11:43:00	BASE	19.83	6	23.41	2	2.5	100	2.5	33	0	988.4	NA	0.0000	UP	9999	560	0	0	0
2019/03/16 11:44:00	BASE	19.10	6	23.41	2	2.5	100	2.5	31	0	988.4	NA	0.0000	UP	9999	620	1380	0	0
2019/03/16 11:45:00	BASE	19.88	5	23.20	12	2.5	100	2.5	30	0	988.4	NA	0.0000	UP	9999	1310	0	0	0
2019/03/16 11:46:00	BASE	20.39	6	23.20	12	2.4	100	2.4	30	0	988.5	NA	0.0000	UP	9999	1210	0	0	0
2019/03/16 11:47:00	BASE	19.60	5	23.20	12	2.4	100	2.4	28	0	988.6	NA	0.0000	UP	9999	1250	0	0	0
2019/03/16 11:48:00	BASE	19.55	3	23.20	12	2.4	100	2.4	28	0	988.5	NA	0.0000	UP	9999	1150	0	0	0
2019/03/16 11:49:00	BASE	18.77	2	23.20	12	2.4	100	2.4	31	0	988.6	NA	0.0000	UP	9999	1310	0	0	0
2019/03/16 11:50:00	BASE	17.30	2	23.20	12	2.4	100	2.4	33	0	988.4	NA	0.0000	UP	9999	1540	0	0	0
2019/03/16 11:51:00	BASE	16.63	0	23.20	12	2.3	100	2.3	33	0	988.6	NA	0.0000	UP	9999	1410	2100	0	0
2019/03/16 11:52:00	BASE	15.33	354	23.00	3	2.3	100	2.3	34	0	988.6	NA	0.0000	UP	9999	1940	0	0	0
2019/03/16 11:53:00	BASE	14.34	353	23.00	3	2.3	100	2.3	37	0	988.7	NA	0.0000		9999	1770	0	0	0
2019/03/16 11:54:00	BASE	14.56	360	23.00	3	2.3	100	2.3	42	0	988.6	NA	0.0000		9999	1480	2360	0	0
2019/03/16 11:55:00	BASE	15.45	2	23.00	3	2.3	100	2.3	46	0	988.6	NA	0.0000		9999	1510	2360	0	0
2019/03/16 11:56:00	BASE	16.37	2	21.71	2	2.3	100	2.3	49	0	988.5	NA	0.0000		9999	2360	0	0	0
2019/03/16 11:57:00	BASE	17.23	3	21.71	2	2.3	100	2.3	52	0	988.6	NA	0.0000		9999	2360	3020	0	0
2019/03/16 11:58:00	BASE	16.71	2	19.60	8	2.3	100	2.3	54	0	988.6	NA	0.0000		9999	2400	0	0	0
2019/03/16 11:59:00	BASE	15.44	358	19.60	8	2.3	100	2.3	56	0	988.6	NA	0.0000		9999	2430	0	0	0
2019/03/16 12:00:00	BASE	15.65	359	18.67	3	2.3	100	2.3	58	0	988.5	NA	0.0000		9999	2560	0	0	0
2019/03/16 12:01:00	BASE	15.77	3	18.67	3	2.3	100	2.3	62	0	988.6	NA	0.0000		9999	2490	0	0	0
2019/03/16 12:02:00	BASE	15.37	2	18.67	3	2.3	100	2.3	64	0	988.6	NA	0.0000		9999	2490	0	0	0
2019/03/16 12:03:00	BASE	15.70	1	18.67	3	2.3	100	2.3	66	0	988.5	NA	0.0000		9999	2560	0	0	0
2019/03/16 12:04:00	BASE	15.74	360	18.67	3	2.3	100	2.3	68	0	988.5	NA	0.0000		9999	2590	0	0	0
2019/03/16 12:05:00	BASE	16.28	0	18.67	3	2.3	100	2.3	70	0	988.4	NA	0.0000		9999	2560	0	0	0
2019/03/16 12:06:00	BASE	16.72	2	18.67	3	2.3	100	2.3	70	0	988.5	NA	0.0000		9999	2690	0	0	0
2019/03/16 12:07:00	BASE	16.88	3	18.42	5	2.3	100	2.3	71	0	988.5	NA	0.0000		9999	2720	0	0	0
2019/03/16 12:08:00	BASE	16.88	4	18.42	5	2.4	100	2.4	73	0	988.5	NA	0.0000		9999	2720	0	0	0
2019/03/16 12:09:00	BASE	16.43	4	18.42	5	2.4	100	2.4	77	0	988.5	NA	0.0000		9999	2720	0	0	0
2019/03/16 12:10:00	BASE	16.32	7	18.42	5	2.4	100	2.4	83	0	988.5	NA	0.0000		9999	2790	0	0	0
2019/03/16 12:11:00	BASE	16.78	8	18.67	5	2.4	100	2.4	88	0	988.5	NA	0.0000		9999	2790	0	0	0
2019/03/16 12:12:00	BASE	16.82	8	18.67	5	2.4	100	2.4	93	0	988.5	NA	0.0000		9999	2820	7740	0	0
2019/03/16 12:13:00	BASE	16.82	13	18.83	10	2.4	100	2.4	96	0	988.4	NA	0.0000		9999	3310	7810	0	0
2019/03/16 12:14:00	BASE	17.43	15	19.03	10	2.4	100	2.4	99	0	988.3	NA	0.0000		9999	3410	0	0	0
2019/03/16 12:15:00	BASE	17.85	14	19.03	10	2.4	100	2.4	101	0	988.3	NA	0.0000		9999	3480	0	0	0
2019/03/16 12:16:00	BASE	17.50	12	19.03	10	2.4	100	2.4	101	0	988.3	NA	0.0000		9999	3640	0	0	0
2019/03/16 12:17:00	BASE	17.07	13	19.03	10	2.4	100	2.4	103	0	988.3	NA	0.0000		9999	3740	0	0	0
2019/03/16 12:18:00	BASE	17.23	16	19.03	10	2.4	100	2.4	107	0	988.3	NA	0.0000		9999	3740	0	0	0
2019/03/16 12:19:00	BASE	17.72	17	19.09	18	2.4	100	2.4	110	0	988.2	NA	0.0000		9999	3810	0	0	0
2019/03/16 12:20:00	BASE	18.31	19	19.24	20	2.4	100	2.4	114	0	988.2	NA	0.0000		9999	0	0	0	0
2019/03/16 12:21:00	BASE	18.53	22	19.39	22	2.4	100	2.4	117	0	988.2	NA	0.0000		9999	4920	0	0	0
2019/03/16 12:22:00	BASE	18.29	24	19.39	22	2.5	100	2.5	118	0	988.2	NA	0.0000		9999	4200	0	0	0
2019/03/16 12:23:00	BASE	17.68	25	19.39	22	2.5	100	2.5	120	0	988.2	NA	0.0000		9999	4790	0	0	0
2019/03/16 12:24:00	BASE	17.92	22	20.47	21	2.5	100	2.5	121	0	988.2	NA	0.0000		9999	4790	0	0	0
2019/03/16 12:25:00	BASE	18.91	22	20.47	21	2.5	100	2.5	118	0	988.2	NA	0.0000		9999	0	0	0	0
2019/03/16 12:26:00	BASE	19.39	23	20.99	20	2.6	100	2.6	116	0	988.2	NA	0.0000		9999	4530	0	0	0
2019/03/16 12:27:00	BASE	19.45	22	20.99	20	2.6	100	2.6	111	0	988.2	NA	0.0000		9999	8830	0	0	0
2019/03/16 12:28:00	BASE	19.57	21	20.99	20	2.6	100	2.6	103	0	988.2	NA	0.0000		9999	9290	0	0	0
2019/03/16 12:29:00	BASE	19.72	21	21.09	13	2.6	100	2.6	93	0	988.2	NA	0.0000		9999	4530	0	0	0
2019/03/16 12:30:00	BASE	20.02	22	21.09	13	2.7	100	2.7	83	0	988.2	NA	0.0000		9999	4200	0	0	0
2019/03/16 12:31:00	BASE	19.84	21	21.09	13	2.7	100	2.7	76	0	988.2	NA	0.0000		9999	4170	4720	0	0
2019/03/16 12:32:00	BASE	19.82	19	21.50	20	2.7	100	2.7	70	0	988.2	NA	0.0000		9999	4040	0	0	0
2019/03/16 12:33:00	BASE	20.13	17	21.81	16	2.7	100	2.7	65	0	988.2	NA	0.0000		9999	3810	0	0	0
2019/03/16 12:34:00	BASE	19.19	17	21.81	16	2.7	100	2.7	62	0	988.3	NA	0.0000		9999	3810	0	0	0
2019/03/16 12:35:00	BASE	18.58	17	21.81	16	2.7	100	2.7	59	0	988.3	NA	0.0000		9999	3810	0	0	0
2019/03/16 12:36:00	BASE	18.84	17	21.81	16	2.6	100	2.6	56	0	988.4	NA	0.0000		9999	3770	0	0	0
2019/03/16 12:37:00	BASE	19.28	18	21.81	16	2.6	100	2.6	54	0	988.4	NA	0.0000		9999	3770	0	0	0
2019/03/16 12:38:00	BASE	18.94	18	21.81	16	2.6	100	2.6	54	0	988.4	NA	0.0000		9999	3710	0	0	0
2019/03/16 12:39:00	BASE	18.39	15	21.81	16	2.7	100	2.7	55	0	988.4	NA	0.0000		9999	3640	0	0	0
2019/03/16 12:40:00	BASE	19.71	16	21.92	16	2.7	100	2.7	56	0	988.3	NA	0.0000		9999	3610	0	0	0
2019/03/16 12:41:00	BASE	20.57	16	21.92	16	2.8	100	2.8	57	0	988.3	NA	0.0000		9999	3540	0	0	0
2019/03/16 12:42:00	BASE	19.92	15	21.92	16	2.8	100	2.8	56	0	988.3	NA	0.0000		9999	3540	0	0	0
2019/03/16 12:43:00	BASE	19.18	15	21.92	16	2.8	100	2.8	56	0	988.4	NA	0.0000		9999	3640	0	0	0
2019/03/16 12:44:00	BASE	18.84	12	21.92	16	2.8	100	2.8	55	0	988.4	NA	0.0000		9999	3610	0	0	0
2019/03/16 12:45:00	BASE	19.01	11	21.92	16	2.9	100	2.9	53	0	988.1	NA	0.0000		9999	3510	0	0	0
2019/03/16 12:46:00	BASE	19.10	11	21.92	16	2.9	100	2.9	51	0	988.4	NA	0.0000		9999	3510	0	0	0
2019/03/16 12:47:00	BASE	19.14	9	21.92	16	2.9	100	2.9	49	0	988.4	NA	0.0000		9999	3410	0	0	0
2019/03/16 12:48:00	BASE	19.51	9	21.92	16	2.9	100	2.9	49	0	988.4	NA	0.0000		9999	3350	0	0	0
2019/03/16 12:49:00	BASE	19.13	11	21.92	16	3.0	99	2.9	49	0	988.4	NA	0.0000		9999	3280	0	0	0
2019/03/16 12:50:00	BASE	18.54	13	21.86	17	3.0	99	2.8	49	0	988.4	NA	0.0000		9999	3250	0	0	0
2019/03/16 12:51:00	BASE	18.38	16	21.14	11	3.0	98	2.7	50	0	988.4	NA	0.0000		9999	3610	0	0	0
2019/03/16 12:52:00	BASE	18.88	17	21.35	16	3.0	98	2.7	54	0	988.3	NA	0.0000		9999	3640	0	0	0
2019/03/16 12:53:00	BASE	19.81	17	21.35	16	3.0	97	2.6	61	0	988.3	NA	0.0000		9999	3740	0	0	0
2019/03/16 12:54:00	BASE	20.21	18	21.35	16	3.0	97	2.5	69	0	988.3	NA	0.0000		9999	3670	0	0	0
2019/03/16 12:55:00	BASE	20.98	19	22.43	18	2.9	97	2.5	72	0	988.2	NA	0.0000		9999	3740	0	0	0
2019/03/16 12:56:00	BASE	21.74	18	22.84	20	2.9	97	2.5	72	0	988.2	NA	0.0000		9999	3740	0	0	0
2019/03/16 12:57:00	BASE	21.94	18	23.41	16	3.0	97	2.5	70	0	988.2	NA	0.0000		9999	3870	0	0	0
2019/03/16 12:58:00	BASE	22.22	19	23.51	19	3.0	96	2.5	70	0	988.2	NA	0.0000		9999	3250	3710	0	0
2019/03/16 12:59:00	BASE	22.46	20	23.51	19	3.0	96	2.5	71	0	988.2	NA	0.0000		9999	3020	4000	0	0
2019/03/16 13:00:00	BASE	22.46	20	23.61	20	3.0	96	2.4	72	0	988.2	NA	0.0000		9999	3840	0	0	0
2019/03/16 13:01:00	BASE	22.39	20	24.38	23	3.1	96	2.5	74	0	988.2	NA	0.0000		9999	3610	0	0	0
2019/03/16 13:02:00	BASE	22.24	21	24.38	23	3.1	95	2.5	75	0	988.2	NA	0.0000		9999	4070	0	0	0
2019/03/16 13:03:00	BASE	21.97	22	24.38	23	3.2	95	2.5	75	0	988.2	NA	0.0000		9999	3900	0	0	0
2019/03/16 13:04:00	BASE	21.31	23	24.38	23	3.2	95	2.5	79	0	988.2	NA	0.0000		9999	3810	0	0	0
2019/03/16 13:05:00	BASE	20.60	26	24.38	23	3.2	96	2.5	85	0	988.2	NA	0.0000		9999	3940	0	0	0
2019/03/16 13:06:00	BASE	20.74	27	24.38	23	3.1	96	2.5	91	0	988.2	NA	0.0000		9999	3840	0	0	0
2019/03/16 13:07:00	BASE	20.02	27	24.38	23	3.1	96	2.6	95	0	988.2	NA	0.0000		9999	0	0	0	0
2019/03/16 13:08:00	BASE	19.96	27	24.38	23	3.1	96	2.6	98	0	988.1	NA	0.0000		9999	5710	0	0	0
2019/03/16 13:09:00	BASE	21.11	26	24.38	23	3.1	97	2.6	100	0	988.1	NA	0.0000		9999	7710	0	0	0
2019/03/16 13:10:00	BASE	20.89	25	24.38	23	3.1	97	2.6	102	0	988.1	NA	0.0000		9999	4860	0	0	0
2019/03/16 13:11:00	BASE	20.52	25	23.97	23	3.1	97	2.7	105	0	988.0	NA	0.0000		9999	4630	0	0	0
2019/03/16 13:12:00	BASE	20.27	25	23.87	22	3.1	97	2.7	108	0	988.1	NA	0.0000		9999	4530	20600	0	0
2019/03/16 13:13:00	BASE	20.40	25	23.87	22	3.1	97	2.7	109	0	988.0	NA	0.0000		9999	4400	0	0	0
2019/03/16 13:14:00	BASE	20.78	24	23.87	22	3.1	97	2.7	110	0	988.0	NA	0.0000		9999	5540	0	0	0
2019/03/16 13:15:00	BASE	19.99	24	23.87	22	3.2	97	2.7	111	0	988.0	NA	0.0000		9999	5180	0	0	0
2019/03/16 13:16:00	BASE	20.01	25	23.87	22	3.2	97	2.8	113	0	987.9	NA	0.0000		9999	5120	0	0	0
2019/03/16 13:17:00	BASE	21.27	24	25.05	19	3.2	97	2.8	114	0	987.9	NA	0.0000		9999	5510	0	0	0
2019/03/16 13:18:00	BASE	22.56	23	25.57	22	3.2	97	2.8	113	0	987.8	NA	0.0000		9999	5970	0	0	0
2019/03/16 13:19:00	BASE	23.78	23	26.03	24	3.3	97	2.8	112	0	987.7	NA	0.0000		9999	6560	0	0	0
2019/03/16 13:20:00	BASE	23.73	22	26.03	24	3.3	97	2.8	110	0	987.8	NA	0.0000		9999	6300	0	0	0
2019/03/16 13:21:00	BASE	23.48	21	26.03	24	3.3	96	2.8	109	0	987.8	NA	0.0000		9999	4690	0	0	0
2019/03/16 13:22:00	BASE	24.26	21	26.03	24	3.3	96	2.8	107	0	987.7	NA	0.0000		9999	4040	0	0	0
2019/03/16 13:23:00	BASE	24.72	20	26.08	18	3.3	96	2.7	105	0	987.8	NA	0.0000		9999	0	0	0	4950
2019/03/16 13:24:00	BASE	24.22	18	26.34	17	3.3	96	2.8	107	0	987.9	NA	0.0000		9999	0	0	0	3940
2019/03/16 13:25:00	BASE	24.01	18	26.34	17	3.2	97	2.8	113	0	987.9	NA	0.0000		9999	0	0	0	3710
2019/03/16 13:26:00	BASE	23.95	19	26.34	17	3.2	97	2.8	116	0	987.9	NA	0.0000	UP	9999	0	0	0	3310
2019/03/16 13:27:00	BASE	23.65	19	26.34	17	3.1	98	2.9	111	0	987.9	NA	0.0000	UP	9999	0	0	0	3900
2019/03/16 13:28:00	BASE	23.60	20	26.34	17	3.1	99	2.9	108	0	987.9	NA	0.0000	UP	9999	0	0	0	3480
2019/03/16 13:29:00	BASE	23.34	21	26.34	17	3.0	99	2.9	107	0	987.9	NA	0.0000	UP	9999	0	0	0	4130
2019/03/16 13:30:00	BASE	22.82	23	26.34	17	3.0	100	3.0	112	0	987.9	NA	0.0000	UP	9999	0	0	0	3410
2019/03/16 13:31:00	BASE	22.22	25	26.34	17	3.0	100	3.0	123	0	987.8	NA	0.0000	UP	9999	0	0	0	3080
2019/03/16 13:32:00	BASE	20.93	26	26.34	17	2.9	100	2.9	128	0	987.9	NA	0.0000	UP	9999	0	0	0	3710
2019/03/16 13:33:00	BASE	20.71	25	26.34	17	2.9	100	2.9	127	0	988.0	NA	0.0000	UP	9999	0	0	0	2790
2019/03/16 13:34:00	BASE	20.51	24	26.03	17	2.9	100	2.9	123	0	988.0	NA	0.0000	UP	9999	19820	21060	0	0
2019/03/16 13:35:00	BASE	19.28	25	25.36	26	2.9	100	2.9	121	0	988.0	NA	0.0000	UP	9999	0	0	0	3350
2019/03/16 13:36:00	BASE	20.70	24	25.36	26	2.9	100	2.9	121	0	987.9	NA	0.0000	UP	9999	0	0	0	3080
2019/03/16 13:37:00	BASE	21.93	25	25.36	26	2.9	100	2.9	116	0	987.9	NA	0.0000	UP	9999	0	0	0	3020
2019/03/16 13:38:00	BASE	21.44	27	25.36	26	2.9	100	2.9	109	0	987.9	NA	0.0000	UP	9999	0	0	0	2820
2019/03/16 13:39:00	BASE	21.13	27	25.21	27	2.9	100	2.9	103	0	988.0	NA	0.0000	UP	9999	0	0	0	3050
2019/03/16 13:40:00	BASE	21.09	23	24.85	28	2.9	100	2.9	96	0	988.0	NA	0.0000	UP	9999	0	0	0	5120
2019/03/16 13:41:00	BASE	22.51	20	25.00	16	2.9	100	2.9	88	0	987.9	NA	0.0000	UP	9999	2590	0	0	0
2019/03/16 13:42:00	BASE	23.52	20	25.00	20	2.8	100	2.8	83	0	987.9	NA	0.0000	UP	9999	0	0	0	3080
2019/03/16 13:43:00	BASE	23.29	19	25.00	20	2.8	100	2.8	88	0	987.9	NA	0.0000	UP	9999	0	0	0	2890
2019/03/16 13:44:00	BASE	22.31	19	25.00	20	2.8	100	2.8	88	0	987.9	NA	0.0000	UP	9999	0	0	0	3250
2019/03/16 13:45:00	BASE	22.00	21	25.00	20	2.8	100	2.8	88	0	987.9	NA	0.0000	UP	9999	0	0	0	3050
2019/03/16 13:46:00	BASE	23.29	21	26.08	20	2.8	100	2.8	85	0	987.9	NA	0.0000	UP	9999	0	0	0	3580
2019/03/16 13:47:00	BASE	23.77	21	26.08	20	2.8	100	2.8	84	0	987.8	NA	0.0000	UP	9999	0	0	0	3310
2019/03/16 13:48:00	BASE	23.73	23	26.08	20	2.8	100	2.8	82	0	987.8	NA	0.0000	UP	9999	0	0	0	3510
2019/03/16 13:49:00	BASE	23.72	22	26.08	20	2.8	100	2.8	80	0	987.8	NA	0.0000	UP	9999	0	0	0	3580
2019/03/16 13:50:00	BASE	22.99	23	26.08	20	2.8	100	2.8	78	0	987.8	NA	0.0000	UP	9999	0	0	0	3050
2019/03/16 13:51:00	BASE	23.03	23	26.49	24	2.8	100	2.8	78	0	987.8	NA	0.0000	UP	9999	0	0	0	2890
2019/03/16 13:52:00	BASE	23.15	23	26.49	24	2.8	100	2.8	78	0	987.8	NA	0.0000	UP	9999	0	0	0	2720
2019/03/16 13:53:00	BASE	22.28	25	26.49	24	2.8	100	2.8	79	0	987.8	NA	0.0000	UP	9999	0	0	0	2760
2019/03/16 13:54:00	BASE	21.49	24	26.49	24	2.8	100	2.8	81	0	987.8	NA	0.0000	UP	9999	0	0	0	2850
2019/03/16 13:55:00	BASE	21.23	22	26.49	24	2.8	100	2.8	84	0	987.8	NA	0.0000	UP	9999	0	0	0	3050
2019/03/16 13:56:00	BASE	21.74	22	26.49	24	2.8	100	2.8	88	0	987.7	NA	0.0000	UP	9999	0	0	0	3380
2019/03/16 13:57:00	BASE	21.98	23	26.49	24	2.7	100	2.7	92	0	987.7	NA	0.0000	UP	9999	0	0	0	3640
2019/03/16 13:58:00	BASE	22.18	23	26.49	24	2.7	100	2.7	93	0	987.7	NA	0.0000	UP	9999	0	0	0	3810
2019/03/16 13:59:00	BASE	22.70	24	26.49	24	2.7	100	2.7	95	0	987.7	NA	0.0000	UP	9999	0	0	0	3770
2019/03/16 14:00:00	BASE	22.17	24	26.49	24	2.7	100	2.7	98	0	987.7	NA	0.0000	UP	9999	21950	0	0	0
2019/03/16 14:01:00	BASE	21.87	23	25.67	26	2.7	100	2.7	102	0	987.7	NA	0.0000	UP	9999	0	0	0	3580
2019/03/16 14:02:00	BASE	22.88	23	25.67	26	2.7	100	2.7	106	0	987.6	NA	0.0000	UP	9999	0	0	0	3220
2019/03/16 14:03:00	BASE	23.57	24	25.88	22	2.7	100	2.7	106	0	987.6	NA	0.0000	UP	9999	0	0	0	2920
2019/03/16 14:04:00	BASE	23.14	24	25.88	22	2.7	100	2.7	104	0	987.7	NA	0.0000	UP	9999	0	0	0	2890
2019/03/16 14:05:00	BASE	22.69	23	25.93	20	2.8	100	2.8	102	0	987.7	NA	0.0000	UP	9999	0	0	0	3050
2019/03/16 14:06:00	BASE	22.67	21	25.93	20	2.8	100	2.8	103	0	987.7	NA	0.0000	UP	9999	0	0	0	2760
2019/03/16 14:07:00	BASE	22.40	22	25.93	20	2.8	100	2.8	107	0	987.7	NA	0.0000	UP	9999	20930	0	0	0
2019/03/16 14:08:00	BASE	22.00	21	25.93	20	2.8	100	2.8	116	0	987.7	NA	0.0000	UP	9999	0	0	0	3540
2019/03/16 14:09:00	BASE	22.40	20	25.93	20	2.8	100	2.8	127	0	987.6	NA	0.0000	UP	9999	0	0	0	3510
2019/03/16 14:10:00	BASE	22.67	19	25.93	20	2.8	100	2.8	137	0	987.6	NA	0.0000	UP	9999	0	0	0	3810
2019/03/16 14:11:00	BASE	23.13	20	26.13	25	2.8	100	2.8	142	0	987.5	NA	0.0000	UP	9999	0	0	0	3710
2019/03/16 14:12:00	BASE	24.23	21	27.47	20	2.8	100	2.8	145	0	987.5	NA	0.0000	UP	9999	0	0	0	3540
2019/03/16 14:13:00	BASE	25.16	21	27.47	20	2.8	100	2.8	145	0	987.4	NA	0.0000	UP	9999	0	0	0	3670
2019/03/16 14:14:00	BASE	25.33	21	27.47	20	2.8	100	2.8	144	0	987.4	NA	0.0000	UP	9999	0	0	0	4000
2019/03/16 14:15:00	BASE	24.49	21	27.47	20	2.8	100	2.8	147	0	987.5	NA	0.0000	UP	9999	0	0	0	4000
2019/03/16 14:16:00	BASE	23.91	21	27.47	20	2.8	100	2.8	151	0	987.5	NA	0.0000	UP	9999	0	0	0	3710
2019/03/16 14:17:00	BASE	24.98	21	28.76	17	2.8	100	2.8	158	0	987.4	NA	0.0000	UP	9999	0	0	0	3540
2019/03/16 14:18:00	BASE	26.04	21	28.76	17	2.8	100	2.8	166	0	987.4	NA	0.0000	UP	9000	0	0	0	3150
2019/03/16 14:19:00	BASE	24.37	22	28.76	17	2.8	100	2.8	173	0	987.5	NA	0.0000	UP	9000	0	0	0	2950
2019/03/16 14:20:00	BASE	24.00	21	28.76	17	2.8	100	2.8	177	0	987.3	NA	0.0000	UP	9999	0	0	0	3410
2019/03/16 14:21:00	BASE	25.04	20	28.76	17	2.8	100	2.8	166	0	987.3	NA	0.0000	UP	7000	0	0	0	3640
2019/03/16 14:22:00	BASE	24.74	20	28.76	17	2.8	100	2.8	162	0	987.3	NA	0.0000	UP	7000	0	0	0	3640
2019/03/16 14:23:00	BASE	25.44	20	28.76	17	2.8	100	2.8	162	0	987.2	NA	0.0000	UP BR	9000	0	0	0	3670
2019/03/16 14:24:00	BASE	26.23	21	28.76	17	2.8	100	2.8	158	0	987.2	NA	0.0000	UP BR	9000	0	0	0	3900
2019/03/16 14:25:00	BASE	26.05	22	28.76	17	2.8	100	2.8	150	0	987.2	NA	0.0000	UP BR	9000	21460	0	0	0
2019/03/16 14:26:00	BASE	26.09	22	28.76	17	2.8	100	2.8	144	0	987.1	NA	0.0000	UP BR	9000	4760	5280	0	0
2019/03/16 14:27:00	BASE	26.13	22	28.60	19	2.8	100	2.8	136	0	987.1	NA	0.0000	UP BR	9999	5180	0	0	0
2019/03/16 14:28:00	BASE	26.33	23	28.60	19	2.8	100	2.8	125	0	987.1	NA	0.0000	UP BR	9999	5150	0	0	0
2019/03/16 14:29:00	BASE	26.31	21	28.60	19	2.8	100	2.8	119	0	987.1	NA	0.0000	UP BR	9999	0	0	0	3670
2019/03/16 14:30:00	BASE	25.96	20	28.60	19	2.8	100	2.8	115	0	987.1	NA	0.0000	UP BR	9999	4720	0	0	0
2019/03/16 14:31:00	BASE	25.74	21	28.60	19	2.8	100	2.8	109	0	987.1	NA	0.0000	UP	9999	0	0	0	6270
2019/03/16 14:32:00	BASE	25.71	21	28.60	19	2.8	100	2.8	103	0	987.0	NA	0.0000	UP	9999	0	0	0	5770
2019/03/16 14:33:00	BASE	25.35	21	28.24	22	2.8	100	2.8	100	0	987.1	NA	0.0000	UP	9999	0	0	0	5640
2019/03/16 14:34:00	BASE	24.83	21	28.19	22	2.8	100	2.8	99	0	987.0	NA	0.0000	UP	9999	1150	0	0	0
2019/03/16 14:35:00	BASE	24.21	22	28.19	22	2.8	100	2.8	98	0	987.1	NA	0.0000	UP	9999	5410	0	0	0
2019/03/16 14:36:00	BASE	24.75	23	28.50	18	2.8	100	2.8	96	0	987.0	NA	0.0000	UP	9999	0	0	0	460
2019/03/16 14:37:00	BASE	26.69	23	28.50	18	2.8	100	2.8	95	0	987.0	NA	0.0000	UP	9999	0	0	0	460
2019/03/16 14:38:00	BASE	26.52	21	28.50	18	2.8	100	2.8	97	0	987.0	NA	0.0000	UP	9999	0	0	0	430
2019/03/16 14:39:00	BASE	25.90	20	28.60	21	2.8	100	2.8	104	0	987.0	NA	0.0000	UP	9999	0	0	0	5480
2019/03/16 14:40:00	BASE	26.98	22	29.07	21	2.8	100	2.8	114	0	986.9	NA	0.0000	UP	9999	0	0	0	5940
2019/03/16 14:41:00	BASE	27.37	23	29.07	21	2.8	100	2.8	121	0	986.9	NA	0.0000	UP	9999	0	0	0	5940
2019/03/16 14:42:00	BASE	27.13	23	29.63	23	2.8	100	2.8	123	0	986.8	NA	0.0000	UP	9999	0	0	0	5770
2019/03/16 14:43:00	BASE	27.88	21	30.51	26	2.9	100	2.9	124	0	986.7	NA	0.0000	UP	9999	0	0	0	5710
2019/03/16 14:44:00	BASE	28.26	21	30.66	24	2.9	100	2.9	127	0	986.7	NA	0.0000	UP	9999	0	0	0	5410
2019/03/16 14:45:00	BASE	27.64	22	30.66	24	2.9	100	2.9	131	0	986.7	NA	0.0000	UP	9999	0	0	0	5250
2019/03/16 14:46:00	BASE	27.49	23	30.66	24	3.0	100	2.9	136	0	986.7	NA	0.0000	UP	9999	21520	0	0	0
2019/03/16 14:47:00	BASE	27.64	22	30.66	24	3.0	100	3.0	139	0	986.7	NA	0.0000	UP	9999	0	0	0	5380
2019/03/16 14:48:00	BASE	27.49	22	30.66	24	3.0	100	3.0	139	0	986.7	NA	0.0000	UP	9999	0	0	0	5410
2019/03/16 14:49:00	BASE	27.21	23	30.66	22	3.0	100	3.0	139	0	986.7	NA	0.0000	UP	9999	0	0	0	5350
2019/03/16 14:50:00	BASE	27.30	23	30.92	26	3.0	100	3.0	140	0	986.8	NA	0.0000	UP	9999	0	0	0	5480
2019/03/16 14:51:00	BASE	27.47	24	31.43	27	3.0	100	3.0	135	0	986.8	NA	0.0000	UP	9999	0	0	0	5280
2019/03/16 14:52:00	BASE	27.86	25	31.54	26	3.0	100	3.0	129	0	986.7	NA	0.0000	UP	9999	0	0	0	5710
2019/03/16 14:53:00	BASE	28.25	24	31.54	26	3.1	100	3.1	126	0	986.7	NA	0.0000	UP	9999	22640	0	0	0
2019/03/16 14:54:00	BASE	27.77	23	31.54	26	3.1	100	3.1	127	0	986.8	NA	0.0000	UP	9999	0	0	0	4630
2019/03/16 14:55:00	BASE	28.17	23	31.54	26	3.1	100	3.1	132	0	986.7	NA	0.0000	UP	9999	0	0	0	4760
2019/03/16 14:56:00	BASE	27.62	22	31.54	26	3.1	100	3.1	136	0	986.8	NA	0.0000	UP	9999	0	0	0	4490
2019/03/16 14:57:00	BASE	26.81	22	31.54	26	3.1	100	3.1	139	0	986.8	NA	0.0000	UP	9999	0	0	0	4530
2019/03/16 14:58:00	BASE	27.19	22	31.54	26	3.1	100	3.1	139	0	986.8	NA	0.0000	UP	9999	0	0	0	5810
2019/03/16 14:59:00	BASE	26.34	22	31.54	26	3.1	100	3.1	138	0	986.9	NA	0.0000	UP	9999	0	0	0	5320
2019/03/16 15:00:00	BASE	26.40	22	31.54	26	3.1	100	3.1	137	0	986.9	NA	0.0000	UP	9999	0	0	0	4690
2019/03/16 15:01:00	BASE	26.90	22	31.54	26	3.1	100	3.1	137	0	986.9	NA	0.0000	UP	9999	0	0	0	5350
2019/03/16 15:02:00	BASE	26.39	22	31.38	22	3.1	100	3.1	141	0	986.9	NA	0.0000	UP	9999	0	0	0	3870
2019/03/16 15:03:00	BASE	25.51	22	30.46	25	3.1	100	3.1	144	0	987.0	NA	0.0000	UP	9999	0	0	0	3840
2019/03/16 15:04:00	BASE	24.09	24	30.46	25	3.1	100	3.1	144	0	987.0	NA	0.0000	UP	9999	0	0	0	3670
2019/03/16 15:05:00	BASE	24.69	24	29.79	24	3.1	100	3.1	139	0	987.0	NA	0.0000	UP	9999	0	0	0	3580
2019/03/16 15:06:00	BASE	24.62	24	29.79	24	3.0	100	3.0	134	0	987.1	NA	0.0000	UP	9999	0	0	0	3080
2019/03/16 15:07:00	BASE	24.09	26	28.96	23	3.0	100	3.0	130	0	987.0	NA	0.0000	UP	9999	0	0	0	3310
2019/03/16 15:08:00	BASE	25.44	26	29.07	23	3.0	100	3.0	127	0	987.0	NA	0.2540	UP	9999	890	0	0	0
2019/03/16 15:09:00	BASE	26.22	25	30.61	24	3.0	100	3.0	125	0	986.9	NA	0.0000	UP	9999	0	0	0	3670
2019/03/16 15:10:00	BASE	26.25	24	30.61	24	3.1	100	3.1	126	0	987.0	NA	0.0000	UP	9999	0	0	0	4330
2019/03/16 15:11:00	BASE	26.40	24	30.61	24	3.1	100	3.1	132	0	986.9	NA	0.0000	UP	9999	0	0	0	4330
2019/03/16 15:12:00	BASE	25.70	24	30.61	24	3.1	100	3.1	140	0	987.0	NA	0.0000	UP	9999	0	0	0	4200
2019/03/16 15:13:00	BASE	24.47	24	30.61	24	3.1	100	3.1	147	0	987.0	NA	0.0000	UP	9000	0	0	0	4040
2019/03/16 15:14:00	BASE	25.12	24	30.61	24	3.1	100	3.1	155	0	986.9	NA	0.0000	UP	6000	0	0	0	3970
2019/03/16 15:15:00	BASE	24.79	24	30.61	24	3.1	100	3.1	158	0	987.0	NA	0.0000	UP BR	5000	22470	0	0	0
2019/03/16 15:16:00	BASE	23.81	23	30.61	24	3.1	100	3.1	157	0	987.0	NA	0.0000	UP BR	7000	0	0	0	3970
2019/03/16 15:17:00	BASE	24.07	22	30.61	24	3.1	100	3.1	153	0	986.9	NA	0.0000	UP BR	8000	0	0	0	3670
2019/03/16 15:18:00	BASE	24.29	22	30.61	24	3.0	100	3.0	146	0	986.9	NA	0.0000	UP BR	8000	0	0	0	3900
2019/03/16 15:19:00	BASE	25.36	22	29.63	19	3.1	100	3.1	138	0	986.9	NA	0.0000	UP BR	8000	0	0	0	3540
2019/03/16 15:20:00	BASE	25.26	21	29.63	19	3.1	100	3.1	132	0	986.9	NA	0.0000	UP BR	8000	0	0	0	3480
2019/03/16 15:21:00	BASE	25.00	20	27.83	15	3.1	100	3.1	140	0	986.8	NA	0.0000	UP BR	8000	0	0	0	3250
2019/03/16 15:22:00	BASE	24.11	18	27.83	15	3.1	100	3.1	146	0	986.9	NA	0.0000	UP BR	8000	850	0	0	0
2019/03/16 15:23:00	BASE	23.33	17	27.83	15	3.1	100	3.1	152	0	986.8	NA	0.0000	UP BR	8000	820	0	0	0
2019/03/16 15:24:00	BASE	24.45	18	27.83	15	3.1	100	3.1	162	0	986.8	NA	0.0000	UP BR	8000	0	0	0	3710
2019/03/16 15:25:00	BASE	24.49	18	27.83	15	3.1	100	3.1	178	0	986.9	NA	0.0000	UP BR	7000	0	0	0	3350
2019/03/16 15:26:00	BASE	24.48	19	28.60	8	3.1	100	3.1	184	0	986.8	NA	0.0000	UP BR	5000	0	0	0	3450
2019/03/16 15:27:00	BASE	24.89	18	28.60	8	3.1	100	3.1	189	0	986.7	NA	0.0000	UP BR	6000	0	0	0	3250
2019/03/16 15:28:00	BASE	25.53	16	28.60	8	3.1	100	3.1	197	0	986.7	NA	0.0000	UP BR	8000	0	0	0	3180
2019/03/16 15:29:00	BASE	25.49	19	28.60	8	3.1	100	3.1	210	0	986.7	NA	0.0000	UP BR	8000	0	0	0	3250
2019/03/16 15:30:00	BASE	26.23	21	29.17	19	3.1	100	3.1	219	0	986.6	NA	0.0000	UP BR	9000	0	0	0	4130
2019/03/16 15:31:00	BASE	27.69	21	30.25	21	3.1	100	3.1	223	0	986.5	NA	0.0000	UP BR	9999	0	0	0	4040
2019/03/16 15:32:00	BASE	28.37	22	32.56	17	3.1	100	3.1	219	0	986.4	NA	0.0000	UP BR	9999	0	0	0	4130
2019/03/16 15:33:00	BASE	29.06	22	32.56	17	3.2	100	3.2	212	0	986.4	NA	0.0000	UP BR	9999	0	0	0	4490
2019/03/16 15:34:00	BASE	28.63	21	32.56	17	3.2	100	3.2	206	0	986.4	NA	0.0000	UP BR	9999	0	0	0	3810
2019/03/16 15:35:00	BASE	28.10	21	32.56	17	3.2	100	3.2	213	0	986.4	NA	0.0000	UP BR	9999	18500	22110	0	0
2019/03/16 15:36:00	BASE	28.56	22	32.56	17	3.2	100	3.2	214	0	986.4	NA	0.0000	UP BR	9999	19390	0	0	0
2019/03/16 15:37:00	BASE	29.40	21	32.56	17	3.2	100	3.2	203	0	986.3	NA	0.0000	UP BR	9999	0	0	0	3940
2019/03/16 15:38:00	BASE	29.40	20	32.56	17	3.2	100	3.2	191	0	986.4	NA	0.0000	UP BR	9999	0	0	0	4590
2019/03/16 15:39:00	BASE	28.32	19	32.56	17	3.2	100	3.2	187	0	986.4	NA	0.0000	UP BR	9999	0	0	0	4590
2019/03/16 15:40:00	BASE	28.00	19	32.56	17	3.2	100	3.2	183	0	986.4	NA	0.0000	BR	9999	0	0	0	3350
2019/03/16 15:41:00	BASE	28.47	18	32.56	17	3.2	100	3.2	174	0	986.4	NA	0.0000	BR	9999	0	0	0	3180
2019/03/16 15:42:00	BASE	28.69	20	31.90	22	3.2	100	3.2	163	0	986.5	NA	0.0000	BR	9999	0	0	0	3670
2019/03/16 15:43:00	BASE	27.83	21	31.90	22	3.1	100	3.1	149	0	986.5	NA	0.0000	BR	9999	0	0	0	3810
2019/03/16 15:44:00	BASE	28.45	20	31.90	22	3.1	100	3.1	135	0	986.4	NA	0.0000	BR	8000	0	0	0	3670
2019/03/16 15:45:00	BASE	28.67	20	31.90	22	3.1	100	3.1	123	0	986.5	NA	0.0000	-SN BR	5000	0	0	0	3020
2019/03/16 15:46:00	BASE	27.35	20	31.90	22	3.1	100	3.1	122	0	986.5	NA	0.0000	-SN BR	5000	0	0	0	2720
2019/03/16 15:47:00	BASE	26.70	19	31.59	22	3.1	100	3.1	119	0	986.5	NA	0.0000	-SN BR	6000	0	0	0	2990
2019/03/16 15:48:00	BASE	26.88	20	31.59	22	3.1	100	3.1	111	0	986.5	NA	0.0000	-SN BR	7000	0	0	0	2920
2019/03/16 15:49:00	BASE	28.11	21	31.59	22	3.1	100	3.1	101	0	986.5	NA	0.0000	-SN BR	9000	0	0	0	3120
2019/03/16 15:50:00	BASE	27.57	19	31.59	22	3.0	100	3.0	98	0	986.6	NA	0.0000	-SN BR	9999	0	0	0	2890
2019/03/16 15:51:00	BASE	25.38	18	31.59	22	3.0	100	3.0	88	0	986.6	NA	0.0000	-SN BR	9999	0	0	0	3380
2019/03/16 15:52:00	BASE	26.03	19	31.59	22	3.0	100	3.0	80	0	986.5	NA	0.0000	-SN BR	7000	0	0	0	2950
2019/03/16 15:53:00	BASE	27.02	21	31.59	22	2.9	100	2.9	88	0	986.5	NA	0.0000	-SN BR	5000	360	0	0	0
2019/03/16 15:54:00	BASE	27.47	22	30.51	26	2.9	100	2.9	97	0	986.5	NA	0.2540	-SN BR	4500	0	0	0	2660
2019/03/16 15:55:00	BASE	28.54	23	30.46	21	2.9	100	2.9	94	0	986.5	NA	0.0000	-SN BR	3800	0	0	0	3280
2019/03/16 15:56:00	BASE	28.26	23	30.46	21	2.8	100	2.8	92	0	986.4	NA	0.0000	-SN BR	3000	0	0	0	2720
2019/03/16 15:57:00	BASE	29.09	22	32.20	23	2.8	100	2.8	95	0	986.3	NA	0.0000	-SN BR	3700	0	0	0	2690
2019/03/16 15:58:00	BASE	29.08	22	32.20	23	2.8	100	2.8	107	0	986.3	NA	0.0000	-SN BR	2800	0	0	0	2760
2019/03/16 15:59:00	BASE	28.71	22	32.20	23	2.8	100	2.8	113	0	986.2	NA	0.0000	-SN BR	2700	0	0	0	2850
2019/03/16 16:00:00	BASE	30.02	23	32.46	22	2.8	100	2.8	113	0	986.1	NA	0.0000	-SN BR	2400	0	0	0	3670
2019/03/16 16:01:00	BASE	30.90	24	34.16	24	2.7	100	2.7	111	0	986.1	NA	0.0000	-SN BR	3300	0	0	0	3710
2019/03/16 16:02:00	BASE	30.67	23	34.16	24	2.7	100	2.7	98	0	986.1	NA	0.0000	-SN BR	3800	0	0	0	3810
2019/03/16 16:03:00	BASE	30.52	23	34.16	24	2.7	100	2.7	84	0	986.2	NA	0.0000	-SN BR	3600	0	0	0	3580
2019/03/16 16:04:00	BASE	30.24	23	34.16	24	2.7	100	2.7	87	0	986.2	NA	0.2540	-SN BR	2900	330	0	0	0
2019/03/16 16:05:00	BASE	30.33	23	34.16	24	2.7	100	2.7	90	0	986.1	NA	0.0000	-SN BR	2400	300	0	0	0
2019/03/16 16:06:00	BASE	30.12	24	34.16	24	2.7	100	2.7	88	0	986.2	NA	0.0000	-SN BR	2300	330	0	0	0
2019/03/16 16:07:00	BASE	28.59	25	34.16	24	2.7	100	2.7	91	0	986.3	NA	0.0000	-SN BR	3400	330	0	0	0
2019/03/16 16:08:00	BASE	28.23	26	34.16	24	2.7	100	2.7	95	0	986.3	NA	0.0000	-SN BR	4700	360	0	0	0
2019/03/16 16:09:00	BASE	27.73	25	34.16	24	2.7	100	2.7	110	0	986.2	NA	0.0000	-SN BR	3800	330	0	0	0
2019/03/16 16:10:00	BASE	27.47	24	34.16	24	2.7	100	2.7	133	0	986.2	NA	0.0000	-SN BR	4800	360	0	0	0
2019/03/16 16:11:00	BASE	27.52	25	33.39	16	2.7	100	2.7	149	0	986.3	NA	0.0000	-SN BR	6000	0	0	0	3580
2019/03/16 16:12:00	BASE	27.90	25	33.39	16	2.7	100	2.7	158	0	986.2	NA	0.0000	-SN BR	5000	0	0	0	3870
2019/03/16 16:13:00	BASE	29.53	24	33.39	16	2.7	100	2.7	160	0	986.1	NA	0.0000	-SN BR	3000	0	0	0	4270
2019/03/16 16:14:00	BASE	30.11	23	33.39	16	2.8	100	2.8	160	0	986.1	NA	0.0000	-SN BR	4200	0	0	0	4100
2019/03/16 16:15:00	BASE	29.89	23	32.15	21	2.8	100	2.8	159	0	986.1	NA	0.2540	-SN BR	5000	0	0	0	5450
2019/03/16 16:16:00	BASE	28.97	23	32.15	21	2.8	100	2.8	153	0	986.2	NA	0.0000	-SN BR	5000	0	0	0	4200
2019/03/16 16:17:00	BASE	28.73	24	32.15	21	2.8	100	2.8	150	0	986.2	NA	0.0000	-SN BR	4400	0	0	0	4560
2019/03/16 16:18:00	BASE	29.48	24	32.15	21	2.8	100	2.8	148	0	986.2	NA	0.0000	-SN BR	4600	360	0	0	0
2019/03/16 16:19:00	BASE	29.36	24	32.15	32	2.8	100	2.8	155	0	986.2	NA	0.0000	-SN BR	4500	360	0	0	0
2019/03/16 16:20:00	BASE	28.13	25	32.15	32	2.8	100	2.8	172	0	986.2	NA	0.0000	-SN BR	6000	390	0	0	0
2019/03/16 16:21:00	BASE	27.89	26	32.15	32	2.7	100	2.7	181	0	986.1	NA	0.0000	-SN BR	9999	430	0	0	0
2019/03/16 16:22:00	BASE	27.63	26	32.15	32	2.7	100	2.7	192	0	986.2	NA	0.0000	-SN BR	9999	430	0	0	0
2019/03/16 16:23:00	BASE	26.90	27	32.15	32	2.7	100	2.7	206	0	986.1	NA	0.0000	-SN BR	9999	430	0	0	0
2019/03/16 16:24:00	BASE	26.67	27	32.15	32	2.7	100	2.7	201	0	986.1	NA	0.0000	-SN BR	9999	0	0	0	4230
2019/03/16 16:25:00	BASE	26.75	26	32.15	32	2.7	100	2.7	195	0	986.1	NA	0.0000	-SN BR	9999	0	0	0	4360
2019/03/16 16:26:00	BASE	26.94	25	32.15	32	2.7	100	2.7	182	0	986.2	NA	0.0000	-SN BR	9999	390	3220	0	0
2019/03/16 16:27:00	BASE	26.96	23	32.15	32	2.8	100	2.8	175	0	986.2	NA	0.0000	-SN BR	9999	2430	0	0	0
2019/03/16 16:28:00	BASE	26.62	23	32.15	32	2.8	100	2.8	165	0	986.2	NA	0.0000	-SN	9999	1940	0	0	0
2019/03/16 16:29:00	BASE	27.67	23	32.20	20	2.8	100	2.8	146	0	986.1	NA	0.0000	-SN	9999	390	0	0	0
2019/03/16 16:30:00	BASE	28.98	23	32.20	20	2.8	100	2.8	125	0	986.2	NA	0.0000	-SN	5000	330	1480	0	0
2019/03/16 16:31:00	BASE	28.81	22	32.20	20	2.8	100	2.8	121	0	986.2	NA	0.0000	-SN BR	2400	330	0	0	0
2019/03/16 16:32:00	BASE	29.31	22	32.20	20	2.8	100	2.8	149	0	986.1	NA	0.2540	-SN BR	2000	330	2170	0	0
2019/03/16 16:33:00	BASE	28.43	22	32.20	20	2.8	100	2.8	173	0	986.2	NA	0.0000	-SN BR	2400	330	23130	0	0
2019/03/16 16:34:00	BASE	26.46	22	32.20	20	2.8	100	2.8	198	0	986.3	NA	0.0000	-SN BR	2400	330	2360	0	0
2019/03/16 16:35:00	BASE	25.92	23	32.20	20	2.8	100	2.8	216	0	986.2	NA	0.0000	-SN BR	3000	360	0	0	0
2019/03/16 16:36:00	BASE	27.21	22	32.20	20	2.8	100	2.8	218	0	986.1	NA	0.0000	-SN BR	7000	1770	0	0	0
2019/03/16 16:37:00	BASE	28.03	24	32.20	20	2.8	100	2.8	211	0	986.1	NA	0.0000	-SN BR	6000	2260	0	0	0
2019/03/16 16:38:00	BASE	27.59	25	32.20	20	2.8	100	2.8	186	0	986.0	NA	0.0000	-SN BR	9000	2230	0	0	0
2019/03/16 16:39:00	BASE	27.31	21	31.79	24	2.8	100	2.8	162	0	986.1	NA	0.0000	-SN BR	9999	430	0	0	0
2019/03/16 16:40:00	BASE	27.44	21	31.79	24	2.8	100	2.8	135	0	986.1	NA	0.0000	-SN BR	9999	0	0	0	3640
2019/03/16 16:41:00	BASE	27.09	25	30.92	25	2.9	100	2.9	130	0	986.0	NA	0.0000	-SN BR	4600	300	1510	0	0
2019/03/16 16:42:00	BASE	27.67	24	32.20	21	2.9	100	2.9	143	0	985.9	NA	0.0000	-SN BR	2500	300	0	0	0
2019/03/16 16:43:00	BASE	28.75	21	32.20	21	3.0	100	3.0	170	0	985.9	NA	0.0000	-SN BR	2600	330	0	0	0
2019/03/16 16:44:00	BASE	29.05	21	32.20	21	3.0	100	3.0	189	0	985.7	NA	0.2540	-SN BR	2900	4530	0	0	0
2019/03/16 16:45:00	BASE	28.17	24	32.20	21	3.0	100	3.0	199	0	985.8	NA	0.0000	-SN BR	4700	360	4560	0	0
2019/03/16 16:46:00	BASE	27.80	27	32.98	22	3.0	100	3.0	215	0	985.7	NA	0.0000	-SN BR	9999	660	0	0	0
2019/03/16 16:47:00	BASE	27.92	25	32.98	22	3.0	100	3.0	227	0	985.8	NA	0.0000	-SN BR	9999	4860	22570	0	0
2019/03/16 16:48:00	BASE	26.88	24	32.98	22	3.0	100	3.0	229	0	985.8	NA	0.0000	-SN BR	9999	4860	0	0	0
2019/03/16 16:49:00	BASE	28.01	23	32.98	22	3.1	100	3.1	224	0	985.7	NA	0.0000	-SN BR	9999	4790	0	0	0
2019/03/16 16:50:00	BASE	29.00	22	32.98	22	3.1	100	3.1	218	0	985.7	NA	0.0000	-SN BR	9999	4460	4920	0	0
2019/03/16 16:51:00	BASE	28.75	24	32.98	22	3.2	100	3.2	210	0	985.7	NA	0.0000	-SN BR	9999	4300	4860	0	0
2019/03/16 16:52:00	BASE	29.84	25	33.34	26	3.2	100	3.2	200	0	985.6	NA	0.0000	-SN BR	9999	4400	4890	0	0
2019/03/16 16:53:00	BASE	30.68	24	34.72	23	3.3	100	3.3	203	0	985.5	NA	0.0000	-SN BR	9999	4530	0	0	0
2019/03/16 16:54:00	BASE	31.32	22	34.72	23	3.3	100	3.3	200	0	985.5	NA	0.0000	-SN	9999	4590	4950	0	0
2019/03/16 16:55:00	BASE	30.93	23	34.72	23	3.3	100	3.3	200	0	985.5	NA	0.0000	-SN	9999	5050	0	0	0
2019/03/16 16:56:00	BASE	30.69	24	34.72	23	3.3	100	3.3	197	0	985.5	NA	0.0000		9999	5090	0	0	0
2019/03/16 16:57:00	BASE	31.50	22	34.72	23	3.3	100	3.3	181	0	985.5	NA	0.0000		9999	2530	5250	0	0
2019/03/16 16:58:00	BASE	31.36	22	34.72	23	3.3	100	3.3	171	0	985.6	NA	0.0000		9999	2360	0	0	0
2019/03/16 16:59:00	BASE	31.50	21	34.72	23	3.3	100	3.3	169	0	985.6	NA	0.0000		9999	2170	0	0	0
2019/03/16 17:00:00	BASE	30.78	19	34.72	23	3.3	100	3.3	161	0	985.6	NA	0.0000		9999	1800	2360	0	0
2019/03/16 17:01:00	BASE	29.43	17	34.72	23	3.3	100	3.3	150	0	985.8	NA	0.0000		9999	0	0	0	4170
2019/03/16 17:02:00	BASE	28.51	15	34.72	23	3.2	100	3.2	122	0	985.8	NA	0.0000		9999	1570	2660	0	0
2019/03/16 17:03:00	BASE	28.53	15	34.36	18	3.2	100	3.2	102	0	985.7	NA	0.0000		9999	1350	0	0	0
2019/03/16 17:04:00	BASE	29.11	16	34.00	23	3.2	100	3.2	101	0	985.7	NA	0.0000		9999	1610	0	0	0
2019/03/16 17:05:00	BASE	28.42	17	34.00	23	3.2	100	3.2	105	0	985.7	NA	0.0000		9999	360	0	0	0
2019/03/16 17:06:00	BASE	28.85	17	34.00	23	3.2	100	3.2	107	0	985.7	NA	0.0000		9999	360	0	0	0
2019/03/16 17:07:00	BASE	29.35	17	34.00	23	3.1	100	3.1	109	0	985.7	NA	0.0000	-SN	9999	3740	0	0	0
2019/03/16 17:08:00	BASE	28.47	16	33.23	19	3.1	100	3.1	111	0	985.7	NA	0.0000	-SN	9999	1350	3900	0	0
2019/03/16 17:09:00	BASE	27.88	15	32.26	15	3.1	100	3.1	121	0	985.7	NA	0.0000	-SN	9999	1210	0	0	0
2019/03/16 17:10:00	BASE	28.16	15	32.26	15	3.1	100	3.1	137	0	985.7	NA	0.0000	-SN	9999	390	0	0	0
2019/03/16 17:11:00	BASE	28.87	17	32.51	24	3.1	100	3.1	140	0	985.6	NA	0.0000	-SN	9999	360	1510	0	0
2019/03/16 17:12:00	BASE	29.00	17	32.51	24	3.1	100	3.1	142	0	985.7	NA	0.0000	-SN	4500	390	1610	0	0
2019/03/16 17:13:00	BASE	28.26	16	32.51	24	3.1	100	3.1	147	0	985.7	NA	0.0000	-SN BR	3600	23750	0	0	0
2019/03/16 17:14:00	BASE	26.56	16	32.51	24	3.1	100	3.1	146	0	985.7	NA	0.0000	-SN BR	3600	0	0	0	4530
2019/03/16 17:15:00	BASE	26.56	14	32.51	24	3.1	100	3.1	142	0	985.7	NA	0.0000	-SN BR	4500	0	0	0	4690
2019/03/16 17:16:00	BASE	26.78	14	32.51	24	3.0	100	3.0	140	0	985.7	NA	0.0000	-SN BR	2700	0	0	0	4790
2019/03/16 17:17:00	BASE	26.50	15	32.51	24	3.0	100	3.0	148	0	985.7	NA	0.0000	-SN BR	3000	0	0	0	4130
2019/03/16 17:18:00	BASE	27.10	14	32.51	24	3.0	100	3.0	147	0	985.6	NA	0.0000	-SN BR	7000	1120	0	0	0
2019/03/16 17:19:00	BASE	27.01	14	32.51	24	3.0	100	3.0	138	0	985.6	NA	0.0000	-SN BR	9999	0	0	0	5320
2019/03/16 17:20:00	BASE	28.16	18	32.51	24	3.0	100	3.0	117	0	985.4	NA	0.0000	-SN BR	4200	0	0	0	4130
2019/03/16 17:21:00	BASE	29.47	20	31.38	17	3.0	100	3.0	116	0	985.4	NA	0.0000	-SN BR	6000	490	0	0	0
2019/03/16 17:22:00	BASE	29.28	19	31.38	17	3.0	100	3.0	121	0	985.5	NA	0.0000	-SN BR	9999	0	0	0	3020
2019/03/16 17:23:00	BASE	29.46	18	32.10	12	3.0	100	3.0	111	0	985.3	NA	0.0000	-SN BR	9999	360	1350	0	0
2019/03/16 17:24:00	BASE	29.43	19	32.10	12	3.0	100	3.0	105	0	985.3	NA	0.0000	-SN BR	9000	0	0	0	3740
2019/03/16 17:25:00	BASE	29.93	21	33.39	21	3.0	100	3.0	105	0	985.2	NA	0.0000	-SN BR	5000	330	0	0	0
2019/03/16 17:26:00	BASE	30.34	20	33.39	21	3.0	100	3.0	94	0	985.2	NA	0.0000	-SN BR	2900	300	0	0	0
2019/03/16 17:27:00	BASE	30.58	20	33.49	21	3.0	100	3.0	82	0	985.1	NA	0.0000	-SN BR	3200	330	0	0	0
2019/03/16 17:28:00	BASE	31.00	21	33.49	21	2.9	100	2.9	75	0	985.1	NA	0.0000	-SN BR	2900	300	2760	0	0
2019/03/16 17:29:00	BASE	30.75	21	33.49	21	2.9	100	2.9	78	0	985.2	NA	0.0000	-SN BR	2600	300	3280	0	0
2019/03/16 17:30:00	BASE	30.45	21	33.49	21	2.9	100	2.9	81	0	985.1	NA	0.2540	-SN BR	2600	360	0	0	0
2019/03/16 17:31:00	BASE	30.49	21	33.49	21	2.9	100	2.9	82	0	985.1	NA	0.0000	-SN BR	3800	0	0	0	4100
2019/03/16 17:32:00	BASE	31.03	22	33.49	21	2.9	100	2.8	84	0	985.1	NA	0.0000	-SN BR	5000	1770	0	0	0
2019/03/16 17:33:00	BASE	31.69	22	33.80	19	2.9	100	2.8	87	0	985.1	NA	0.0000	-SN BR	7000	0	0	0	4300
2019/03/16 17:34:00	BASE	31.50	21	33.80	19	2.9	100	2.9	79	0	985.1	NA	0.0000	-SN BR	9999	1840	0	0	0
2019/03/16 17:35:00	BASE	30.00	20	33.80	19	2.9	100	2.9	79	0	985.2	NA	0.0000	-SN BR	9999	1640	0	0	0
2019/03/16 17:36:00	BASE	27.65	19	33.80	19	2.9	100	2.9	82	0	985.3	NA	0.0000	-SN BR	9999	1610	0	0	0
2019/03/16 17:37:00	BASE	27.09	19	33.80	19	2.9	100	2.9	82	0	985.3	NA	0.0000	-SN BR	6000	1510	0	0	0
2019/03/16 17:38:00	BASE	28.43	20	33.80	19	2.9	100	2.9	85	0	985.2	NA	0.0000	-SN BR	4700	430	0	0	0
2019/03/16 17:39:00	BASE	29.25	20	33.80	19	2.9	100	2.9	88	0	985.2	NA	0.0000	-SN BR	4700	390	0	0	0
2019/03/16 17:40:00	BASE	30.15	20	33.80	19	2.9	100	2.9	87	0	985.1	NA	0.0000	-SN BR	3800	430	0	0	0
2019/03/16 17:41:00	BASE	30.22	19	33.80	19	2.9	100	2.9	95	0	985.1	NA	0.0000	-SN BR	3200	390	0	0	0
2019/03/16 17:42:00	BASE	29.88	19	33.80	19	2.9	100	2.9	98	0	985.2	NA	0.0000	-SN BR	4000	390	0	0	0
2019/03/16 17:43:00	BASE	29.41	19	32.98	17	2.9	100	2.9	97	0	985.1	NA	0.0000	-SN BR	4100	330	0	0	0
2019/03/16 17:44:00	BASE	29.46	19	32.98	17	2.9	100	2.9	95	0	985.1	NA	0.0000	-SN BR	5000	0	0	0	3770
2019/03/16 17:45:00	BASE	29.39	20	32.98	17	2.9	100	2.9	89	0	985.2	NA	0.0000	-SN BR	6000	0	0	0	3710
2019/03/16 17:46:00	BASE	28.34	19	32.98	17	2.9	100	2.9	88	0	985.2	NA	0.0000	-SN BR	5000	360	0	0	0
2019/03/16 17:47:00	BASE	29.30	20	33.39	23	2.9	100	2.9	91	0	985.1	NA	0.0000	-SN BR	3300	0	0	0	3670
2019/03/16 17:48:00	BASE	30.59	21	33.39	23	2.9	100	2.9	84	0	985.1	NA	0.2540	-SN BR	4200	430	0	0	0
2019/03/16 17:49:00	BASE	30.51	21	33.39	23	2.9	100	2.9	78	0	985.1	NA	0.0000	-SN BR	6000	390	1640	0	0
2019/03/16 17:50:00	BASE	30.89	22	33.39	23	2.9	100	2.9	74	0	985.1	NA	0.0000	-SN BR	6000	360	0	0	0
2019/03/16 17:51:00	BASE	30.98	22	33.39	23	3.0	100	3.0	77	0	985.0	NA	0.0000	-SN BR	2700	300	0	0	0
2019/03/16 17:52:00	BASE	29.71	21	33.39	23	3.0	100	3.0	80	0	985.1	NA	0.0000	-SN BR	2300	0	0	0	3410
2019/03/16 17:53:00	BASE	29.52	20	33.39	23	3.0	100	3.0	90	0	985.1	NA	0.0000	-SN BR	3400	0	0	0	3410
2019/03/16 17:54:00	BASE	29.25	20	33.39	23	2.9	100	2.9	97	0	985.1	NA	0.0000	-SN BR	6000	390	0	0	0
2019/03/16 17:55:00	BASE	28.68	19	33.39	23	2.9	100	2.9	95	0	985.1	NA	0.0000	-SN BR	8000	0	0	0	3510
2019/03/16 17:56:00	BASE	28.82	20	33.39	23	2.9	100	2.9	92	0	985.1	NA	0.0000	-SN BR	6000	360	1410	0	0
2019/03/16 17:57:00	BASE	28.88	21	32.82	21	2.9	100	2.9	98	0	985.1	NA	0.0000	-SN BR	4000	330	1480	0	0
2019/03/16 17:58:00	BASE	28.43	20	32.82	21	2.9	100	2.9	99	0	985.2	NA	0.0000	-SN BR	4900	360	0	0	0
2019/03/16 17:59:00	BASE	27.25	18	32.82	21	2.9	100	2.9	103	0	985.1	NA	0.0000	-SN BR	4500	360	0	0	0
2019/03/16 18:00:00	BASE	27.52	18	32.82	21	2.9	100	2.9	101	0	985.1	NA	0.0000	-SN BR	4300	360	0	0	0
2019/03/16 18:01:00	BASE	28.13	19	32.72	16	2.9	100	2.9	99	0	985.0	NA	0.0000	-SN BR	4300	2400	0	0	0
2019/03/16 18:02:00	BASE	27.45	20	32.72	16	2.9	100	2.9	102	0	985.1	NA	0.2540	-SN BR	4100	360	0	0	0
2019/03/16 18:03:00	BASE	27.16	20	31.90	18	2.9	100	2.9	105	0	985.1	NA	0.0000	-SN BR	5000	0	0	0	3180
2019/03/16 18:04:00	BASE	27.67	19	31.90	18	2.9	100	2.9	105	0	984.9	NA	0.0000	-SN BR	6000	430	0	0	0
2019/03/16 18:05:00	BASE	27.20	20	31.90	18	3.0	100	3.0	111	0	984.9	NA	0.0000	-SN BR	5000	0	0	0	3120
2019/03/16 18:06:00	BASE	27.04	20	31.90	18	3.0	100	3.0	108	0	984.9	NA	0.0000	-SN BR	6000	0	0	0	3410
2019/03/16 18:07:00	BASE	27.99	17	31.90	6	3.0	100	3.0	110	0	984.9	NA	0.0000	-SN BR	4500	0	0	0	3150
2019/03/16 18:08:00	BASE	28.20	15	31.90	6	3.0	100	3.0	117	0	984.9	NA	0.0000	-SN BR	3700	0	0	0	3350
2019/03/16 18:09:00	BASE	27.82	16	31.90	12	3.0	100	3.0	119	0	984.9	NA	0.0000	-SN BR	5000	390	0	0	0
2019/03/16 18:10:00	BASE	27.70	15	31.90	12	3.0	100	3.0	118	0	984.9	NA	0.0000	-SN BR	6000	0	0	0	3740
2019/03/16 18:11:00	BASE	27.24	13	31.90	12	3.1	100	3.1	115	0	984.9	NA	0.0000	-SN BR	8000	390	0	0	0
2019/03/16 18:12:00	BASE	27.60	13	31.90	12	3.1	100	3.1	111	0	984.8	NA	0.0000	-SN BR	9000	360	0	0	0
2019/03/16 18:13:00	BASE	28.24	16	31.90	12	3.1	100	3.1	101	0	984.8	NA	0.0000	-SN BR	7000	390	0	0	0
2019/03/16 18:14:00	BASE	27.87	16	31.90	12	3.2	100	3.2	98	0	984.9	NA	0.0000	-SN BR	6000	390	0	0	0
2019/03/16 18:15:00	BASE	26.98	12	31.90	12	3.2	100	3.2	98	0	984.8	NA	0.0000	-SN BR	7000	360	0	0	0
2019/03/16 21:44:00	BASE	M	M	M	M	M	M	M	M	M	M	NA	0.0000		M	M	M	M	M
2019/03/16 21:45:00	BASE	M	M	M	M	M	M	M	24	0	981.4	NA	0.0000		5000	360	0	0	0
2019/03/16 21:46:00	BASE	33.74	13	M	M	M	M	M	23	0	981.5	NA	0.0000		4900	390	0	0	0
2019/03/16 21:47:00	BASE	32.94	14	M	M	M	M	M	21	0	981.4	NA	0.0000		5000	360	0	0	0
2019/03/16 21:48:00	BASE	33.39	15	M	M	3.1	100	3.1	20	0	981.5	NA	0.0000		4500	360	0	0	0
2019/03/16 21:49:00	BASE	32.22	15	M	M	3.1	100	3.1	19	0	981.4	NA	0.0000	-SN	5000	360	0	0	0
2019/03/16 21:50:00	BASE	31.70	17	M	M	3.0	100	3.0	18	0	981.3	NA	0.0000	-SN	5000	360	0	0	0
2019/03/16 21:51:00	BASE	32.08	18	M	M	3.0	100	3.0	16	0	981.2	NA	0.0000	-SN	5000	390	0	0	0
2019/03/16 21:52:00	BASE	32.85	18	39.25	14	3.0	100	3.0	16	0	981.2	NA	0.2540	-SN BR	4200	390	0	0	0
2019/03/16 21:53:00	BASE	32.09	17	39.25	14	3.0	100	3.0	15	0	981.2	NA	0.0000	-SN BR	5000	0	0	0	5150
2019/03/16 21:54:00	BASE	30.99	18	39.25	14	3.0	100	3.0	14	0	981.2	NA	0.0000	-SN BR	8000	390	0	0	0
2019/03/16 21:55:00	BASE	32.28	20	39.25	14	3.0	100	3.0	13	0	981.1	NA	0.0000	-SN BR	8000	0	0	0	5350
2019/03/16 21:56:00	BASE	33.28	20	39.25	14	3.0	100	3.0	12	0	981.0	NA	0.0000	-SN BR	9999	0	0	0	5250
2019/03/16 21:57:00	BASE	32.63	18	37.19	19	3.1	100	3.1	12	0	981.1	NA	0.0000	-SN BR	9999	0	0	0	5020
2019/03/16 21:58:00	BASE	32.21	17	37.19	18	3.1	100	3.1	11	0	981.1	NA	0.0000	-SN BR	9999	0	0	0	4920
2019/03/16 21:59:00	BASE	32.27	17	37.19	18	3.1	100	3.1	11	0	981.0	NA	0.0000	-SN BR	9999	0	0	0	4590
2019/03/16 22:00:00	BASE	33.16	17	37.19	18	3.2	100	3.2	11	0	980.9	NA	0.0000	-SN BR	9999	0	0	0	4230
2019/03/16 22:01:00	BASE	32.31	17	37.19	18	3.2	100	3.2	10	0	981.1	NA	0.0000	-SN BR	9999	0	0	0	3970
2019/03/16 22:02:00	BASE	31.01	15	37.19	18	3.2	100	3.2	10	0	981.1	NA	0.0000	-SN BR	9999	0	0	0	3710
2019/03/16 22:03:00	BASE	31.83	17	37.19	18	3.2	100	3.2	9	0	981.1	NA	0.0000	-SN	9999	1610	0	0	0
2019/03/16 22:04:00	BASE	33.85	21	37.61	16	3.2	100	3.2	9	0	980.9	NA	0.0000	-SN	7000	0	0	0	3410
2019/03/16 22:05:00	BASE	34.99	21	37.61	16	3.3	100	3.3	9	0	980.9	NA	0.0000	-SN BR	5000	0	0	0	3410
2019/03/16 22:06:00	BASE	34.59	22	37.81	26	3.3	100	3.3	9	0	980.9	NA	0.0000	-SN BR	3000	0	0	0	3770
2019/03/16 22:07:00	BASE	33.96	22	37.81	26	3.3	100	3.3	8	0	981.0	NA	0.0000	-SN BR	2900	0	0	0	3670
2019/03/16 22:08:00	BASE	33.15	21	37.81	26	3.3	100	3.3	7	0	981.0	NA	0.0000	-SN BR	3000	390	0	0	0
2019/03/16 22:09:00	BASE	33.60	21	37.81	26	3.3	100	3.3	8	0	980.8	NA	0.0000	-SN BR	2400	0	0	0	3220
2019/03/16 22:10:00	BASE	34.94	20	39.30	18	3.3	100	3.3	7	0	980.8	NA	0.0000	-SN BR	3200	460	0	0	0
2019/03/16 22:11:00	BASE	34.59	19	39.30	18	3.3	100	3.3	7	0	980.9	NA	0.0000	-SN BR	3400	430	0	0	0
2019/03/16 22:12:00	BASE	32.87	21	39.30	18	3.3	100	3.3	6	0	980.9	NA	0.0000	-SN BR	3800	1740	0	0	0
2019/03/16 22:13:00	BASE	32.48	22	39.30	18	3.3	100	3.3	6	0	980.9	NA	0.0000	-SN BR	4900	0	0	0	3610
2019/03/16 22:14:00	BASE	31.64	21	39.30	18	3.3	100	3.3	5	0	981.0	NA	0.0000	-SN BR	6000	1670	0	0	0
2019/03/16 22:15:00	BASE	31.59	18	39.30	18	3.3	100	3.3	5	0	980.8	NA	0.0000	-SN BR	5000	1640	0	0	0
2019/03/16 22:16:00	BASE	32.30	18	39.30	18	3.2	100	3.2	4	0	980.9	NA	0.0000	-SN BR	4700	1740	0	0	0
2019/03/16 22:17:00	BASE	31.68	17	39.30	18	3.2	100	3.2	4	0	981.0	NA	0.0000	-SN BR	5000	1800	0	0	0
2019/03/16 22:18:00	BASE	31.81	17	39.30	18	3.2	100	3.2	4	0	980.9	NA	0.0000	-SN BR	4500	1770	0	0	0
2019/03/16 22:19:00	BASE	32.60	17	39.30	18	3.2	100	3.2	4	0	980.8	NA	0.2540	-SN BR	4000	1710	0	0	0
2019/03/16 22:20:00	BASE	33.14	18	36.94	17	3.2	100	3.2	4	0	980.7	NA	0.0000	-SN BR	3300	0	0	0	3310
2019/03/16 22:21:00	BASE	33.13	18	36.73	18	3.3	100	3.3	4	0	980.8	NA	0.0000	-SN BR	3400	1740	0	0	0
2019/03/16 22:22:00	BASE	32.45	18	36.73	18	3.3	100	3.3	4	0	980.8	NA	0.0000	-SN BR	3400	390	0	0	0
2019/03/16 22:23:00	BASE	31.82	17	36.73	18	3.3	100	3.3	3	0	980.8	NA	0.0000	-SN BR	3000	390	0	0	0
2019/03/16 22:24:00	BASE	32.22	17	36.73	18	3.3	100	3.3	3	0	980.7	NA	0.0000	-SN BR	3100	430	0	0	0
2019/03/16 22:25:00	BASE	32.04	17	36.73	18	3.3	100	3.3	3	0	980.8	NA	0.0000	-SN BR	3700	0	0	0	3120
2019/03/16 22:26:00	BASE	31.43	17	36.73	18	3.3	100	3.3	3	0	980.8	NA	0.0000	-SN BR	3900	390	0	0	0
2019/03/16 22:27:00	BASE	32.10	16	37.04	9	3.4	100	3.4	3	0	980.7	NA	0.0000	-SN BR	4300	390	1840	0	0
2019/03/16 22:28:00	BASE	31.49	17	37.04	9	3.4	100	3.4	2	0	980.8	NA	0.0000	-SN BR	4300	430	0	0	0
2019/03/16 22:29:00	BASE	30.99	19	37.04	9	3.3	100	3.3	2	0	980.8	NA	0.0000	-SN BR	6000	390	0	0	0
2019/03/16 22:30:00	BASE	32.75	20	37.14	22	3.3	100	3.3	2	0	980.6	NA	0.0000	-SN BR	6000	390	0	0	0
2019/03/16 22:31:00	BASE	32.93	18	37.14	22	3.3	100	3.3	2	0	980.7	NA	0.0000	-SN BR	6000	0	0	0	3900
2019/03/16 22:32:00	BASE	32.22	17	37.14	22	3.3	100	3.3	2	0	980.7	NA	0.0000	-SN BR	8000	0	0	0	3410
2019/03/16 22:33:00	BASE	31.50	16	37.14	22	3.3	100	3.3	1	0	980.8	NA	0.0000	-SN BR	7000	0	0	0	3740
2019/03/16 22:34:00	BASE	30.53	15	37.14	22	3.3	100	3.3	1	0	980.7	NA	0.0000	-SN BR	5000	0	0	0	3410
2019/03/16 22:35:00	BASE	30.38	15	37.14	22	3.3	100	3.3	1	0	980.6	NA	0.2540	-SN BR	4800	0	0	0	3410
2019/03/16 22:36:00	BASE	30.67	16	37.14	22	3.2	100	3.2	1	0	980.6	NA	0.0000	-SN BR	6000	0	0	0	3710
2019/03/16 22:37:00	BASE	31.77	18	37.14	22	3.2	100	3.2	1	0	980.5	NA	0.0000	-SN BR	7000	0	0	0	4300
2019/03/16 22:38:00	BASE	32.04	17	37.14	22	3.2	100	3.2	1	0	980.5	NA	0.0000	-SN BR	7000	390	0	0	0
2019/03/16 22:39:00	BASE	29.89	16	37.14	22	3.2	100	3.2	1	0	980.5	NA	0.0000	-SN BR	7000	0	0	0	4100
2019/03/16 22:40:00	BASE	28.91	18	37.09	17	3.2	100	3.2	1	0	980.4	NA	0.0000	-SN BR	6000	390	0	0	0
2019/03/16 22:41:00	BASE	30.60	18	37.09	17	3.2	100	3.2	1	0	980.3	NA	0.0000	-SN BR	8000	430	0	0	0
2019/03/16 22:42:00	BASE	31.94	18	37.09	17	3.2	100	3.2	1	0	980.2	NA	0.0000	-SN BR	8000	0	0	0	5710
2019/03/16 22:43:00	BASE	32.56	19	37.09	17	3.2	100	3.2	1	0	980.2	NA	0.0000	-SN BR	9000	0	0	0	5580
2019/03/16 22:44:00	BASE	32.84	17	37.09	17	3.2	100	3.2	1	0	980.1	NA	0.0000	-SN BR	9999	0	0	0	5380
2019/03/16 22:45:00	BASE	32.26	15	37.09	17	3.2	100	3.2	1	0	980.2	NA	0.0000	-SN BR	8000	0	0	0	5180
2019/03/16 22:46:00	BASE	31.61	14	37.09	17	3.2	100	3.2	1	0	980.3	NA	0.0000	-SN BR	7000	0	0	0	4040
2019/03/16 22:47:00	BASE	31.43	15	36.73	18	3.2	100	3.2	1	0	980.2	NA	0.0000	-SN BR	8000	0	0	0	4230
2019/03/16 22:48:00	BASE	32.25	15	37.30	12	3.2	100	3.2	1	0	980.2	NA	0.0000	-SN BR	6000	0	0	0	3580
2019/03/16 22:49:00	BASE	32.98	16	37.30	12	3.2	100	3.2	1	0	980.2	NA	0.0000	-SN BR	4900	360	0	0	0
2019/03/16 22:50:00	BASE	32.16	16	37.30	12	3.2	100	3.2	1	0	980.2	NA	0.0000	-SN BR	5000	1670	0	0	0
2019/03/16 22:51:00	BASE	31.66	16	37.30	12	3.2	100	3.2	1	0	980.3	NA	0.0000	-SN BR	8000	0	0	0	4890
2019/03/16 22:52:00	BASE	32.24	15	37.30	12	3.2	100	3.2	1	0	980.2	NA	0.0000	-SN BR	9999	0	0	0	4920
2019/03/16 22:53:00	BASE	32.91	9	37.30	12	3.2	100	3.2	1	0	980.2	NA	0.0000	-SN BR	9999	820	0	0	0
2019/03/16 22:54:00	BASE	31.40	6	37.30	12	3.3	100	3.3	0	0	980.3	NA	0.0000	-SN BR	9999	750	0	0	0
2019/03/16 22:55:00	BASE	30.88	11	37.30	12	3.3	100	3.3	0	0	980.1	NA	0.0000	-SN BR	9999	0	0	0	4040
2019/03/16 22:56:00	BASE	31.12	14	37.30	12	3.3	100	3.3	0	0	980.2	NA	0.0000	-SN BR	9000	1840	0	0	0
2019/03/16 22:57:00	BASE	31.08	15	37.30	12	3.3	100	3.3	0	0	980.2	NA	0.0000	-SN BR	9999	0	0	0	6040
2019/03/16 22:58:00	BASE	33.67	15	38.17	14	3.4	100	3.4	0	0	979.9	NA	0.0000	-SN BR	9000	0	0	0	6100
2019/03/16 22:59:00	BASE	35.13	14	38.17	14	3.4	100	3.4	0	0	979.8	NA	0.0000	-SN BR	5000	0	0	0	5680
2019/03/16 23:00:00	BASE	33.61	15	38.17	14	3.4	100	3.4	0	0	980.0	NA	0.0000	-SN BR	5000	1870	0	0	0
2019/03/16 23:01:00	BASE	32.85	15	38.17	14	3.5	100	3.5	0	0	980.0	NA	0.0000	-SN BR	5000	0	0	0	4990
2019/03/16 23:02:00	BASE	31.88	14	38.17	14	3.5	100	3.5	0	0	980.1	NA	0.0000	-SN BR	7000	0	0	0	4760
2019/03/16 23:03:00	BASE	31.66	13	38.17	14	3.5	100	3.5	0	0	980.0	NA	0.2540	-SN BR	7000	0	0	0	4820
2019/03/16 23:04:00	BASE	32.72	13	38.17	14	3.5	100	3.5	0	0	980.1	NA	0.0000	-SN BR	6000	1870	0	0	0
2019/03/16 23:05:00	BASE	32.71	11	38.17	14	3.4	100	3.4	0	0	980.1	NA	0.0000	-SN BR	4800	330	0	0	0
2019/03/16 23:06:00	BASE	31.98	11	38.17	14	3.4	100	3.4	0	0	980.1	NA	0.0000	BR	4300	330	0	0	0
2019/03/16 23:07:00	BASE	31.11	12	38.17	14	3.3	100	3.3	0	0	980.1	NA	0.0000	BR	4400	260	0	0	0
2019/03/16 23:08:00	BASE	31.22	13	37.35	12	3.3	100	3.3	0	0	980.1	NA	0.0000	-SN BR	4700	390	0	0	0
2019/03/16 23:09:00	BASE	31.57	14	37.09	18	3.3	100	3.3	0	0	979.9	NA	0.0000	-SN BR	7000	1740	0	0	0
2019/03/16 23:10:00	BASE	31.36	14	37.09	18	3.3	100	3.3	0	0	980.0	NA	0.0000	-SN BR	6000	0	0	0	3840
2019/03/16 23:11:00	BASE	29.47	11	37.09	18	3.3	100	3.3	0	0	980.1	NA	0.0000	-SN BR	4300	460	0	0	0
2019/03/16 23:12:00	BASE	29.97	10	37.09	18	3.3	100	3.3	0	0	980.0	NA	0.0000	-SN BR	4500	1840	0	0	0
2019/03/16 23:13:00	BASE	31.30	13	37.04	10	3.3	100	3.3	0	0	980.0	NA	0.0000	-SN BR	5000	430	0	0	0
2019/03/16 23:14:00	BASE	32.95	14	39.77	24	3.3	100	3.3	0	0	979.8	NA	0.2540	-SN BR	5000	0	0	0	3870
2019/03/16 23:15:00	BASE	32.72	15	39.77	24	3.3	100	3.3	0	0	980.0	NA	0.0000	-SN BR	4300	0	0	0	3410
2019/03/16 23:16:00	BASE	31.21	17	39.77	24	3.3	100	3.3	0	0	980.0	NA	0.0000	-SN BR	5000	0	0	0	3670
2019/03/16 23:17:00	BASE	31.97	19	39.77	24	3.3	100	3.3	0	0	979.9	NA	0.0000	-SN BR	6000	0	0	0	3970
2019/03/16 23:18:00	BASE	33.41	20	39.77	24	3.2	100	3.2	0	0	979.8	NA	0.0000	-SN BR	4800	390	0	0	0
2019/03/16 23:19:00	BASE	35.47	20	39.97	24	3.2	100	3.2	0	0	979.7	NA	0.0000	-SN BR	3300	2000	0	0	0
2019/03/16 23:20:00	BASE	35.05	18	39.97	24	3.2	100	3.2	0	0	979.8	NA	0.0000	-SN BR	3800	0	0	0	4040
2019/03/16 23:21:00	BASE	35.48	19	40.85	18	3.3	100	3.3	0	0	979.6	NA	0.0000	-SN BR	4800	0	0	0	3810
2019/03/16 23:22:00	BASE	36.90	20	40.85	18	3.3	100	3.3	0	0	979.6	NA	0.0000	-SN BR	5000	0	0	0	3610
2019/03/16 23:23:00	BASE	35.51	21	40.85	18	3.3	100	3.3	0	0	979.7	NA	0.2540	-SN BR	6000	0	0	0	3450
2019/03/16 23:24:00	BASE	34.09	19	40.85	18	3.2	100	3.2	0	0	979.7	NA	0.0000	-SN BR	7000	1440	0	0	0
2019/03/16 23:25:00	BASE	34.38	19	40.85	18	3.2	100	3.2	0	0	979.7	NA	0.0000	-SN BR	6000	1540	0	0	0
2019/03/16 23:26:00	BASE	34.71	21	40.85	18	3.2	100	3.2	0	0	979.6	NA	0.0000	-SN BR	7000	430	0	0	0
2019/03/16 23:27:00	BASE	33.86	18	40.85	18	3.1	100	3.1	0	0	979.7	NA	0.0000	-SN BR	8000	430	0	0	0
2019/03/16 23:28:00	BASE	32.86	18	40.85	18	3.1	100	3.1	0	0	979.8	NA	0.0000	-SN BR	5000	430	1940	0	0
2019/03/16 23:29:00	BASE	34.28	19	40.85	18	3.1	100	3.1	0	0	979.7	NA	0.0000	-SN BR	3800	330	1480	0	0
2019/03/16 23:30:00	BASE	35.17	21	40.85	18	3.1	100	3.1	0	0	979.7	NA	0.0000	-SN BR	2300	330	1440	0	0
2019/03/16 23:31:00	BASE	35.09	22	39.87	23	3.1	100	3.1	0	0	979.6	NA	0.0000	-SN BR	2700	330	0	0	0
2019/03/16 23:32:00	BASE	35.25	22	39.10	15	3.1	100	3.1	0	0	979.6	NA	0.0000	-SN BR	4700	360	0	0	0
2019/03/16 23:33:00	BASE	35.01	21	39.10	15	3.1	100	3.1	0	0	979.6	NA	0.2540	-SN BR	5000	360	0	0	0
2019/03/16 23:34:00	BASE	33.93	19	39.10	15	3.2	100	3.2	0	0	979.6	NA	0.0000	-SN BR	5000	360	0	0	0
2019/03/16 23:35:00	BASE	32.18	19	39.10	15	3.2	100	3.2	0	0	979.8	NA	0.0000	-SN BR	6000	390	0	0	0
2019/03/16 23:36:00	BASE	31.65	18	38.79	24	3.2	100	3.2	0	0	979.7	NA	0.0000	-SN BR	5000	330	0	0	0
2019/03/16 23:37:00	BASE	31.64	17	38.79	24	3.2	100	3.2	0	0	979.8	NA	0.0000	-SN BR	5000	360	0	0	0
2019/03/16 23:38:00	BASE	32.89	17	38.79	24	3.2	100	3.2	0	0	979.6	NA	0.0000	-SN BR	3800	360	0	0	0
2019/03/16 23:39:00	BASE	32.28	18	38.79	24	3.2	100	3.2	0	0	979.7	NA	0.0000	-SN BR	4000	330	0	0	0
2019/03/16 23:40:00	BASE	30.39	20	38.79	24	3.2	100	3.2	0	0	979.7	NA	0.0000	-SN BR	5000	330	0	0	0
2019/03/16 23:41:00	BASE	31.53	19	38.27	19	3.2	100	3.2	0	0	979.6	NA	0.0000	-SN BR	4700	330	1380	0	0
2019/03/16 23:42:00	BASE	32.85	20	38.27	19	3.2	100	3.2	0	0	979.6	NA	0.0000	-SN BR	4600	360	0	0	0
2019/03/16 23:43:00	BASE	32.93	20	38.27	19	3.2	100	3.2	0	0	979.6	NA	0.0000	-SN BR	4000	330	0	0	0
2019/03/16 23:44:00	BASE	32.49	19	38.27	19	3.2	100	3.2	0	0	979.6	NA	0.2540	-SN BR	4400	330	0	0	0
2019/03/16 23:45:00	BASE	32.02	18	38.27	19	3.2	100	3.2	0	0	979.7	NA	0.0000	-SN BR	4100	330	0	0	0
2019/03/16 23:46:00	BASE	31.42	18	38.27	19	3.2	100	3.2	0	0	979.7	NA	0.0000	-SN BR	4200	330	0	0	0
2019/03/16 23:47:00	BASE	31.78	19	38.27	19	3.1	100	3.1	0	0	979.6	NA	0.0000	-SN BR	3800	330	0	0	0
2019/03/16 23:48:00	BASE	32.77	18	38.27	19	3.1	100	3.1	0	0	979.5	NA	0.0000	-SN BR	3700	300	0	0	0
2019/03/16 23:49:00	BASE	32.72	18	38.27	19	3.1	100	3.1	0	0	979.6	NA	0.0000	-SN BR	3700	330	0	0	0
2019/03/16 23:50:00	BASE	33.03	19	38.27	19	3.0	100	3.0	0	0	979.5	NA	0.2540	-SN BR	3600	300	1410	0	0
2019/03/16 23:51:00	BASE	32.98	21	36.94	22	3.0	100	3.0	0	0	979.5	NA	0.0000	-SN BR	3500	330	0	0	0
2019/03/16 23:52:00	BASE	32.31	22	36.94	22	3.0	100	3.0	0	0	979.5	NA	0.0000	-SN BR	3300	300	0	0	0
2019/03/16 23:53:00	BASE	31.14	22	36.94	22	3.0	100	3.0	0	0	979.6	NA	0.2540	-SN BR	2600	260	0	0	0
2019/03/16 23:54:00	BASE	31.06	20	36.94	22	3.0	100	3.0	0	0	979.5	NA	0.0000	-SN BR	2900	300	0	0	0
2019/03/16 23:55:00	BASE	31.86	22	36.94	22	3.0	100	3.0	0	0	979.5	NA	0.0000	-SN BR	3400	360	0	0	0
2019/03/16 23:56:00	BASE	31.36	22	36.94	22	3.0	100	3.0	0	0	979.4	NA	0.0000	-SN BR	4400	0	0	0	3180
2019/03/16 23:57:00	BASE	31.84	21	36.89	20	3.0	100	3.0	0	0	979.3	NA	0.0000	-SN BR	5000	0	0	0	3480
2019/03/16 23:58:00	BASE	32.67	21	36.89	20	3.0	100	3.0	0	0	979.3	NA	0.0000	-SN BR	4800	0	0	0	3280
2019/03/16 23:59:00	BASE	32.93	20	36.89	20	3.1	100	3.1	0	0	979.2	NA	0.0000	-SN BR	3900	0	0	0	3050